GEFSSGP_500_meanwind_000.txt.gz
Wind_Speed
8 10 10 11 12 13 12 12 13 14 16 17 17 16 16 16 17 19 18 18 18 19 19 19 19 19 19 18 17 17 18 18 18 18 18 18 17 18 19 19 18 17 17 18 19 18 17 15 15
7 8 9 10 11 11 10 10 12 14 16 17 17 17 16 18 20 20 19 20 20 21 19 17 17 18 19 20 20 19 20 20 21 21 20 20 21 22 22 21 20 20 20 21 21 20 17 16 16
7 8 8 9 10 9 9 9 11 13 16 18 18 17 17 19 21 21 21 21 20 18 17 17 18 20 21 21 22 22 22 22 23 22 22 22 23 25 25 24 23 23 24 24 23 20 18 16 16
6 6 8 8 8 8 9 11 12 13 15 17 17 16 18 19 21 21 20 19 18 17 19 20 21 21 23 24 24 24 24 24 24 24 24 24 26 27 27 26 26 26 26 25 22 19 18 16 16
10 10 9 9 9 9 11 13 15 17 18 19 19 20 21 20 20 20 19 20 21 22 22 23 24 23 24 25 26 26 26 26 26 26 26 26 27 28 28 27 27 26 25 24 22 21 20 18 17
13 13 13 13 14 14 15 16 18 20 20 21 21 21 21 20 19 19 21 23 24 25 25 25 26 26 26 27 27 28 28 28 28 28 28 29 29 29 29 28 27 26 24 23 21 21 21 19 19
14 14 14 15 16 17 17 18 20 21 21 21 22 21 22 23 23 24 24 24 25 26 27 27 28 29 28 28 28 29 30 30 30 30 30 30 30 29 28 26 26 25 24 23 22 22 22 21 21
17 18 19 19 20 20 20 21 22 23 24 25 26 25 25 26 27 28 29 29 28 29 29 29 30 30 29 28 28 28 29 29 29 29 29 29 29 27 26 25 26 26 26 25 25 25 26 24 24
19 19 21 21 21 22 21 22 24 25 26 27 28 29 28 28 29 30 31 31 31 30 29 28 27 28 29 29 29 28 28 28 28 27 27 27 26 26 27 27 28 28 29 29 29 28 29 29 28
18 20 21 20 21 21 21 23 24 24 25 27 29 30 29 28 29 30 30 29 28 26 24 24 25 26 27 28 28 27 27 27 28 28 28 28 29 30 31 32 33 34 34 34 33 33 33 33 34
16 19 21 20 19 19 19 20 20 19 20 25 26 27 27 27 27 27 26 26 26 26 24 23 24 25 27 29 30 29 29 31 32 33 33 34 36 36 37 38 39 39 39 38 38 38 38 38 38
16 20 20 18 17 16 16 16 15 14 18 19 20 21 21 21 22 23 25 27 28 29 30 30 29 29 30 32 34 35 37 38 40 41 41 42 43 43 43 43 44 43 43 43 43 43 43 42 42
14 17 16 15 15 11 11 12 10 15 15 14 16 18 20 22 24 26 28 31 32 33 33 34 34 35 36 37 38 40 42 44 45 47 48 48 48 49 49 49 48 47 47 47 47 46 45 45 45
12 13 13 13 13 13 14 14 16 20 17 17 19 20 21 23 25 27 30 32 32 34 35 35 36 36 37 38 40 41 43 45 47 49 51 52 53 53 53 53 52 50 49 49 48 48 47 47 47
14 14 15 16 17 18 15 13 20 20 18 18 19 21 23 25 27 29 32 33 34 36 38 39 39 40 40 41 42 43 45 46 47 48 49 51 53 54 55 54 53 52 50 49 48 48 47 48 48
18 17 18 20 20 19 15 12 20 20 20 19 21 23 26 28 29 32 35 35 37 39 42 43 45 46 47 47 47 48 50 51 51 51 50 50 50 51 52 52 52 52 51 49 48 47 47 46 46
20 19 20 23 24 21 16 11 19 23 22 21 24 27 29 32 34 37 39 40 42 44 46 47 49 51 53 54 54 55 56 55 54 53 52 50 48 48 48 49 51 52 51 49 48 47 46 45 45
23 24 24 24 25 21 20 15 18 23 24 24 27 31 34 36 39 42 42 44 46 49 51 52 53 56 57 58 59 61 62 60 54 51 50 49 48 47 47 47 47 48 48 47 46 46 45 45 45
26 26 23 22 23 20 21 21 22 23 27 29 33 37 38 41 45 46 46 49 52 54 56 57 59 62 62 62 62 63 61 58 53 50 49 49 49 49 48 48 46 47 46 46 46 45 45 45 45
26 24 23 21 24 24 23 26 27 30 34 38 42 45 47 49 50 50 52 54 57 58 59 60 63 64 64 63 64 64 59 54 52 52 51 50 49 49 47 47 45 43 43 42 42 43 44 47 48
24 23 23 23 25 28 31 33 36 42 45 49 51 52 54 55 56 57 58 59 61 61 62 63 64 65 64 64 62 61 58 55 52 53 54 51 50 50 47 45 44 41 41 41 40 40 44 47 49
21 24 26 29 32 34 36 42 45 54 56 58 58 59 59 60 60 62 64 64 63 63 63 63 64 65 65 65 60 58 57 53 51 52 50 50 49 48 45 45 44 42 41 39 39 41 43 45 47
26 29 33 36 39 43 47 50 53 59 62 64 65 65 64 64 65 65 64 63 63 62 62 62 64 64 64 64 62 58 52 49 47 46 46 48 50 45 39 42 40 39 38 39 41 41 44 46 48
33 36 39 44 49 53 56 59 60 64 68 69 71 71 70 69 68 67 66 64 62 60 58 59 61 61 62 61 58 53 49 47 45 44 43 46 46 43 41 41 39 39 39 40 39 42 46 49 52
41 45 49 53 56 59 62 66 66 70 72 73 73 71 71 70 68 68 66 63 59 56 54 56 58 58 58 56 54 51 49 47 47 46 42 46 48 42 40 41 41 40 39 39 40 44 47 50 51
48 52 55 59 61 64 66 69 68 71 72 73 72 73 73 73 71 68 63 59 55 52 52 53 55 56 55 54 53 51 50 48 50 49 44 47 50 48 41 42 41 40 40 40 41 45 48 48 46
53 56 59 63 66 69 70 71 71 73 74 74 75 74 73 72 71 66 59 55 51 51 51 51 54 55 53 53 53 53 52 50 50 47 45 45 44 43 40 41 41 42 42 41 41 44 46 45 43
57 59 61 62 67 71 71 71 76 77 76 77 77 76 73 72 69 62 56 52 50 51 50 51 55 55 55 56 56 57 51 46 43 40 42 42 38 36 37 39 40 42 42 41 41 44 43 43 42
60 61 63 67 67 71 73 69 74 76 77 79 78 77 75 71 66 59 53 49 49 52 52 52 54 54 52 53 54 54 49 43 46 44 41 39 36 35 37 40 41 42 42 41 41 42 42 42 42
61 62 65 66 68 72 75 76 74 76 78 77 77 75 71 66 59 53 49 45 45 48 48 48 51 50 49 52 51 51 53 49 46 44 38 36 34 36 38 41 41 41 40 39 41 42 42 41 41

GEFSSGP_500_meanwind_006.txt.gz
Wind_Speed
10 11 11 11 13 14 15 18 19 20 20 20 21 21 21 21 22 23 23 22 21 21 20 21 21 20 18 16 15 14 14 15 16 16 16 17 17 18 19 19 19 19 18 17 17 17 16 15 14
8 9 9 10 10 11 14 16 18 18 20 21 21 21 22 22 23 24 23 22 22 22 22 22 21 19 17 16 16 16 17 18 18 18 19 20 20 21 21 21 21 20 20 19 19 19 18 16 14
7 8 8 10 11 13 15 16 17 20 20 20 20 20 21 22 23 24 23 23 23 24 23 21 19 17 17 18 19 19 19 19 20 20 21 21 22 22 22 22 22 22 22 21 21 21 19 16 14
5 5 7 10 13 15 17 17 18 18 18 18 17 17 19 20 22 23 23 24 24 24 22 19 19 19 20 21 22 23 23 23 22 22 22 23 23 23 23 23 23 23 23 23 23 22 20 17 14
7 6 7 9 11 13 14 14 16 17 16 16 17 17 19 21 22 24 24 24 23 22 21 21 21 22 23 23 24 24 25 25 25 25 25 25 25 25 24 24 24 25 25 24 24 22 21 19 16
11 11 11 12 12 12 13 14 16 17 17 17 17 17 20 21 21 21 22 21 22 22 23 23 24 24 25 26 26 26 26 26 26 26 27 28 28 27 27 27 27 27 27 25 24 23 22 20 18
13 13 14 14 14 14 15 16 17 18 18 19 19 19 21 22 22 23 24 24 25 25 25 26 26 27 27 28 28 28 29 28 28 28 28 28 28 28 29 29 29 28 26 26 25 24 23 22 20
16 16 17 17 17 17 18 19 20 20 21 22 23 23 24 26 25 25 26 27 27 27 27 27 28 28 28 28 28 28 28 28 28 29 29 29 29 29 28 28 28 27 26 26 25 25 25 24 23
17 18 20 19 19 19 20 20 21 22 22 23 25 26 27 26 26 26 26 26 27 27 27 26 26 27 26 26 26 26 26 27 27 28 29 30 30 29 29 29 28 28 28 27 27 28 28 28 28
16 17 19 18 18 18 19 20 20 20 20 23 25 25 24 24 24 24 24 24 24 24 24 24 24 25 25 26 26 26 26 26 27 28 29 30 31 31 31 31 31 31 32 32 32 32 33 33 33
14 16 17 17 18 18 19 19 19 18 20 24 23 21 21 21 21 21 22 23 23 24 25 25 26 27 28 28 29 30 30 30 31 31 32 32 33 34 35 35 35 36 37 37 37 38 38 39 39
14 17 17 18 18 17 17 18 19 19 22 22 20 20 22 22 22 22 23 24 25 26 27 27 27 28 29 30 31 32 33 34 35 36 37 37 38 40 41 41 41 42 42 43 43 44 44 44 45
12 14 15 16 17 16 16 17 18 21 23 23 23 23 24 24 24 24 25 25 25 25 25 26 27 29 30 31 31 32 32 33 34 36 37 38 40 41 43 44 44 45 45 46 47 48 49 49 49
13 15 17 17 18 16 16 17 20 23 26 28 28 28 27 26 25 25 25 25 25 25 27 29 31 33 35 36 36 36 36 37 38 39 39 40 40 41 42 43 44 44 45 45 46 48 50 52 52
16 17 20 22 22 21 21 21 25 27 28 29 30 29 27 27 27 27 27 27 28 30 32 33 35 38 40 41 42 42 43 43 44 45 45 46 45 45 46 47 47 47 46 47 48 48 50 51 52
21 21 23 26 25 25 24 21 29 32 28 29 31 30 29 29 29 29 30 31 33 35 37 39 41 43 44 46 46 47 48 48 49 49 50 51 51 51 51 51 50 49 49 50 50 49 50 50 51
24 24 25 28 27 26 26 23 29 32 28 27 28 28 29 30 31 32 34 36 39 41 43 45 46 48 49 51 51 52 52 52 52 53 53 53 54 55 55 54 52 51 51 51 51 50 51 51 52
24 24 24 25 25 24 22 21 25 25 24 24 25 27 29 32 36 39 42 43 45 46 47 48 50 51 53 54 56 56 56 55 55 56 56 56 56 55 56 56 54 52 51 49 50 51 51 52 53
21 21 21 22 21 18 16 19 22 23 26 28 30 33 37 41 45 47 47 47 48 48 49 49 51 52 54 56 57 59 59 58 58 57 57 57 56 54 54 53 52 51 50 50 50 52 53 53 53
19 18 18 18 20 19 19 24 27 28 30 34 39 43 46 49 51 51 51 51 51 51 51 51 51 53 54 56 58 59 59 59 59 58 57 56 55 54 53 52 50 50 50 50 51 52 53 54 54
17 17 18 20 22 25 28 32 36 37 41 45 48 51 53 55 55 53 52 52 53 53 54 54 53 53 54 55 57 58 59 59 59 58 57 57 55 54 54 53 51 50 50 51 52 53 53 53 53
19 22 24 26 29 32 35 41 45 48 50 53 56 57 58 60 60 59 58 58 59 60 59 59 58 58 57 56 56 58 58 59 60 59 57 57 56 54 55 55 54 52 52 53 53 53 54 54 52
24 27 30 33 36 39 42 46 50 53 56 58 60 60 61 61 61 62 63 65 66 67 68 67 67 66 64 62 60 60 60 61 61 59 58 57 56 56 54 53 52 51 51 52 53 53 55 56 54
29 31 34 37 40 43 46 50 54 56 58 58 58 59 60 62 64 67 71 74 75 75 75 76 75 73 70 66 63 62 62 62 61 60 58 56 55 55 52 52 51 51 51 51 52 53 53 55 55
34 37 40 43 46 48 51 54 57 57 57 57 58 62 65 68 72 75 78 81 83 82 80 79 77 74 70 67 64 62 61 61 61 59 57 54 53 51 51 51 50 50 50 50 50 51 52 54 54
38 41 44 47 50 52 53 54 55 57 60 62 66 70 74 77 80 83 84 86 85 84 81 77 73 69 65 62 59 58 57 59 58 56 53 51 50 49 49 48 47 47 49 49 50 51 50 51 51
44 47 49 51 52 52 52 55 58 62 65 70 74 77 80 82 85 87 86 84 81 78 74 71 66 62 58 56 54 53 53 55 54 52 49 48 48 47 47 46 44 45 48 50 52 51 51 49 48
47 48 48 50 53 54 55 62 66 69 73 76 80 82 84 86 86 84 81 77 72 67 63 60 58 55 52 51 52 52 53 54 52 48 44 45 45 45 45 43 41 41 43 46 48 49 49 49 47
47 47 48 51 55 60 63 65 70 72 76 81 83 83 83 81 77 73 69 65 61 56 53 51 50 50 50 51 54 55 55 53 51 48 47 46 46 45 44 43 43 43 43 43 44 45 46 46 45
46 48 51 54 58 62 67 72 74 75 79 81 79 76 72 67 63 61 60 61 59 55 51 48 48 48 51 54 57 58 57 54 53 51 47 43 42 42 42 42 43 43 42 41 41 41 41 41 40

GEFSSGP_500_meanwind_012.txt.gz
Wind_Speed
10 11 12 13 13 13 15 18 19 18 21 20 20 22 23 25 25 24 24 24 25 25 27 28 28 26 26 26 26 25 23 21 20 19 19 19 19 18 19 19 19 19 19 18 17 17 17 17 16
10 9 10 11 11 11 12 16 17 18 17 18 21 23 25 27 25 25 25 26 27 28 28 29 28 27 26 26 26 25 23 21 21 21 21 22 22 22 22 22 22 21 21 20 19 18 18 17 16
8 8 8 10 13 13 17 18 15 13 16 19 21 22 24 26 25 26 27 29 29 29 29 29 28 28 27 26 25 23 22 22 23 23 23 23 24 23 23 23 23 23 23 22 21 20 19 18 17
5 5 8 9 12 14 14 12 13 14 15 16 18 21 25 25 26 26 27 28 29 30 29 29 29 28 27 25 24 23 23 24 25 25 25 24 24 24 24 24 24 23 23 23 22 21 20 20 19
6 4 6 8 10 11 12 13 13 15 15 16 18 21 26 23 26 27 27 28 30 31 30 30 30 28 27 25 25 25 26 26 26 27 26 26 25 25 25 25 25 24 23 23 23 23 22 21 20
8 7 8 9 9 11 12 13 15 16 17 19 20 21 27 25 27 28 29 30 31 32 31 28 28 27 27 27 28 28 28 28 28 28 28 27 26 26 26 26 26 25 25 25 24 24 24 23 22
9 9 9 10 11 12 13 14 17 17 19 20 20 23 30 28 26 29 30 31 31 32 32 31 29 29 29 29 29 30 30 29 29 29 29 28 27 27 26 26 26 26 26 26 25 25 24 24 23
13 13 13 13 14 16 16 17 19 19 21 22 23 26 32 31 27 30 31 32 33 33 33 33 32 30 29 30 30 30 29 28 27 27 27 27 27 27 27 27 27 27 27 27 26 26 25 24 24
13 15 16 17 17 19 18 20 21 21 23 25 26 29 33 32 30 30 32 33 34 33 33 33 32 30 28 27 26 26 26 25 24 25 25 25 26 27 27 27 27 28 28 28 28 27 26 26 25
12 14 16 16 17 18 20 21 22 23 24 28 30 30 32 30 29 30 30 31 31 29 29 30 30 28 27 26 24 23 24 25 25 26 26 26 27 28 28 27 28 29 29 29 29 29 28 28 28
11 13 14 14 15 17 18 20 23 24 26 30 30 29 31 30 27 27 27 28 29 28 27 27 27 27 26 25 24 23 23 24 25 26 27 27 29 30 31 30 30 31 32 32 33 33 33 33 33
10 11 12 13 13 14 16 18 21 25 27 28 28 28 29 28 26 26 27 28 29 29 29 29 28 28 27 26 26 25 25 25 25 26 27 28 29 30 32 32 32 33 34 36 36 37 38 39 40
12 13 14 15 14 15 16 19 21 24 24 24 26 28 27 27 27 29 30 31 31 31 30 30 30 29 29 29 29 29 30 30 30 30 31 32 33 34 34 35 35 35 36 36 37 38 39 41 42
16 17 19 19 18 18 20 24 26 25 23 25 28 29 28 28 29 30 31 30 31 31 30 31 32 32 32 32 33 34 35 35 36 37 37 38 39 40 40 40 40 39 39 40 40 40 40 41 42
20 21 23 22 21 21 23 27 31 26 25 27 28 29 29 29 29 28 29 29 30 31 31 32 34 36 37 37 38 40 41 41 42 43 44 45 46 46 46 46 46 45 44 44 44 44 44 44 44
23 23 26 25 20 21 23 28 31 27 26 27 27 26 26 26 25 26 27 28 30 32 34 36 38 41 43 44 45 46 47 48 48 49 50 51 51 52 52 52 52 52 51 50 49 50 50 50 49
24 23 23 27 24 21 23 26 26 24 24 24 24 25 25 25 27 29 31 33 35 38 40 43 45 47 49 51 51 52 52 53 53 54 54 54 55 56 56 56 57 57 57 56 55 54 54 54 54
20 21 22 23 23 21 21 25 25 21 24 26 28 30 32 33 35 37 39 41 43 45 47 48 50 51 52 53 54 54 55 55 56 57 57 57 58 59 60 60 60 61 61 61 60 59 58 57 57
17 18 19 20 20 20 21 26 29 27 29 32 34 36 38 40 42 43 44 45 46 48 49 50 51 52 53 54 55 56 56 57 57 58 58 59 59 59 60 61 62 62 63 63 63 62 61 59 58
18 18 20 21 24 25 25 29 33 33 34 35 37 39 41 43 44 45 45 46 47 49 51 53 54 55 56 58 59 60 60 60 60 60 60 60 60 59 59 60 61 62 63 63 63 62 61 61 59
21 22 23 26 27 29 32 34 36 37 37 38 40 41 42 43 45 46 47 48 51 54 57 60 62 64 65 66 67 68 68 68 67 66 66 65 64 63 62 61 61 62 62 62 63 62 62 61 60
25 27 29 32 35 36 38 40 41 42 40 39 41 43 45 48 50 52 54 56 59 62 66 69 71 72 74 75 76 76 76 75 73 72 71 70 68 67 66 65 64 63 63 63 63 63 63 62 60
30 32 35 37 39 41 42 42 45 46 46 45 47 51 54 57 58 61 64 67 69 71 74 76 78 79 81 83 84 83 82 80 77 75 74 73 71 69 68 67 66 65 64 64 63 63 62 62 62
35 36 38 41 43 45 45 45 50 51 51 54 59 62 64 66 69 71 73 75 77 79 80 82 83 84 85 86 85 84 81 78 75 72 70 70 70 69 68 67 66 66 65 63 63 62 62 62 62
37 39 41 44 45 43 45 49 53 51 57 62 67 70 73 75 76 76 78 81 82 82 83 83 82 80 79 77 75 74 71 68 66 63 62 64 66 67 66 65 65 64 63 62 61 61 61 61 61
40 41 43 44 44 45 49 52 56 59 62 67 73 76 78 78 77 79 81 83 83 82 81 78 74 71 66 63 61 60 59 58 56 55 55 57 59 60 60 60 60 60 59 58 58 59 59 59 59
40 41 42 43 46 50 53 57 59 61 68 74 77 78 79 78 78 79 79 79 78 74 69 65 63 61 60 59 60 61 61 60 57 54 52 52 54 56 55 55 56 57 56 55 55 54 56 57 56
39 41 44 46 50 53 58 58 58 68 74 77 78 78 78 77 78 77 76 73 67 60 57 58 61 64 66 67 66 65 62 59 56 53 51 50 52 53 52 54 56 56 55 53 50 49 51 51 51
42 44 47 51 54 58 63 62 65 70 74 76 77 76 75 75 73 71 66 58 53 52 55 58 61 62 60 57 53 50 48 48 49 49 48 49 50 53 52 49 51 52 52 49 45 42 42 43 44
45 48 52 56 59 62 65 70 63 69 73 74 72 69 68 66 63 58 51 47 47 50 53 55 54 51 47 41 37 35 34 35 38 42 44 45 46 48 51 49 47 47 48 45 40 38 39 42 44

GEFSSGP_500_meanwind_018.txt.gz
Wind_Speed
9 9 10 12 15 18 19 19 19 19 19 19 20 21 23 24 23 23 21 21 21 21 21 22 22 23 23 23 23 23 24 24 24 24 24 23 22 21 20 21 21 21 21 20 20 20 19 19 18
8 8 10 12 15 18 19 19 20 17 16 18 19 21 22 23 24 24 22 21 21 21 22 23 24 24 24 24 24 24 25 25 25 25 24 24 23 22 21 22 22 23 23 23 22 22 22 21 21
5 7 10 12 14 16 17 17 17 15 16 17 18 20 21 20 20 23 24 22 22 23 24 25 26 26 26 25 25 25 25 25 25 25 24 24 24 24 23 23 24 24 24 24 24 24 23 23 22
2 3 7 9 11 12 14 12 12 14 13 14 15 18 19 19 19 21 23 23 23 24 26 27 27 27 27 26 26 26 26 26 26 26 26 26 26 25 25 25 25 25 25 25 24 24 24 24 23
3 3 5 6 7 9 10 9 10 11 9 11 13 16 18 19 19 19 21 22 23 23 25 27 28 28 28 28 28 28 28 28 28 28 28 28 28 28 27 27 27 27 27 26 26 26 25 25 24
4 4 6 7 7 8 7 6 9 11 11 12 14 18 20 21 20 20 21 23 24 25 25 27 28 29 30 30 30 30 30 30 30 30 31 31 31 30 30 29 29 29 29 29 28 28 27 27 26
6 6 8 9 9 8 6 7 9 13 15 16 18 21 22 23 21 21 23 26 28 29 28 28 30 31 32 33 33 33 33 34 34 33 33 33 33 32 31 31 30 30 31 31 31 30 29 29 28
8 9 10 11 11 11 11 12 13 16 20 20 21 23 25 26 25 25 27 30 32 32 32 32 33 33 34 34 35 35 35 35 35 35 34 33 33 32 32 31 31 31 31 31 31 31 30 30 29
8 8 9 10 12 13 14 16 17 19 22 24 24 26 28 29 29 29 30 31 33 33 32 33 33 32 31 32 33 35 35 35 35 34 33 32 31 31 30 30 30 30 31 31 31 31 30 30 29
6 7 7 8 10 12 14 16 17 19 21 23 25 26 28 29 30 30 30 31 32 32 31 30 31 31 30 29 30 32 33 35 35 35 34 33 32 31 30 30 29 30 30 30 30 30 29 29 29
6 6 7 7 9 12 15 16 17 17 18 19 22 24 26 28 29 29 28 29 30 30 30 29 30 31 32 32 31 31 32 34 35 36 36 35 35 34 33 33 32 31 31 32 31 31 31 30 30
8 9 9 10 12 15 17 18 18 18 19 18 19 21 24 26 28 30 31 31 31 31 31 31 32 34 35 36 35 34 34 36 37 38 39 39 39 37 36 36 35 34 34 34 35 35 34 34 33
12 13 13 15 17 19 21 21 21 21 21 22 22 23 25 27 29 31 33 35 35 35 34 34 35 37 38 39 39 39 38 38 39 39 40 40 40 40 40 39 38 38 37 37 37 37 37 37 37
15 16 17 17 19 20 22 23 22 21 21 22 22 23 24 25 27 29 31 33 35 35 35 35 36 38 40 41 41 41 41 41 41 40 41 41 41 42 42 42 42 42 41 41 40 40 40 40 40
14 15 14 15 16 18 19 19 19 18 18 19 20 21 22 24 25 27 30 32 34 36 36 36 37 38 40 41 42 43 44 45 45 44 44 44 45 45 46 46 46 46 46 45 45 45 45 44 44
12 13 12 12 13 14 16 17 17 18 19 20 22 24 26 28 30 32 34 36 39 41 42 43 44 44 45 46 47 48 48 49 50 50 51 51 51 51 51 51 51 52 52 51 51 50 50 49 49
14 14 14 14 16 18 19 20 21 21 21 23 26 29 32 34 36 37 39 41 42 44 45 46 48 48 49 50 52 53 54 54 55 56 56 57 57 57 57 57 57 57 57 57 57 56 56 55 55
15 16 17 17 19 21 23 25 25 26 26 29 31 33 35 37 39 41 42 43 44 45 46 47 48 49 51 52 54 56 58 59 60 60 60 61 61 62 62 62 62 62 61 61 61 62 61 61 60
14 15 17 18 20 23 25 27 28 28 30 32 33 36 38 40 42 43 44 45 46 48 49 50 51 52 54 56 57 59 61 62 63 64 65 65 65 65 65 65 65 65 65 65 65 65 65 65 65
15 17 18 20 23 25 27 28 29 31 33 34 37 40 43 45 47 48 49 51 53 54 56 58 61 62 63 64 66 66 67 68 68 69 69 70 70 70 70 69 69 69 69 68 68 67 66 67 67
19 20 21 22 23 26 29 30 32 35 38 41 45 48 51 54 56 58 58 59 60 61 63 63 64 66 68 71 72 73 73 74 74 75 75 75 76 76 76 75 75 74 74 73 73 72 70 69 68
21 23 24 25 27 30 34 36 37 41 45 49 52 56 59 62 65 67 69 70 70 70 69 68 68 71 73 76 78 78 78 78 78 78 78 78 78 79 79 80 80 80 79 79 79 78 76 74 72
22 24 27 29 32 34 38 41 44 47 51 55 59 62 66 70 72 74 75 76 76 75 74 73 74 76 78 80 80 80 79 78 79 79 79 78 78 78 79 80 81 82 82 82 82 82 81 79 77
24 27 30 33 36 38 41 46 51 54 59 62 65 69 72 74 76 77 78 79 79 79 79 78 79 79 79 79 77 74 71 70 69 70 72 73 74 74 75 78 80 81 82 83 83 83 83 82 80
27 30 33 37 40 43 47 51 56 61 65 68 71 73 75 76 76 77 78 79 80 81 81 81 80 78 73 67 61 58 56 56 57 59 62 64 66 68 69 71 73 74 75 75 77 79 79 79 79
31 34 37 40 44 47 51 57 62 67 71 73 74 74 74 74 75 77 79 80 81 82 81 78 73 66 58 51 46 45 46 48 50 52 55 57 60 63 65 66 66 65 64 63 64 67 69 70 72
35 39 42 45 50 54 58 62 67 72 74 73 72 71 70 72 74 76 78 79 79 76 70 64 56 48 42 39 39 39 40 42 43 45 46 47 49 51 55 59 62 60 58 56 56 58 60 62 63
39 43 47 51 55 58 62 67 71 73 71 68 66 66 67 70 72 72 71 68 64 59 53 46 40 36 34 34 35 36 37 38 39 40 40 40 40 41 42 47 53 55 54 53 52 51 51 53 53
43 46 50 54 57 62 67 71 73 70 66 63 63 64 65 65 63 60 56 53 50 45 40 35 32 31 31 32 33 34 35 36 36 37 36 36 36 35 34 36 42 47 49 50 51 51 48 48 49
46 50 54 57 61 64 69 72 70 65 62 61 61 61 59 56 53 52 50 47 43 38 33 30 29 29 30 31 32 33 34 35 35 35 35 34 33 31 29 28 32 39 45 47 50 49 48 48 48

GEFSSGP_500_meanwind_024.txt.gz
Wind_Speed
12 12 12 13 14 15 15 16 16 16 18 18 18 19 20 21 21 22 22 22 23 24 24 25 25 25 26 26 26 26 25 25 24 24 24 24 23 23 22 23 23 23 23 23 23 22 21 21 20
9 10 11 11 12 13 14 15 15 16 16 16 17 19 21 22 23 23 24 23 23 24 25 26 26 27 27 28 28 28 28 28 27 27 26 26 26 25 25 25 25 26 26 25 25 25 24 24 24
8 8 8 8 9 10 11 11 12 14 15 16 16 18 20 21 23 23 23 23 23 23 24 25 26 27 28 29 29 29 29 29 29 28 28 28 27 27 27 27 27 28 28 27 27 27 27 27 27
7 7 6 6 6 5 6 8 11 13 14 14 14 15 15 16 18 20 21 21 22 23 24 25 26 28 29 29 30 30 30 30 30 29 29 29 29 29 29 29 29 29 29 29 29 29 29 29 29
8 7 5 4 4 4 6 8 10 12 12 12 12 13 13 14 15 17 19 21 22 23 23 24 26 28 29 30 30 31 31 31 31 32 32 32 31 31 31 31 31 31 31 31 30 30 30 31 31
7 7 6 5 6 7 8 10 11 11 11 12 13 14 15 16 16 17 18 20 22 24 25 26 27 29 30 31 32 32 33 34 34 35 35 35 34 34 34 34 33 33 33 33 33 32 32 32 32
6 6 6 6 6 8 10 12 13 15 15 15 16 18 19 20 21 21 22 24 26 28 29 30 31 32 33 34 35 36 36 36 37 38 38 38 38 38 38 37 36 36 36 36 36 35 34 34 34
6 6 6 7 8 9 11 12 14 15 17 18 19 21 22 23 24 25 27 28 29 30 32 33 34 35 36 37 37 38 38 37 37 38 39 39 40 40 41 41 40 39 39 39 38 38 37 36 36
8 8 8 9 10 11 12 12 13 14 15 17 19 21 22 24 26 27 29 30 31 32 33 34 34 35 36 37 38 39 38 38 37 37 38 39 40 41 42 42 42 41 41 41 41 41 40 39 38
8 9 9 10 11 11 12 13 13 14 15 16 18 21 23 25 27 29 30 31 32 33 33 33 34 34 35 37 38 39 39 39 39 39 39 39 39 40 41 42 42 42 41 42 42 43 42 41 40
8 9 10 11 12 12 13 15 16 17 18 19 21 23 25 26 28 30 31 32 33 34 34 35 36 36 37 38 40 41 41 42 42 43 43 43 43 42 42 42 42 42 42 42 42 42 42 42 41
9 10 11 12 13 13 14 14 15 16 18 19 21 22 24 26 28 30 31 32 33 34 35 36 37 38 39 40 41 42 44 44 45 46 46 47 46 46 45 44 43 43 43 43 43 43 43 43 42
10 11 12 12 12 12 12 12 13 14 15 17 19 22 24 26 29 31 33 35 36 37 39 39 40 41 42 43 43 44 45 46 47 48 49 49 49 49 49 48 47 46 46 45 45 45 45 45 44
10 10 11 11 12 12 12 13 14 15 17 20 22 25 27 30 33 35 38 40 41 43 44 45 47 48 48 49 50 50 50 50 50 50 51 51 51 51 51 51 51 50 50 48 48 47 48 48 47
12 12 12 13 13 14 14 14 17 19 22 25 27 30 33 35 38 40 42 44 46 47 49 50 52 53 53 54 55 56 56 56 56 56 56 55 55 54 54 53 53 53 52 52 51 50 50 50 50
13 13 13 14 15 16 17 17 20 23 26 29 31 34 36 39 41 43 46 48 49 51 53 54 55 56 57 58 59 60 61 61 61 61 60 60 60 59 59 58 57 56 55 55 54 53 53 52 52
13 14 15 16 17 19 20 22 24 27 30 32 34 37 40 43 46 49 51 53 54 56 57 59 60 61 62 62 63 63 64 64 64 63 63 63 63 63 63 63 63 61 60 59 58 57 57 56 56
13 14 16 17 19 22 24 26 29 32 34 37 40 43 46 50 52 55 57 59 61 63 64 65 65 65 66 66 66 67 67 66 66 65 65 65 65 65 66 66 67 67 66 65 63 62 61 60 59
14 16 18 20 22 25 29 32 36 38 41 44 47 50 54 58 60 63 65 68 70 71 72 72 72 71 71 70 71 71 71 71 71 70 70 70 70 70 70 70 70 71 71 70 69 68 67 66 65
16 19 21 23 26 29 33 38 41 44 47 50 53 56 60 64 67 70 74 76 78 79 79 78 77 77 77 77 76 76 76 77 77 76 75 76 76 76 76 77 77 76 76 75 74 73 72 71 70
19 22 25 27 30 33 38 43 45 48 51 55 58 62 66 70 74 78 81 83 83 83 83 84 83 82 81 81 80 80 79 80 81 81 81 82 82 82 83 84 84 84 83 81 80 79 77 76 74
22 25 28 31 35 39 42 47 49 52 55 59 63 67 72 76 80 82 83 84 84 83 83 83 82 82 81 79 78 78 78 77 78 80 82 83 84 86 87 88 88 88 87 86 85 84 83 82 80
26 28 31 35 38 42 45 50 54 56 59 63 68 73 76 79 81 82 81 81 80 79 78 76 74 71 69 67 66 65 64 64 64 66 68 71 75 78 81 84 87 88 89 89 89 88 87 86 85
29 32 35 38 41 45 48 53 57 59 64 69 73 76 78 79 78 77 76 75 73 70 66 62 59 56 54 53 52 50 47 44 44 44 46 50 54 58 62 67 72 76 80 83 85 87 88 88 88
31 34 37 41 45 48 52 55 59 64 69 72 75 77 77 75 73 71 68 64 60 56 53 51 49 47 46 44 42 39 35 32 30 30 31 33 36 39 43 47 51 56 61 66 71 76 81 84 86
33 37 40 44 48 51 54 58 63 68 71 74 76 75 73 69 66 62 58 54 52 50 48 47 45 43 41 39 37 34 31 29 27 27 26 27 28 30 32 36 39 42 46 51 56 63 70 76 80
36 40 43 47 51 54 58 61 66 69 72 74 73 71 67 62 58 54 51 49 48 46 46 44 43 41 39 37 35 33 31 29 28 28 28 27 28 29 31 33 35 37 40 42 46 50 57 64 70
38 43 47 51 55 58 61 65 68 71 73 73 70 66 61 55 51 48 46 46 46 46 45 44 43 42 40 38 37 35 33 32 31 30 30 30 31 32 33 35 36 37 38 39 41 43 46 51 57
41 45 49 53 56 61 66 67 69 72 73 71 67 61 55 50 47 45 45 46 46 46 46 45 44 43 42 41 39 38 37 36 35 35 34 34 35 35 36 37 38 38 38 38 38 38 39 41 44
42 47 51 54 59 62 66 68 72 73 72 69 63 56 51 48 47 47 47 47 47 47 47 47 46 46 45 44 43 42 41 40 40 39 39 38 38 38 38 38 38 38 37 36 33 32 33 34 37

GEFSSGP_500_meanwind_030.txt.gz
Wind_Speed
3 3 3 4 5 6 7 9 11 12 13 13 14 15 16 18 19 20 20 20 20 21 21 22 24 25 27 28 29 29 30 30 30 30 29 29 28 27 26 26 25 24 24 24 24 25 25 24 23
4 3 3 2 2 4 4 6 8 9 10 11 12 13 15 16 17 18 19 19 18 19 20 21 23 24 26 28 29 30 31 32 32 32 32 31 31 31 30 29 28 27 27 27 27 28 28 28 28
6 6 5 5 2 1 1 2 3 6 8 10 12 12 13 13 14 15 15 16 16 17 18 20 22 23 25 27 28 30 31 32 33 33 33 33 33 33 33 32 31 31 30 30 30 31 31 31 31
8 7 6 5 4 3 2 2 4 6 7 9 10 11 12 13 13 14 14 16 17 18 20 21 23 25 26 27 29 30 32 33 34 34 35 35 35 35 35 35 34 33 33 32 32 33 33 34 34
8 7 6 5 4 4 5 5 6 8 8 9 10 11 13 14 15 16 17 18 20 22 23 24 26 27 29 30 31 32 34 35 36 37 37 37 37 37 37 37 37 36 36 35 35 35 35 36 36
8 7 6 6 6 6 7 8 8 9 9 10 11 13 14 15 17 18 20 21 23 24 26 28 30 31 33 34 36 37 38 38 39 40 40 40 41 41 40 40 40 39 39 38 38 38 38 38 38
8 7 8 8 8 8 9 9 10 10 11 11 13 14 15 17 18 20 21 23 24 26 27 29 31 33 35 36 38 39 40 42 43 43 44 44 44 45 45 44 43 43 42 41 41 41 40 40 40
10 9 10 10 10 9 9 10 11 12 14 15 16 17 18 19 20 21 23 24 26 27 29 31 32 34 36 37 38 40 41 42 43 44 45 46 47 47 48 48 48 47 46 45 44 44 43 43 42
11 10 10 9 9 8 9 10 11 12 14 15 17 18 19 20 21 23 24 26 27 29 31 32 34 36 37 39 40 41 43 44 45 45 45 45 46 47 48 48 49 49 49 48 47 47 46 46 45
10 10 10 10 9 9 9 10 11 12 13 14 15 17 18 20 22 24 26 28 30 32 34 36 38 39 40 42 43 44 45 46 47 48 48 48 48 47 48 48 48 49 49 49 49 49 48 48 47
11 11 11 11 11 12 12 12 12 11 12 14 16 18 21 23 26 28 31 33 36 38 41 43 45 46 48 49 49 50 51 51 51 51 51 51 51 51 50 50 50 50 50 50 50 50 50 50 50
12 12 12 12 12 12 12 12 13 14 15 18 20 23 26 29 32 34 37 40 42 44 47 49 51 52 53 55 56 56 57 57 57 57 56 55 55 54 53 53 53 52 52 52 51 51 51 51 51
13 13 12 12 12 12 12 13 15 17 20 23 25 28 30 33 35 38 41 44 47 49 52 54 56 58 60 61 62 62 63 63 63 63 62 61 60 59 58 57 57 56 55 55 54 54 53 52 52
13 12 11 11 12 13 14 16 18 20 23 26 29 31 34 37 40 44 47 50 53 56 58 61 63 65 67 69 70 70 70 70 70 69 68 67 66 64 63 63 62 60 59 59 58 58 57 56 54
12 11 11 12 13 14 16 18 21 23 27 30 33 36 39 42 46 49 53 56 59 62 65 67 70 72 74 76 77 78 78 78 78 76 75 74 72 70 68 67 66 65 64 63 62 61 60 59 58
11 11 13 14 16 18 20 21 24 28 32 35 39 42 45 49 52 56 59 62 65 68 71 73 76 78 80 82 82 82 82 82 81 81 81 80 78 77 74 72 70 69 68 67 66 65 64 63 62
10 12 14 17 20 22 25 27 30 33 36 40 44 48 51 55 58 61 64 68 71 73 76 78 80 83 84 84 83 83 81 80 80 81 82 82 82 81 79 77 75 73 71 70 70 69 68 66 66
12 15 18 21 24 26 29 31 34 36 40 44 48 53 56 59 62 66 69 72 75 77 79 81 82 82 81 79 77 75 73 72 71 73 76 79 82 83 83 81 79 78 76 74 73 72 71 70 68
15 18 21 24 27 30 31 34 36 40 44 49 53 57 60 64 67 70 72 75 77 79 80 80 78 75 71 67 63 60 57 54 53 55 59 65 73 79 84 85 83 82 80 78 77 75 74 73 72
18 21 25 27 30 33 35 36 38 43 48 52 56 61 65 68 71 73 75 77 78 78 77 73 69 64 60 56 53 50 47 45 43 43 45 48 54 64 74 82 86 86 84 82 81 79 78 76 75
21 25 28 31 32 33 38 40 42 47 52 56 61 65 69 71 73 75 76 77 76 74 69 64 59 56 53 51 49 46 45 44 42 41 41 41 43 47 56 67 77 84 87 86 85 84 82 80 78
25 28 31 32 34 36 40 45 47 52 57 61 65 69 71 73 75 76 76 75 72 67 61 57 54 53 51 49 47 46 44 42 41 40 39 38 38 39 42 49 60 70 79 85 87 87 86 85 82
27 30 32 35 37 40 44 49 53 57 61 65 68 71 73 74 75 76 74 71 67 61 56 54 53 52 51 50 49 47 45 43 41 39 37 36 35 35 36 38 43 53 63 72 81 86 88 88 87
28 31 35 38 42 44 48 52 57 60 64 68 71 72 74 75 75 75 72 67 62 57 55 54 54 53 52 52 51 50 48 46 44 42 39 37 34 34 34 33 34 39 46 55 65 73 81 86 88
29 33 38 43 46 47 50 54 60 63 67 70 72 74 75 76 75 72 68 62 58 56 55 55 56 56 55 55 54 52 51 49 47 45 42 39 36 34 33 33 33 34 36 41 49 57 65 73 81
30 33 37 41 45 49 53 57 62 66 68 71 73 74 75 75 73 69 64 60 58 57 57 58 59 59 58 57 56 54 53 51 50 48 45 43 40 36 34 33 33 33 34 35 39 44 50 58 66
32 36 38 42 47 53 56 60 64 67 70 71 73 75 75 74 70 66 62 60 59 60 61 62 61 61 59 57 55 53 51 50 49 48 47 46 44 41 38 35 34 34 34 34 35 38 42 46 52
32 37 41 44 49 55 59 63 65 68 70 72 74 74 74 71 67 64 62 61 62 63 64 64 62 59 55 52 50 48 47 46 45 45 45 45 45 44 42 40 37 36 35 35 36 37 38 40 43
34 38 41 45 50 55 61 64 66 69 71 73 74 75 73 69 65 63 63 64 65 65 64 60 56 52 49 47 46 45 45 44 44 43 42 42 42 43 44 43 42 40 39 38 37 38 38 39 41
34 38 43 48 53 56 61 65 68 70 71 73 74 74 70 67 64 64 64 65 65 63 59 54 50 48 47 46 46 45 45 44 44 43 43 42 41 41 42 43 43 43 43 41 40 40 40 40 41

GEFSSGP_500_meanwind_036.txt.gz
Wind_Speed
2 1 1 0 2 2 4 4 3 3 4 6 8 10 13 16 17 18 18 18 19 21 23 25 26 28 30 32 34 35 37 38 39 39 38 37 36 36 35 34 34 33 32 32 31 30 30 30 29
5 4 3 3 4 6 5 5 3 3 4 5 6 9 11 13 14 15 16 16 17 18 20 21 23 24 26 28 30 32 34 35 37 38 39 39 39 39 39 38 38 37 36 36 35 34 33 33 33
8 8 7 8 9 8 7 6 4 4 4 4 5 7 8 10 11 13 15 16 17 18 20 21 22 23 25 27 28 30 32 33 34 36 38 39 40 40 41 41 41 40 40 39 38 37 37 36 36
10 9 10 11 10 9 8 7 6 6 6 6 6 7 9 10 12 13 15 16 18 19 21 22 24 25 26 28 30 31 33 34 35 36 38 39 40 41 42 42 42 42 42 42 41 41 40 39 39
9 11 11 10 10 9 9 8 8 8 8 8 8 9 10 11 12 13 15 16 18 19 21 23 25 26 28 29 31 33 35 36 38 39 40 41 42 43 44 44 44 44 44 44 44 44 43 42 42
9 13 11 11 10 10 10 10 9 9 9 8 9 10 10 12 13 14 15 17 19 21 23 25 27 28 30 32 34 35 37 38 40 41 42 44 45 46 47 47 48 48 48 47 47 46 46 45 44
13 13 12 12 11 11 10 10 10 9 9 9 9 10 11 13 14 16 19 21 23 25 28 30 32 34 36 37 39 40 41 43 43 44 45 46 47 48 49 49 50 51 51 51 50 49 49 48 47
13 13 13 13 12 12 11 11 10 10 10 10 11 12 14 17 19 22 24 27 30 32 35 38 40 42 44 45 47 48 49 50 50 51 51 51 51 52 52 52 53 53 53 54 54 53 53 51 50
14 15 14 14 13 13 12 12 11 11 12 13 15 17 20 22 25 28 31 34 37 40 43 46 48 50 52 54 56 57 58 59 59 59 59 58 58 57 57 56 56 56 56 56 56 56 56 56 55
15 15 14 14 13 13 12 12 13 14 15 18 20 23 25 28 31 34 37 40 43 47 50 53 56 58 60 62 63 65 66 67 67 67 67 66 66 65 63 62 61 60 59 58 58 58 58 58 57
16 15 14 13 13 12 13 14 15 17 19 22 25 28 31 34 37 40 43 46 49 52 55 58 61 63 65 67 69 70 72 72 73 73 74 73 72 72 70 69 67 66 64 62 61 60 60 59 59
15 14 13 12 12 13 15 17 19 22 24 27 30 33 36 39 41 44 47 50 53 57 59 63 65 68 70 72 74 75 76 77 77 77 77 77 76 75 75 75 73 72 70 68 66 64 63 62 61
13 12 12 12 13 15 18 20 23 26 28 31 33 36 39 41 44 48 51 54 57 60 63 66 69 72 74 76 78 79 80 80 80 80 80 80 79 79 78 78 77 77 75 73 71 69 68 66 65
11 11 11 12 14 17 20 23 26 28 31 33 35 38 41 44 48 51 55 58 61 64 67 70 73 75 77 79 81 82 83 83 83 83 82 81 81 80 80 79 78 79 78 77 76 74 72 70 69
9 10 12 14 17 20 22 23 28 30 33 35 38 41 44 47 51 54 58 61 64 68 71 74 77 79 80 82 84 84 84 83 81 79 77 75 74 73 74 74 74 76 77 79 79 78 77 75 73
10 12 14 17 20 23 25 25 28 32 35 38 41 45 48 51 54 58 61 65 68 71 75 77 79 81 83 84 84 83 80 76 72 68 65 63 62 62 62 63 65 68 72 75 78 80 79 79 78
13 16 18 21 24 25 28 29 31 34 37 41 44 47 51 55 58 61 64 68 71 75 78 80 82 84 84 82 79 74 69 65 61 59 57 55 54 53 53 53 54 57 62 68 74 78 80 81 81
18 20 23 24 27 29 30 32 33 37 41 43 46 50 54 57 62 65 68 72 75 78 80 82 84 83 80 75 70 65 61 58 56 55 54 53 51 50 49 48 48 49 53 59 67 74 79 82 84
20 23 25 27 30 31 32 34 34 39 42 46 49 53 57 61 65 68 72 75 78 80 82 83 82 79 75 69 65 61 58 57 56 55 55 54 53 51 50 48 47 47 47 50 57 66 74 80 84
23 25 27 26 28 31 34 36 36 41 45 49 53 56 60 64 68 72 75 78 80 81 82 81 78 74 71 68 65 63 61 60 59 58 57 56 55 53 52 50 49 47 46 46 48 54 64 74 81
24 27 29 31 32 32 36 38 39 44 48 52 56 60 64 69 72 75 78 79 80 81 80 78 75 72 70 67 65 63 60 59 57 55 54 54 54 53 53 52 50 49 47 45 45 47 52 61 72
25 27 29 31 35 36 37 42 42 49 53 56 59 64 68 72 75 77 79 79 80 80 78 75 73 71 68 65 61 58 55 53 51 49 48 47 48 49 50 50 51 50 49 48 46 45 47 51 59
26 28 30 32 35 38 41 46 49 52 56 59 63 67 71 74 76 77 79 79 79 78 76 74 71 67 63 60 56 53 51 49 47 46 44 43 43 43 44 46 48 49 50 49 47 45 44 46 51
27 29 31 34 39 43 46 49 51 53 58 63 67 70 72 74 76 78 79 79 78 77 75 72 67 62 58 56 54 52 51 49 48 46 44 42 41 40 40 41 43 45 47 48 48 46 44 44 45
28 31 35 39 42 44 46 48 52 56 61 64 68 70 73 75 77 79 79 78 77 76 73 67 62 58 56 55 55 54 53 52 50 48 45 43 41 40 38 38 39 41 44 46 47 46 45 44 43
29 31 34 38 41 42 46 50 54 57 61 64 68 72 75 77 77 78 78 77 76 74 69 63 59 57 57 57 56 55 54 52 51 49 46 44 42 40 39 38 37 37 39 42 45 46 46 44 43
31 33 35 38 42 46 49 51 54 58 61 65 70 73 75 76 77 77 77 76 75 70 65 60 58 58 58 58 57 55 54 52 50 48 46 43 41 39 38 37 36 36 36 38 41 44 46 45 44
31 34 37 40 44 48 50 53 56 59 63 68 71 73 75 76 77 77 76 75 72 67 62 59 59 59 59 58 57 55 54 52 50 47 44 42 40 39 37 36 35 35 35 36 38 41 44 45 45
32 35 37 40 43 48 52 55 56 60 64 69 71 73 75 76 76 76 75 74 69 64 60 60 59 59 59 58 57 55 53 51 48 46 44 42 41 40 38 37 35 34 34 34 35 38 41 44 45
32 36 39 41 43 46 50 56 58 62 66 70 73 74 75 75 75 75 74 71 66 62 60 60 60 59 59 58 57 55 52 49 47 45 44 44 43 42 41 39 37 35 33 33 34 35 38 41 44

GEFSSGP_500_meanwind_042.txt.gz
Wind_Speed
5 6 6 6 6 5 6 8 8 4 1 3 5 7 8 8 8 8 8 9 10 12 13 15 16 18 19 21 23 25 27 29 31 34 36 38 40 42 44 45 45 45 44 43 42 41 40 39 37
10 10 9 9 9 8 9 9 9 7 3 1 3 5 7 8 8 9 10 10 12 13 15 16 18 19 21 22 24 26 27 29 31 33 34 36 38 40 42 45 46 47 48 48 47 45 44 43 42
12 13 11 11 12 12 11 11 10 7 4 2 3 5 6 8 9 10 11 12 14 16 17 19 21 23 24 26 28 29 30 32 33 35 36 37 39 40 41 43 45 47 49 50 50 50 49 48 47
14 14 12 12 13 12 12 11 10 7 5 4 4 6 7 9 10 11 13 15 17 19 21 23 26 28 30 31 33 35 36 37 39 40 41 41 42 43 44 45 46 47 48 50 51 52 52 52 51
14 14 12 13 13 12 12 12 10 8 7 6 7 7 9 10 12 15 17 19 22 24 26 29 31 33 35 37 39 41 42 43 45 46 46 47 47 48 48 49 49 50 50 51 52 53 54 54 54
14 14 15 15 15 15 14 13 11 9 9 8 9 10 12 14 17 20 22 24 27 29 31 34 36 39 41 43 45 47 49 50 51 52 53 53 54 54 54 54 54 54 54 54 54 54 54 55 56
16 17 18 17 16 16 15 13 11 10 10 11 12 14 17 19 21 24 26 29 31 33 36 38 41 44 47 49 51 53 55 57 58 59 60 60 61 61 61 60 60 60 59 59 58 58 57 57 57
19 19 18 17 16 16 14 13 12 11 12 14 16 18 20 23 25 27 30 33 36 38 41 44 47 50 53 55 58 60 62 63 65 66 67 67 67 67 67 67 67 66 65 64 63 62 62 61 60
19 18 17 16 15 14 13 13 13 15 16 18 20 22 24 27 29 32 34 37 40 43 46 49 52 55 57 60 62 64 66 68 70 71 72 73 74 74 74 73 73 73 71 70 69 68 66 65 64
17 15 15 14 14 14 14 15 16 18 19 21 23 26 28 30 32 35 38 41 44 47 50 53 55 58 60 63 65 67 69 72 74 75 77 78 79 79 79 79 79 78 77 76 74 73 71 70 68
14 13 13 13 13 14 15 16 18 19 21 24 26 28 30 33 36 39 41 44 47 50 53 56 59 61 64 66 69 71 73 75 77 79 81 82 83 84 84 85 84 83 82 81 80 78 76 74 72
11 11 11 12 13 15 16 18 19 21 23 26 28 30 33 36 39 42 45 48 51 54 57 59 62 65 68 71 73 75 78 80 82 84 86 88 89 89 90 90 90 89 88 86 84 82 80 78 77
9 10 10 12 14 17 19 21 22 23 25 28 30 32 35 38 41 44 47 50 53 56 59 62 65 68 71 74 77 80 83 85 87 89 91 93 93 93 92 92 91 91 90 89 88 86 84 82 80
9 11 12 14 16 18 21 24 25 26 28 29 31 34 36 39 43 46 49 52 55 58 61 65 68 72 75 78 81 85 87 90 91 92 91 89 88 86 85 83 82 82 82 83 84 85 84 84 83
11 13 15 17 19 21 22 24 26 28 29 30 33 35 38 41 44 48 51 54 57 61 65 69 73 76 79 83 86 88 90 90 88 85 82 79 77 75 74 72 71 71 71 73 75 77 79 81 83
14 16 19 21 22 22 23 24 27 29 31 33 35 38 41 44 47 50 53 57 62 66 70 74 77 80 83 86 88 89 88 84 79 75 72 69 67 65 64 64 63 63 63 64 66 69 72 75 79
16 18 21 23 23 23 24 26 29 32 34 36 38 41 43 46 49 53 57 62 66 70 74 78 80 83 85 87 88 86 81 75 71 68 65 63 62 60 59 59 59 59 59 60 62 63 66 69 73
19 19 22 24 25 25 26 28 31 34 37 38 40 43 45 49 53 58 62 67 71 74 78 80 83 84 86 85 82 77 72 68 66 64 62 60 58 57 56 55 55 56 57 59 60 61 62 64 67
23 24 24 25 27 27 28 29 32 35 38 39 41 45 48 53 57 62 66 71 74 77 80 82 84 85 84 81 75 69 66 64 62 61 60 58 56 54 53 52 51 52 54 56 59 60 61 62 63
25 25 25 26 27 29 29 30 33 36 38 40 43 47 52 56 61 66 70 74 77 79 81 83 84 84 81 76 70 67 65 63 61 60 58 56 54 52 50 49 47 47 49 51 54 58 60 61 62
25 25 26 27 28 30 32 31 34 36 39 43 46 50 55 59 64 69 73 75 78 79 81 83 83 81 76 71 67 65 62 61 59 56 54 52 50 48 46 45 44 44 44 46 49 53 58 60 61
25 25 26 28 29 31 34 35 35 39 42 46 49 53 57 62 67 71 74 75 77 79 81 82 80 76 72 69 67 64 62 61 58 55 51 49 47 45 43 42 41 41 41 42 44 47 52 57 59
26 27 27 29 30 31 34 36 38 41 45 48 52 55 60 65 69 72 73 75 77 79 81 80 77 72 70 68 66 64 63 60 56 52 48 45 44 42 41 39 38 37 37 38 40 43 47 52 56
27 28 28 29 30 33 35 38 40 43 47 50 53 57 62 66 69 71 73 75 77 79 80 77 73 70 68 67 65 64 62 57 53 49 46 43 42 41 40 38 37 37 36 36 36 38 42 47 52
27 29 31 33 34 35 37 39 41 44 48 51 55 59 63 67 69 71 73 75 77 79 78 74 70 69 67 66 65 63 60 56 52 48 45 43 41 40 40 40 39 38 37 37 36 36 38 42 47
27 29 32 35 36 36 36 39 42 46 49 53 56 60 63 67 69 71 73 75 77 78 75 71 68 67 66 65 63 61 58 55 52 49 47 45 44 44 44 44 43 42 40 39 37 37 37 38 42
29 30 32 34 36 37 39 41 45 48 51 53 57 60 64 68 70 72 74 75 77 76 73 69 67 66 65 64 62 59 57 55 53 51 49 49 49 49 49 49 48 46 45 42 40 38 37 37 39
29 31 33 34 38 40 41 43 46 48 51 54 57 61 66 69 70 72 73 75 76 74 70 67 66 66 64 63 61 59 57 56 54 52 52 52 53 53 53 52 52 50 48 46 43 41 38 37 37
29 30 31 33 35 40 43 43 45 48 51 54 58 62 66 68 70 72 73 75 74 71 68 65 65 64 63 61 60 59 58 57 56 56 56 56 57 58 58 56 54 52 50 48 46 43 40 38 37
28 29 31 33 36 39 42 44 46 48 51 55 59 63 66 68 70 71 73 73 72 68 65 64 64 63 62 61 60 59 59 59 59 58 58 60 60 61 61 57 53 48 45 44 44 44 42 38 37

GEFSSGP_500_meanwind_048.txt.gz
Wind_Speed
4 3 3 2 2 1 1 1 2 1 2 3 5 5 6 7 8 10 11 12 13 15 16 17 18 20 21 22 24 25 26 27 28 29 30 31 32 32 33 35 36 37 39 41 43 45 46 47 47
5 5 4 4 5 5 5 5 5 5 7 7 8 9 9 10 11 12 13 15 17 18 19 21 22 24 25 27 28 30 31 32 33 35 35 36 37 37 37 38 38 39 39 41 42 44 46 48 49
8 8 8 8 8 9 9 9 10 11 11 11 11 12 12 13 14 15 16 18 19 21 23 24 26 28 30 32 33 35 37 38 39 41 42 42 43 44 44 44 44 44 44 44 44 44 46 47 49
11 11 11 11 11 12 12 13 13 13 13 13 12 12 14 15 15 17 18 20 22 24 26 28 30 32 34 36 38 40 42 43 45 46 47 48 49 50 50 50 50 50 50 50 49 48 48 48 49
12 13 13 13 14 14 15 14 13 13 12 12 12 13 14 16 17 19 21 23 25 28 30 32 34 37 39 41 43 45 46 48 49 51 52 53 54 55 56 56 56 56 56 55 55 55 54 53 52
16 15 15 15 15 14 14 13 12 11 11 11 12 14 16 18 20 22 25 27 29 32 34 36 39 41 43 45 47 49 51 53 55 56 57 59 60 61 62 62 62 62 62 61 61 60 59 58 57
17 16 16 15 14 13 12 11 11 11 11 12 14 16 19 21 24 26 28 31 33 35 38 40 43 45 48 50 52 54 56 58 60 62 63 65 66 67 68 69 69 69 68 67 67 66 65 64 63
16 15 14 13 12 11 11 11 12 13 13 15 17 20 22 25 27 29 32 34 36 39 41 44 47 49 52 55 57 59 62 63 65 67 69 71 72 73 74 75 75 75 75 74 73 72 71 69 68
13 12 11 10 10 10 11 12 14 16 17 19 21 23 26 28 30 32 34 37 39 42 45 48 51 53 56 59 61 64 66 68 70 72 74 76 77 79 80 81 81 81 81 81 80 79 77 75 74
10 9 9 9 10 11 13 15 17 19 20 22 24 27 29 31 33 35 37 40 42 45 48 51 54 56 59 62 64 67 70 72 75 77 79 80 82 83 84 85 86 87 87 87 87 86 85 82 80
8 8 9 10 12 14 16 18 20 22 24 25 28 30 32 34 35 37 40 42 45 48 51 54 56 59 62 64 67 70 73 75 78 80 82 84 86 87 89 90 91 92 93 93 93 92 92 90 88
7 9 11 13 16 18 20 22 24 26 27 29 30 32 34 36 38 40 42 45 47 50 53 56 59 62 65 68 70 73 76 78 80 83 85 87 89 91 92 93 93 93 93 94 95 95 95 95 95
9 11 14 17 19 21 24 26 28 28 29 31 32 34 36 38 40 42 44 46 49 52 55 58 61 64 68 71 74 77 79 82 84 87 90 91 91 91 90 88 87 86 85 86 87 88 91 94 96
13 15 18 20 22 24 26 27 28 29 30 32 33 35 38 40 41 43 46 48 51 54 58 61 65 68 72 75 78 80 83 86 89 90 90 89 87 85 82 79 78 76 76 76 77 78 80 83 87
17 19 21 23 25 26 27 27 28 29 30 32 34 36 38 40 42 45 48 50 54 57 61 65 69 72 76 79 82 84 87 89 90 88 86 84 81 78 76 74 72 70 69 69 70 70 72 74 77
21 23 24 25 26 27 27 26 28 29 30 32 34 36 39 41 44 46 49 52 56 60 65 69 72 76 79 82 85 88 89 89 86 83 80 78 76 74 72 70 68 66 65 64 64 64 66 68 70
23 24 25 26 26 26 26 26 28 29 30 32 35 37 40 42 45 48 51 55 59 63 68 72 75 78 81 84 87 88 87 84 81 79 77 75 73 70 67 65 62 60 58 58 58 58 59 61 64
23 24 25 25 25 25 25 27 28 30 31 33 35 38 41 43 46 50 53 57 62 67 71 74 77 80 82 85 86 85 82 79 78 76 74 72 69 65 61 58 55 53 52 51 50 51 53 55 58
23 23 23 23 24 24 25 27 29 30 31 33 36 39 42 45 48 52 56 60 65 69 73 76 78 80 83 85 84 82 78 76 75 74 72 69 65 61 58 54 51 49 47 46 46 45 46 49 52
22 22 22 23 24 25 26 27 29 30 32 35 38 41 44 47 50 54 58 63 68 71 74 77 79 81 84 85 83 79 76 75 73 72 69 65 62 59 55 52 49 47 45 44 43 43 42 43 46
21 22 23 24 25 26 27 26 29 31 34 37 40 43 46 49 52 56 61 65 69 72 75 77 80 82 84 83 79 76 74 72 70 67 64 62 60 57 55 53 50 48 46 44 43 42 41 40 42
22 23 24 25 26 27 29 28 30 32 36 39 41 44 47 51 54 58 63 67 70 73 75 78 80 82 83 80 77 75 73 70 69 66 63 61 59 58 56 54 53 51 49 48 47 45 43 41 40
22 23 24 25 26 26 28 30 31 34 37 40 43 46 49 52 56 60 64 67 70 73 76 78 81 82 81 78 75 73 71 70 68 65 63 61 58 58 57 56 55 54 53 53 52 50 48 45 42
23 24 24 25 26 26 28 31 33 36 39 42 44 47 50 53 57 61 65 68 71 73 76 79 80 80 78 76 74 72 70 68 66 64 63 60 58 58 58 58 57 57 57 56 54 52 50 48 45
25 26 27 27 27 28 30 32 35 37 40 43 46 48 51 54 58 62 65 68 71 74 76 78 79 78 76 74 72 70 69 68 66 65 64 62 60 60 60 60 60 59 58 56 55 54 52 50 48
25 27 29 30 30 29 30 32 34 38 41 44 46 48 51 55 58 62 65 68 71 73 75 77 77 76 74 72 70 69 68 66 66 66 65 64 63 64 64 63 61 58 55 53 51 51 51 50 49
26 27 29 31 32 32 32 34 36 40 42 44 47 49 52 55 59 62 66 68 71 73 74 76 76 75 72 70 69 67 66 66 65 66 66 66 66 67 66 64 60 55 50 45 42 42 44 45 46
27 29 31 33 36 37 35 36 39 41 43 45 47 49 52 56 59 63 66 68 70 72 74 75 75 73 71 69 68 66 65 65 65 66 67 67 68 68 66 63 58 51 45 40 34 31 32 36 40
28 30 32 33 35 38 39 37 40 41 43 45 47 49 53 56 60 63 66 68 70 71 73 74 73 71 69 67 66 65 64 65 65 66 67 68 69 69 66 62 55 48 41 37 31 23 20 25 32
30 32 34 35 36 37 39 39 42 43 44 46 47 50 53 57 60 63 65 67 69 71 72 72 71 69 67 66 65 64 64 64 64 65 67 69 70 68 66 61 53 46 41 37 31 22 14 14 22

GEFSSGP_500_meanwind_054.txt.gz
Wind_Speed
8 9 9 8 8 7 7 7 7 7 7 6 6 6 6 6 6 6 7 9 10 12 14 16 17 19 21 23 25 26 28 30 31 33 34 35 36 37 38 39 40 40 41 41 41 42 42 43 45
13 12 12 11 11 10 10 10 10 9 9 8 7 6 6 6 7 8 9 11 13 15 17 19 21 23 25 27 29 31 32 34 35 37 38 40 41 42 43 44 44 45 46 46 46 46 46 46 46
15 15 14 13 13 12 12 11 11 9 8 6 6 5 6 8 10 12 14 16 18 20 22 24 25 27 29 31 33 34 36 38 40 41 42 44 45 46 47 48 49 49 50 51 51 51 52 51 51
17 17 16 15 14 13 12 11 9 7 6 6 7 8 9 12 14 16 18 20 22 24 25 27 29 31 32 34 36 38 40 42 44 46 47 48 50 51 52 53 53 54 55 55 55 56 56 56 56
18 18 17 15 14 12 10 8 7 6 7 8 10 12 13 16 18 20 22 24 25 27 29 30 32 34 36 37 40 42 44 46 48 50 52 53 55 56 57 58 59 60 60 60 60 60 60 60 60
18 16 15 13 11 9 8 7 7 9 10 12 14 16 17 19 21 23 25 27 28 30 32 33 35 37 39 41 43 46 48 50 53 55 57 59 61 62 64 65 66 67 67 67 67 66 66 65 65
15 14 12 10 8 8 8 8 10 12 14 16 18 19 21 22 24 26 27 29 30 32 34 36 38 41 43 45 48 50 52 55 57 60 62 64 67 69 71 72 73 74 75 75 74 74 73 72 71
12 10 8 7 7 8 9 11 13 15 17 19 20 21 23 24 26 27 29 30 32 34 36 39 41 43 46 48 51 54 56 59 62 64 67 70 72 75 77 79 80 81 82 82 81 81 80 79 78
8 7 7 7 9 10 12 14 16 18 19 21 22 23 24 26 27 28 30 32 34 36 39 41 43 46 48 51 54 57 60 63 66 69 72 75 77 80 82 84 85 86 87 87 87 87 86 85 84
6 6 8 9 11 13 15 17 19 20 22 22 23 24 25 26 28 30 31 34 36 38 41 43 46 48 51 53 57 60 64 67 71 74 77 80 83 85 86 87 89 90 91 92 92 92 92 91 90
7 8 11 13 15 17 18 20 21 22 23 24 24 25 26 27 29 31 33 35 38 40 43 45 48 50 53 57 60 64 68 71 75 79 82 85 87 88 90 91 93 94 94 94 95 95 95 95 95
9 12 14 16 18 20 21 23 23 24 24 25 25 26 27 29 30 32 34 37 40 42 45 47 50 53 56 60 64 68 72 76 80 83 86 89 91 92 93 94 94 94 92 91 91 91 91 93 94
13 16 18 20 21 22 23 24 24 24 25 26 26 27 28 30 31 34 36 39 42 44 46 49 52 56 59 64 68 72 76 80 84 87 90 92 93 94 94 91 89 87 85 84 83 83 83 84 86
17 19 20 21 22 23 23 24 24 25 26 26 27 28 29 31 33 36 38 41 43 45 48 51 55 58 63 67 71 75 79 83 87 89 91 92 92 90 87 83 81 78 77 76 76 76 76 77 78
19 20 21 21 22 22 23 23 24 26 27 27 28 29 30 32 35 37 40 42 44 47 50 53 57 61 66 70 75 78 82 85 88 90 90 89 86 82 79 76 74 73 71 71 70 69 69 70 71
20 20 21 21 21 22 23 23 25 26 27 28 28 30 32 34 36 38 41 43 45 48 52 56 60 65 69 73 77 81 84 87 89 89 87 84 79 75 73 72 70 69 68 66 65 64 64 64 64
19 20 20 21 21 22 23 24 25 26 27 28 29 31 33 35 37 39 41 43 46 50 54 58 63 67 71 75 80 83 85 88 88 86 82 78 74 71 70 69 68 67 65 64 63 62 61 60 60
18 19 19 21 21 22 23 25 25 26 27 27 29 31 33 35 37 40 42 44 48 52 56 61 65 69 73 77 81 83 86 87 85 82 77 73 71 69 68 67 66 66 64 63 62 61 60 59 58
17 18 19 20 21 21 22 24 25 25 26 27 29 31 34 36 38 40 43 46 50 54 59 63 67 71 74 78 81 83 85 85 82 78 73 70 69 68 67 66 66 65 64 63 62 61 60 59 58
16 17 18 19 20 21 21 22 24 24 25 27 29 32 34 37 39 42 45 48 52 56 60 64 68 72 75 78 81 83 85 83 78 74 70 69 68 67 66 66 65 64 64 64 64 63 61 59 59
15 17 18 19 19 20 21 21 23 24 25 27 30 32 35 38 40 43 46 50 54 58 62 66 69 72 76 79 81 83 83 80 75 71 68 67 67 66 66 66 65 66 66 65 63 61 59 57 57
14 16 18 19 20 21 22 22 24 25 26 28 31 33 36 39 42 45 48 51 56 60 63 67 70 73 76 78 80 81 80 76 72 68 67 67 66 66 66 66 66 67 67 65 62 59 55 52 51
14 16 18 19 20 22 23 23 25 26 28 30 32 35 38 40 43 46 49 53 57 60 64 67 70 73 76 78 80 80 78 74 70 67 66 66 66 65 66 66 67 68 67 63 58 54 50 47 45
14 16 18 19 21 22 25 25 27 28 29 32 34 36 39 42 45 47 50 54 58 61 65 68 71 73 76 77 79 78 76 72 68 66 65 65 65 65 65 66 67 68 65 59 54 50 45 41 39
14 17 19 22 23 24 26 27 28 30 31 33 36 38 41 43 45 48 51 55 58 62 65 68 71 73 75 76 77 76 73 70 66 65 65 65 65 65 65 66 67 66 62 56 51 46 41 35 31
15 18 21 24 25 25 27 29 30 32 33 36 38 40 42 44 47 49 52 56 59 62 65 68 71 73 74 75 76 75 72 68 65 64 64 65 65 64 65 66 67 65 60 54 48 43 38 32 26
15 18 21 23 25 27 30 32 34 36 37 38 40 42 43 46 48 50 53 56 59 63 65 68 71 72 74 75 75 73 70 67 64 64 64 65 65 64 65 66 66 64 58 52 46 41 36 29 22
15 18 22 26 29 31 32 35 37 39 40 41 42 44 45 47 49 51 54 57 60 63 65 68 70 72 73 74 73 72 69 66 64 63 63 64 64 64 65 65 65 63 56 50 45 39 34 27 19
15 18 22 25 28 32 34 36 38 40 42 44 45 47 48 49 51 53 55 58 60 63 65 68 70 71 72 73 72 70 68 65 63 62 63 63 63 64 64 65 65 62 56 49 44 38 32 26 18
15 18 21 24 27 30 32 36 39 41 44 46 48 49 51 52 53 55 56 58 61 63 65 68 70 71 72 72 71 69 67 64 62 62 62 62 63 63 63 64 64 62 57 50 43 37 31 24 17

GEFSSGP_500_meanwind_060.txt.gz
Wind_Speed
10 11 11 11 10 10 9 7 7 7 7 6 6 6 6 7 8 8 10 11 13 14 16 17 19 20 22 23 25 27 28 30 31 33 34 35 37 38 39 41 42 43 44 45 45 46 46 46 46
13 13 13 12 13 12 9 8 8 8 7 6 5 6 7 8 10 12 13 15 16 18 19 21 22 24 25 26 28 29 31 33 34 36 37 39 40 42 43 44 45 46 47 48 49 50 50 51 51
15 15 14 13 14 13 10 8 7 6 6 6 6 8 10 11 13 15 16 18 19 21 22 23 24 26 27 29 30 32 33 35 37 38 40 41 43 44 46 47 48 49 51 52 53 53 54 54 55
16 15 14 13 12 11 9 7 6 6 6 7 8 11 12 14 16 18 19 20 21 23 24 25 26 28 29 31 32 34 35 37 38 40 42 44 46 47 49 51 53 54 55 56 57 58 59 59 59
15 14 14 12 10 8 6 6 6 7 8 9 11 13 15 17 18 19 21 22 23 24 25 27 28 29 31 33 34 36 38 39 41 43 45 47 50 52 54 57 59 61 62 64 65 65 66 66 66
13 10 11 10 7 6 6 6 8 9 11 13 14 16 18 19 20 22 23 24 24 26 27 28 30 31 33 35 36 38 40 42 44 46 49 52 55 58 61 64 66 68 71 72 73 74 74 74 74
10 8 8 7 5 6 7 9 11 13 14 16 17 18 20 21 22 23 23 24 26 27 28 30 31 33 34 36 38 40 42 45 47 50 54 57 61 64 68 71 74 76 79 81 82 83 84 83 82
7 6 6 6 7 9 11 13 15 16 17 19 19 19 21 22 22 23 24 25 27 28 30 31 33 34 36 38 40 42 45 48 51 55 59 63 66 70 73 77 80 84 87 89 91 93 93 92 92
5 6 8 9 11 12 14 16 17 19 19 20 20 20 21 22 23 24 25 26 28 29 31 32 34 36 38 40 43 45 49 52 56 60 64 67 71 75 79 83 86 90 93 96 98 100 101 100 100
7 9 11 13 15 16 18 19 19 20 20 20 21 21 21 22 23 24 26 27 29 30 32 34 36 38 40 43 46 49 53 57 60 64 68 72 75 79 83 87 91 95 98 101 103 105 105 105 105
11 12 15 16 18 18 19 19 19 19 19 19 20 21 22 23 24 26 27 29 30 32 34 36 38 40 43 46 49 53 56 60 64 67 71 75 79 83 87 91 95 99 102 104 104 104 103 102 101
14 15 17 18 19 19 19 19 18 19 18 19 19 21 22 24 25 27 29 30 32 34 36 38 40 43 46 49 52 56 59 63 67 70 74 78 82 86 90 94 99 101 101 100 98 95 92 90 88
16 17 18 18 18 18 17 17 18 18 18 19 19 21 22 24 26 28 30 32 34 36 38 40 43 45 48 51 55 58 61 65 69 73 77 80 84 88 93 97 99 98 94 89 84 80 76 74 73
17 17 17 17 17 16 16 16 17 17 18 18 20 21 23 26 28 30 32 34 36 38 40 43 45 48 51 54 57 61 64 68 71 75 79 83 87 91 95 96 94 89 83 78 73 69 67 67 67
16 16 15 15 16 16 15 16 17 17 18 19 20 23 25 27 29 32 34 36 38 40 42 45 47 50 53 56 59 62 66 70 73 77 81 85 89 92 95 92 87 80 75 71 68 67 67 67 66
14 14 13 14 15 15 16 15 16 17 18 20 22 25 27 29 31 34 36 38 40 42 44 46 49 52 55 57 61 64 68 71 75 79 83 87 90 93 91 85 79 73 70 69 68 68 67 67 68
12 13 12 12 15 16 17 17 16 19 20 22 24 27 29 31 33 35 37 40 42 44 45 47 50 53 56 59 62 65 69 73 77 81 84 87 90 90 85 79 73 70 69 69 68 68 68 69 69
12 13 14 14 15 16 17 18 18 20 22 24 26 28 30 32 34 37 39 41 43 45 46 48 51 54 56 59 63 66 70 74 78 82 85 88 89 86 80 74 70 69 68 68 68 68 69 70 71
11 12 13 14 15 16 17 19 19 21 23 25 27 29 31 33 35 37 40 42 43 45 47 49 52 54 57 60 63 67 71 75 79 82 85 87 86 82 76 71 69 68 67 67 67 68 69 69 69
9 11 12 12 14 16 17 19 20 21 24 26 28 30 32 34 36 38 40 42 44 46 48 50 52 55 58 61 64 68 72 76 79 82 85 86 83 78 72 69 68 67 67 67 67 68 69 67 65
8 9 11 12 13 15 17 17 19 21 23 26 28 30 32 35 37 38 41 43 45 47 49 51 53 56 59 62 65 69 73 76 79 82 84 83 80 75 70 68 67 67 66 67 67 69 68 65 60
7 8 10 11 13 14 16 17 18 21 24 26 28 31 33 35 38 40 42 44 46 48 50 52 54 57 60 63 66 69 73 76 79 82 82 81 77 72 69 68 67 66 66 66 67 68 66 62 57
7 7 9 11 12 14 16 18 19 22 24 26 29 31 34 37 40 42 44 46 48 50 52 54 56 59 61 64 67 70 74 76 79 81 81 79 74 70 68 67 67 66 65 66 67 66 63 58 54
7 7 8 10 11 13 16 19 21 23 25 27 30 33 36 38 41 44 46 49 51 53 54 56 58 60 63 65 68 71 74 76 79 80 79 77 72 69 67 66 66 66 65 66 66 65 60 55 50
8 8 9 10 12 14 16 18 20 23 26 29 31 34 37 39 42 45 48 51 53 55 57 59 61 62 64 66 69 72 74 76 78 79 78 75 71 67 66 66 66 65 64 65 65 63 58 52 48
10 10 11 12 13 14 16 17 20 22 26 29 32 35 38 41 44 47 50 52 55 57 59 61 63 64 66 68 70 72 74 76 78 78 77 74 70 67 66 65 65 64 64 64 64 61 56 51 46
12 12 12 13 14 15 17 20 21 24 27 29 33 36 39 42 45 48 51 54 57 59 62 63 65 67 68 69 71 73 75 76 77 77 76 73 69 67 65 65 64 64 63 62 63 60 55 50 44
15 14 15 15 16 18 19 22 24 27 30 32 34 36 39 42 46 49 52 55 58 61 63 65 67 68 69 70 72 73 75 76 76 76 74 71 68 66 65 64 64 63 62 61 61 58 54 49 43
17 17 17 18 19 21 22 23 26 28 31 34 36 39 41 44 47 50 53 56 59 62 64 66 68 70 71 71 72 74 75 75 76 75 73 71 68 66 64 64 63 63 61 60 59 57 53 48 43
20 19 20 20 21 22 24 25 28 30 32 34 37 40 42 45 48 51 54 57 60 63 65 67 69 71 72 72 73 74 75 75 75 75 73 70 67 65 64 63 63 62 61 59 58 56 52 48 43

GEFSSGP_500_meanwind_066.txt.gz
Wind_Speed
7 8 8 8 9 9 9 10 10 9 8 8 7 6 6 6 6 7 9 10 12 13 14 15 16 17 18 19 20 20 22 23 24 25 26 27 28 29 31 32 33 34 35 37 38 39 40 41 41
10 11 11 11 11 10 10 10 9 8 6 6 6 6 7 8 9 10 12 13 14 15 16 17 17 18 19 20 20 22 23 24 25 26 28 29 30 31 33 34 35 37 38 40 41 42 44 45 46
13 13 13 12 11 10 9 8 7 6 5 6 7 8 9 10 11 12 14 14 15 16 17 17 18 18 19 20 22 23 24 25 26 28 29 31 32 34 35 37 39 41 42 44 46 47 48 50 51
14 13 12 10 9 8 7 6 6 5 6 8 9 10 12 13 13 14 15 16 16 17 17 18 19 20 21 22 23 24 26 27 28 30 31 33 35 36 39 41 43 45 47 49 51 52 54 55 57
13 11 10 7 7 7 6 6 6 8 9 10 11 12 13 14 14 15 16 16 17 17 18 19 20 21 22 24 25 26 27 29 30 32 34 35 37 40 42 45 47 50 52 54 56 58 61 62 64
10 9 7 6 6 6 6 8 9 10 11 13 14 14 14 14 15 15 16 16 17 18 19 20 22 23 24 25 26 28 29 31 33 35 36 38 41 43 46 49 51 54 57 60 63 66 68 70 72
8 7 5 5 7 8 9 10 12 12 12 14 15 15 14 14 15 15 16 17 18 19 20 22 23 24 25 27 28 30 31 33 35 37 39 41 44 47 49 53 56 59 62 65 69 73 76 78 81
6 5 5 7 9 10 10 11 12 13 13 13 14 15 15 15 15 16 17 18 19 20 22 23 24 25 27 28 30 32 34 36 38 40 42 44 47 50 53 57 60 63 67 70 74 78 81 85 89
6 6 8 10 11 12 12 12 12 12 12 12 13 14 15 15 15 16 18 19 20 21 23 24 25 27 29 30 32 34 36 38 40 43 45 47 50 53 56 60 63 66 70 74 79 83 87 92 95
7 8 9 11 12 12 12 11 11 11 11 11 12 13 14 14 15 16 18 20 21 22 24 25 27 28 30 32 34 36 38 40 43 45 47 50 53 56 59 62 65 69 73 77 82 87 91 96 100
9 9 10 10 11 11 11 10 10 10 11 11 11 12 13 14 15 17 18 20 22 24 25 27 29 31 33 34 36 38 41 43 45 47 49 52 55 58 61 65 68 71 75 79 84 90 94 98 102
11 11 11 10 10 10 10 10 10 11 11 12 12 12 13 14 15 17 19 21 23 24 26 28 30 32 34 36 38 40 42 44 46 48 51 53 56 59 63 66 69 73 77 81 87 91 95 98 98
12 11 10 10 9 9 9 9 9 10 11 12 13 14 14 15 16 18 19 21 24 26 27 29 31 33 35 37 39 41 43 45 47 49 52 54 57 60 63 67 70 74 79 83 88 91 94 93 89
11 10 10 9 8 8 9 9 9 9 10 11 12 13 14 16 17 18 20 22 25 27 29 30 32 34 36 38 39 41 44 46 48 50 52 55 57 61 64 67 71 76 80 85 88 91 90 86 81
10 9 8 8 7 7 8 9 8 9 9 10 11 13 14 16 18 19 21 23 25 27 29 31 32 34 36 37 39 42 44 46 48 51 53 55 58 62 65 69 73 77 82 85 88 87 84 80 76
9 8 8 7 7 7 8 9 8 9 9 10 11 13 14 16 18 20 22 23 25 27 29 31 33 34 36 38 40 42 44 47 49 51 53 56 59 62 66 70 74 79 83 85 86 83 79 76 73
8 8 8 8 7 7 7 8 9 9 9 10 12 13 14 16 18 20 22 24 26 28 29 31 33 35 37 39 41 43 45 48 50 52 55 57 60 63 67 71 76 80 83 84 83 80 76 73 71
9 8 8 8 7 7 6 7 8 8 9 10 12 13 14 16 18 20 22 24 26 28 30 32 34 36 38 40 42 44 47 49 51 54 56 58 61 65 69 73 77 81 82 82 80 76 73 72 71
10 9 9 8 7 7 7 7 8 8 9 10 11 13 15 16 18 20 22 24 27 29 31 33 35 38 40 42 44 46 49 51 54 56 58 60 63 67 70 74 78 81 81 80 77 74 71 70 70
13 12 11 10 9 9 9 9 9 10 10 11 12 13 15 17 19 21 23 26 28 31 33 35 38 40 42 44 47 49 51 54 56 58 60 62 65 68 72 75 79 80 80 78 75 73 71 69 69
15 14 13 12 12 11 11 11 12 12 12 13 14 15 16 18 20 22 24 27 29 32 34 37 39 42 45 47 49 51 53 56 58 60 62 64 67 70 73 76 79 79 78 76 73 71 70 68 66
16 16 15 14 14 14 14 14 14 14 14 15 16 17 18 20 21 24 26 28 31 33 36 38 41 44 47 49 52 54 56 58 60 63 65 67 69 71 74 76 78 78 76 74 72 70 70 68 66
18 18 17 17 17 17 16 16 16 16 17 18 19 20 21 22 24 26 28 30 32 35 38 40 43 46 49 51 54 56 58 60 62 65 66 68 70 72 74 76 77 76 74 72 70 69 68 67 66
20 20 20 20 20 19 19 19 18 19 19 20 22 23 24 25 27 28 30 33 35 37 40 42 44 47 50 53 55 58 60 62 64 66 68 69 71 73 75 76 76 75 73 71 69 68 67 65 65
21 22 23 23 23 22 22 23 21 22 22 23 24 25 27 28 30 31 33 35 37 39 42 44 46 48 51 54 57 59 62 64 66 68 69 71 72 73 75 75 75 73 71 69 68 66 65 64 63
23 24 25 26 26 25 25 25 24 24 24 25 26 27 29 30 32 33 35 37 39 42 44 46 48 50 52 55 58 60 63 65 67 69 71 72 73 74 75 74 73 72 70 68 66 65 64 63 62
25 25 27 29 29 29 29 28 26 26 27 28 29 30 31 32 34 35 37 39 41 44 46 48 49 51 53 55 58 61 64 66 68 70 72 72 73 74 74 74 72 71 68 67 65 64 63 62 60
27 27 29 30 32 33 32 30 28 28 29 31 31 32 34 35 36 38 40 42 44 46 48 49 51 52 54 56 59 62 65 67 69 71 72 73 73 74 74 73 71 69 67 65 64 62 62 60 59
28 29 31 33 35 37 37 32 30 31 33 34 34 35 36 38 39 40 42 44 46 48 49 51 52 54 55 57 59 62 65 67 70 72 73 73 73 74 73 72 70 68 66 64 63 61 60 59 58
29 30 32 35 37 39 41 35 32 34 35 37 38 38 39 40 41 43 44 46 48 49 51 53 54 55 56 58 60 62 65 67 70 72 73 73 73 73 73 72 70 68 65 63 62 60 59 58 57

GEFSSGP_500_meanwind_072.txt.gz
Wind_Speed
8 8 7 6 6 6 6 6 5 4 3 3 3 3 4 5 6 7 8 9 10 12 13 14 15 16 16 17 17 18 19 19 20 20 21 21 22 23 24 24 25 25 26 26 27 28 29 30 31
11 10 9 8 8 7 7 6 4 3 2 2 3 5 6 7 8 9 10 12 13 13 14 15 16 17 17 18 19 20 20 21 22 22 23 23 24 25 26 27 27 28 28 29 30 31 32 33 34
11 10 9 8 7 6 5 4 3 2 3 4 6 7 9 10 10 12 13 13 14 14 15 16 17 17 18 19 20 21 21 22 23 24 24 25 26 27 28 29 29 30 31 32 33 34 35 36 37
10 9 7 6 5 5 4 4 5 5 6 7 9 10 11 12 12 13 14 14 14 15 16 17 17 18 19 20 21 22 23 23 24 26 26 27 28 29 30 31 32 33 34 35 36 37 38 39 41
8 7 5 5 4 4 5 7 8 9 9 10 11 12 12 13 13 13 14 14 15 15 16 17 18 19 20 21 22 22 24 25 26 27 28 29 30 31 32 33 34 36 37 38 39 40 41 43 44
5 5 4 5 5 6 8 9 10 11 12 12 12 12 13 13 13 13 14 14 15 16 17 18 19 20 21 21 22 23 24 26 27 28 29 30 32 33 34 35 36 38 39 41 42 43 45 46 48
3 4 5 6 8 9 10 11 12 13 13 13 12 12 13 13 13 13 14 15 15 17 18 19 19 20 21 22 23 24 25 26 27 28 30 31 32 34 35 37 38 40 41 43 44 46 48 50 52
4 6 7 9 10 11 12 13 13 13 13 12 12 12 13 13 13 14 14 15 16 17 18 19 20 21 22 23 23 24 25 26 27 29 30 31 33 35 36 38 40 41 43 45 47 49 51 53 55
6 8 10 11 12 13 14 14 13 14 13 12 12 12 12 13 14 14 15 16 16 17 18 19 20 21 22 23 24 25 26 27 28 29 30 32 34 35 37 39 41 43 45 46 48 51 53 55 57
8 10 12 13 14 14 14 14 13 13 13 12 12 12 12 13 14 15 15 16 17 18 19 20 20 21 22 23 24 25 26 28 29 30 32 33 35 37 38 40 42 44 46 48 50 52 54 56 59
10 12 13 14 14 14 13 13 13 13 12 12 12 12 12 13 14 15 16 17 17 18 19 20 21 22 23 24 25 26 27 29 30 32 33 35 36 38 40 41 43 45 47 49 51 53 55 58 60
12 13 14 14 14 13 12 12 12 12 12 12 12 12 13 14 14 15 16 17 17 18 19 20 21 22 24 25 26 27 29 30 31 33 35 36 38 39 41 42 44 46 48 50 52 54 56 59 61
13 14 14 14 14 13 12 11 11 11 11 11 11 12 13 14 15 16 16 17 18 18 19 21 22 23 24 25 27 28 30 31 33 34 36 37 39 41 42 43 45 47 49 51 53 55 57 60 63
15 15 15 14 14 13 12 11 11 11 11 11 11 12 13 14 14 15 16 17 18 19 20 21 23 24 25 27 28 30 31 33 34 36 38 39 41 42 43 45 47 49 50 52 54 57 59 61 64
16 16 16 15 15 14 13 12 12 12 12 12 12 12 13 14 15 15 16 17 18 19 21 22 23 25 26 28 30 31 33 35 36 38 40 41 42 44 45 47 49 51 52 54 56 58 60 63 66
17 17 16 16 16 15 14 13 13 13 13 13 13 13 14 14 15 16 17 18 19 20 21 22 24 25 27 28 30 33 34 36 38 40 41 43 44 45 47 49 51 52 54 56 58 60 62 65 67
18 18 18 18 17 17 16 15 16 14 15 15 15 15 15 16 16 17 18 19 20 21 22 23 24 26 28 29 31 34 36 38 39 41 43 44 46 47 48 50 52 54 56 58 60 62 64 66 69
20 20 19 20 19 19 18 17 18 17 17 16 16 16 17 17 18 18 19 20 21 22 23 24 25 27 29 31 33 35 37 39 41 43 44 46 47 49 50 52 54 56 58 60 62 64 67 69 71
22 22 21 22 22 22 20 19 20 20 18 18 18 18 19 19 19 20 21 22 23 24 25 26 27 29 30 32 34 37 39 41 43 44 46 48 49 51 52 54 56 58 60 62 64 66 68 71 74
24 23 23 23 25 25 23 22 22 22 21 20 20 20 20 21 21 22 23 24 25 27 28 29 30 31 32 34 37 39 41 43 44 46 48 50 51 53 54 56 57 59 62 64 66 68 70 73 76
25 26 25 26 26 27 27 23 24 24 23 23 23 23 23 23 24 24 25 27 28 29 30 31 32 34 35 37 39 41 43 45 47 49 50 52 53 55 56 58 60 61 63 66 68 70 72 75 78
26 28 28 28 29 28 29 28 22 25 24 24 24 25 25 26 26 27 28 29 30 31 32 34 35 36 38 40 42 44 46 48 49 51 52 54 55 56 58 60 61 63 65 68 70 72 74 76 78
29 29 30 30 30 30 29 31 23 25 25 26 26 27 27 28 29 30 31 32 33 34 35 37 38 39 41 43 45 46 48 50 52 53 54 56 57 58 60 61 63 65 67 69 72 74 76 77 78
30 31 32 32 31 31 29 31 27 26 26 27 28 28 29 30 31 32 34 35 36 38 39 40 41 42 44 46 47 49 51 53 54 55 56 57 58 60 61 63 64 66 68 70 73 74 76 78 78
31 32 34 34 32 31 31 31 28 28 28 28 29 30 31 32 34 35 37 38 39 41 42 43 44 45 47 49 50 52 53 55 56 57 58 59 60 62 63 64 66 67 69 71 73 75 76 78 78
31 32 34 37 36 34 33 32 28 29 30 30 31 32 33 35 37 38 40 41 43 44 45 46 48 49 50 51 53 55 56 57 58 59 59 61 62 63 64 65 67 69 70 72 74 75 76 77 76
32 32 34 37 39 38 35 33 28 28 30 31 33 34 36 38 40 41 43 45 46 47 48 50 51 52 53 54 56 57 58 59 60 60 61 63 64 65 65 67 68 70 71 73 74 75 75 75 75
33 34 35 37 41 42 39 34 31 29 30 32 34 37 39 41 44 45 47 48 49 50 51 52 53 54 56 56 58 59 60 61 61 62 63 64 65 66 67 68 69 71 72 73 74 74 75 74 73
32 33 35 38 40 43 44 37 32 33 34 35 37 40 43 45 46 48 49 51 52 53 53 54 55 57 57 58 59 60 61 62 63 63 65 66 66 67 68 69 70 71 72 73 74 74 73 72 71
34 34 36 38 40 42 46 41 33 34 36 38 41 43 46 48 49 50 51 52 53 54 55 56 57 58 59 60 61 61 62 63 64 65 66 67 67 68 69 70 71 71 71 72 73 73 72 71 70

GEFSSGP_500_meanwind_078.txt.gz
Wind_Speed
12 12 11 10 9 8 7 6 6 5 4 3 2 2 2 3 4 5 6 7 8 9 9 10 10 11 11 12 12 13 13 14 14 15 15 16 17 17 18 18 19 20 20 21 21 22 22 23 23
13 12 11 10 9 8 6 5 4 4 3 2 3 4 4 6 7 8 9 9 10 10 11 11 11 11 12 12 13 14 14 14 15 16 17 17 18 18 19 20 21 21 22 23 23 24 24 25 26
12 10 10 8 7 6 4 3 3 3 4 5 6 7 7 8 9 9 10 10 11 11 11 11 12 12 12 13 14 14 14 15 16 17 17 18 19 19 20 21 22 23 23 24 25 25 26 27 28
9 9 7 6 4 3 2 3 3 5 6 7 8 9 9 9 10 10 11 11 11 11 12 12 12 13 13 13 14 14 15 16 16 17 18 19 20 20 21 22 23 23 24 25 26 27 28 29 30
7 6 5 4 3 3 4 5 6 7 8 8 9 9 9 10 10 10 11 11 11 11 12 12 12 13 13 14 14 15 16 16 17 18 18 19 20 21 22 22 23 24 25 26 27 28 29 30 31
5 4 3 3 4 5 6 7 8 8 9 9 9 9 9 9 9 10 10 11 11 11 12 12 12 13 14 14 15 15 16 17 18 18 19 19 20 21 22 23 24 24 25 26 28 29 30 31 32
3 3 4 5 6 7 8 9 9 9 9 9 9 9 9 8 9 9 10 10 11 11 11 12 12 13 14 14 15 16 16 17 18 19 19 20 21 21 22 23 24 25 26 27 28 29 30 31 32
3 5 6 7 8 9 9 9 9 9 9 9 8 8 8 8 8 9 9 10 10 10 11 12 12 13 14 14 15 16 17 17 18 19 20 21 22 23 24 25 25 26 27 29 29 30 31 33 34
5 6 7 9 9 10 10 10 9 9 9 8 8 8 8 8 8 8 9 10 10 10 11 12 12 13 14 15 16 17 17 18 19 20 21 22 23 25 26 27 28 29 30 31 32 33 34 35 36
6 8 9 10 11 11 11 10 10 10 9 8 8 8 8 8 8 9 9 10 10 11 12 12 13 14 15 16 17 17 18 19 20 21 22 24 25 26 28 29 31 32 33 34 35 36 37 37 38
8 10 11 12 12 12 11 11 11 10 10 9 9 9 9 8 8 9 9 10 11 12 12 13 14 15 16 17 18 18 19 20 21 22 24 25 27 28 30 31 33 34 36 37 38 39 39 40 41
10 11 12 13 13 13 12 12 12 12 11 10 10 10 10 10 9 10 10 11 11 12 13 14 15 15 16 18 18 19 20 21 22 24 25 27 28 30 31 33 34 36 37 38 40 41 42 43 44
12 13 14 15 14 14 13 13 13 14 12 12 12 12 12 11 11 11 11 12 13 14 14 15 16 17 18 19 19 20 21 23 24 25 27 28 30 32 33 35 36 38 39 40 41 42 44 45 46
14 15 16 17 16 16 15 15 16 15 14 14 14 14 14 14 13 13 14 14 15 15 16 16 17 18 19 20 21 22 23 24 25 27 28 30 31 33 35 36 38 40 41 42 43 44 45 46 48
17 17 18 19 18 17 16 17 18 17 16 16 16 16 16 16 16 16 16 16 17 17 18 18 19 20 20 22 23 24 25 26 27 29 30 32 33 35 37 39 40 42 43 44 45 46 47 48 50
19 19 20 21 21 19 18 16 22 19 18 18 19 19 18 18 18 19 19 19 19 19 20 20 21 22 23 24 25 26 27 29 30 31 33 34 36 37 39 41 43 44 46 47 48 49 50 51 52
20 21 21 23 22 21 20 17 23 24 21 20 21 21 21 21 21 21 21 21 22 22 22 22 23 24 25 26 27 29 30 31 33 34 36 37 38 40 42 44 45 47 48 50 51 51 52 53 54
22 22 23 24 25 23 22 19 22 27 25 22 23 23 23 23 24 24 24 24 24 24 25 25 26 27 28 28 30 31 33 34 36 37 39 40 41 43 45 47 49 50 51 52 53 54 54 55 56
25 25 25 26 26 25 24 22 23 27 27 25 25 25 25 25 26 26 26 26 26 27 27 28 29 30 30 31 33 34 36 37 39 40 42 43 44 46 48 50 51 53 54 55 55 56 56 57 57
27 27 27 27 28 27 25 22 25 27 27 27 26 27 27 27 28 28 28 28 29 29 30 31 32 33 34 35 36 37 39 40 42 44 45 47 48 49 51 53 54 55 56 56 57 57 58 59 59
28 30 29 29 28 28 28 21 23 26 27 27 27 28 28 29 29 30 30 30 31 32 34 34 35 36 38 39 40 41 43 44 45 47 49 50 52 53 54 55 57 57 58 58 59 59 60 60 60
29 30 30 30 30 29 29 26 22 24 26 27 28 28 29 30 31 31 32 33 34 35 37 37 39 40 41 43 44 45 46 47 49 51 52 53 55 56 57 58 59 59 59 60 61 61 61 61 62
29 30 30 30 30 29 28 28 24 24 25 27 28 29 30 31 32 33 34 35 37 38 39 40 42 43 45 46 47 48 49 51 52 53 54 56 57 58 59 60 61 61 61 62 63 62 62 63 63
29 30 31 30 30 28 27 27 25 26 25 26 28 29 30 32 34 35 37 38 39 41 42 43 44 46 47 49 50 51 52 54 55 55 56 58 59 59 60 62 62 63 63 64 64 64 64 64 64
28 30 32 32 30 29 27 26 26 28 28 28 29 30 31 33 34 36 38 40 42 43 44 46 47 48 50 51 52 53 55 56 57 58 59 60 60 60 62 63 64 64 65 66 66 66 65 65 66
27 29 31 33 33 31 27 25 25 28 30 31 32 32 32 34 35 37 39 41 43 45 46 48 49 50 51 53 54 55 56 57 58 59 61 61 61 62 63 65 66 66 66 67 67 67 67 67 67
28 29 31 33 35 34 30 26 24 29 32 34 35 35 35 36 37 39 40 42 44 45 47 48 49 51 53 54 55 56 57 58 59 60 61 61 62 63 65 66 67 67 67 68 68 67 67 68 68
28 30 32 33 36 38 36 30 30 32 32 35 36 37 38 38 39 40 41 42 44 45 47 48 50 51 52 54 55 57 58 59 60 61 62 63 64 66 66 67 67 67 68 67 67 66 67 68 66
29 30 32 34 36 39 42 36 33 34 37 39 40 40 41 41 41 42 42 43 44 45 47 48 50 51 53 54 56 57 58 59 60 61 62 64 66 66 67 68 68 67 66 66 66 66 66 65 64
31 32 34 36 38 40 44 41 35 39 43 45 45 44 44 44 44 45 45 45 46 47 48 49 50 51 53 54 56 57 59 60 61 62 63 65 66 67 68 67 66 65 65 65 65 65 64 63 62

GEFSSGP_500_meanwind_084.txt.gz
Wind_Speed
9 9 9 8 7 6 7 6 4 2 2 2 2 3 3 4 5 5 6 6 7 8 9 10 11 11 11 12 12 13 13 14 14 14 14 14 14 15 15 15 16 16 17 17 18 18 19 19 20
9 8 8 7 4 5 4 3 2 2 3 3 4 5 6 6 7 7 8 8 8 9 10 10 11 11 11 12 12 13 13 13 13 14 14 14 14 15 15 16 16 17 17 18 18 19 19 20 21
7 7 6 4 3 5 3 3 3 4 5 6 7 7 8 7 9 9 9 9 9 9 10 10 11 11 11 12 12 12 13 13 13 14 14 14 15 15 16 17 17 17 18 18 19 20 21 21 22
5 5 4 3 3 4 3 4 5 6 8 9 9 9 9 9 9 10 10 9 9 9 10 10 10 11 11 11 11 12 12 13 13 14 14 15 15 15 16 17 17 18 18 19 20 20 21 22 23
4 3 2 3 3 4 5 6 7 8 9 10 10 10 9 10 9 10 10 9 9 9 9 10 10 10 10 11 11 12 12 12 13 13 14 14 15 16 16 17 17 18 19 19 20 21 22 22 23
3 3 3 4 4 5 6 7 9 10 10 10 10 10 9 10 9 9 9 9 9 9 9 10 9 10 10 11 11 12 12 12 13 13 14 15 15 16 17 17 18 19 19 20 21 21 22 23 24
2 3 5 6 6 7 8 9 10 10 11 10 10 10 9 11 9 9 10 9 9 9 9 10 10 10 11 11 11 12 12 13 13 14 15 15 16 17 17 18 19 20 20 21 22 23 23 24 25
2 4 6 7 8 9 9 10 11 11 11 11 11 10 8 11 10 10 10 10 10 10 9 10 11 11 11 12 12 13 13 14 14 15 15 16 16 17 18 19 20 20 21 22 23 24 25 26 27
3 5 7 8 9 10 11 11 12 12 12 12 12 10 9 11 11 11 11 11 11 11 11 11 11 12 12 13 13 13 14 15 15 15 16 16 17 18 18 19 20 21 22 23 24 25 26 27 28
5 6 8 9 11 12 12 13 13 12 13 13 12 11 11 11 12 12 12 13 13 13 13 13 13 13 14 14 14 15 15 16 16 16 17 17 18 19 20 21 22 23 24 25 26 27 28 29 30
7 8 9 11 12 13 13 14 14 14 14 14 13 13 13 13 14 14 14 15 15 15 15 15 15 15 15 16 16 16 17 17 17 18 18 19 20 20 21 22 23 24 25 26 28 29 30 31 32
9 10 11 13 14 15 15 15 16 17 16 15 15 15 14 15 15 16 16 17 18 18 18 18 18 18 18 18 18 19 19 19 20 20 21 21 22 23 24 25 26 27 28 29 30 31 32 33 34
11 12 14 15 15 16 16 18 18 19 17 17 17 17 16 17 18 18 19 20 20 21 21 21 21 21 21 21 21 21 22 22 22 23 23 24 25 26 27 28 29 30 31 32 33 34 35 36 37
13 14 16 16 17 17 17 19 21 20 19 19 19 20 19 19 20 20 21 22 22 23 23 24 24 24 24 24 24 24 25 25 26 27 27 28 29 30 30 31 33 34 35 36 37 38 39 40 42
16 16 17 18 19 18 17 18 23 22 20 20 21 21 22 22 23 23 24 25 25 25 26 26 27 26 27 27 28 28 28 28 29 30 31 32 33 34 34 36 37 38 39 40 42 43 44 45 46
19 19 20 20 19 19 20 19 25 25 23 22 22 23 24 25 25 26 27 27 28 28 28 28 29 29 30 30 31 31 31 31 32 33 34 35 36 37 38 39 41 42 43 44 46 47 48 49 50
22 21 21 23 22 21 22 22 25 28 27 25 25 26 26 27 27 28 29 29 30 30 30 30 31 32 33 33 33 34 34 35 36 36 37 39 40 41 42 43 44 45 46 48 49 51 52 53 53
24 23 24 25 26 25 25 25 26 28 29 28 28 28 28 28 29 30 30 31 31 32 32 33 33 35 36 36 36 36 37 38 39 39 40 42 43 45 46 46 48 49 50 51 53 54 55 56 57
25 25 25 26 27 27 28 29 29 29 30 29 29 29 29 29 30 31 30 31 32 33 34 35 36 37 38 38 38 39 40 41 42 43 44 45 47 48 49 50 51 53 54 55 56 58 59 59 60
26 26 27 27 28 28 27 29 30 29 30 30 29 29 29 30 30 31 31 31 33 34 36 37 38 38 39 40 41 42 43 43 44 45 47 49 50 51 53 54 55 56 57 58 60 61 62 62 62
26 27 27 27 26 27 26 26 29 29 29 29 28 29 29 29 30 30 31 31 33 34 36 38 39 40 41 42 43 44 45 46 47 48 50 52 54 55 56 57 59 60 61 62 63 64 64 64 64
23 25 26 26 26 24 25 24 27 29 29 28 28 28 28 28 29 30 31 31 33 35 36 38 40 41 42 44 45 47 48 48 50 52 53 55 57 58 60 61 62 63 64 65 65 66 66 66 65
22 23 24 24 25 23 24 24 25 28 28 28 29 28 28 28 29 30 31 32 33 35 36 38 40 42 44 46 48 49 50 51 53 55 56 58 59 61 62 63 64 65 66 67 67 68 67 67 66
21 22 23 23 23 23 22 24 25 27 27 29 30 30 29 30 31 31 32 33 34 35 37 39 41 43 45 47 49 51 52 54 56 57 58 60 61 62 63 64 65 66 67 68 69 69 68 67 67
21 22 24 25 24 24 24 24 26 28 29 31 31 31 31 32 32 32 33 34 35 37 38 40 42 44 46 48 50 52 54 55 57 59 61 62 63 64 65 66 67 67 68 68 69 69 68 68 68
21 22 24 26 27 26 24 24 26 30 32 34 34 34 32 32 33 35 36 37 38 39 41 42 44 46 48 49 51 53 55 57 58 60 62 64 65 66 67 68 68 68 68 68 68 68 68 68 68
22 23 25 28 29 30 27 26 27 31 35 36 36 36 35 35 36 38 39 40 41 42 43 45 46 48 50 51 53 54 56 58 59 61 62 64 65 67 68 69 69 68 68 68 68 68 68 68 67
24 25 27 29 32 34 32 30 30 33 35 37 39 40 39 38 38 39 40 41 42 43 45 46 48 49 51 53 54 56 57 59 60 61 63 64 65 67 68 69 69 69 68 68 68 67 67 67 66
24 26 28 30 32 35 37 32 32 34 36 39 41 40 39 39 40 40 41 42 43 45 46 47 49 50 51 53 54 56 57 58 60 61 62 63 64 66 67 67 67 67 67 67 66 65 66 67 67
27 27 29 31 33 34 38 37 33 37 40 43 42 42 42 41 42 42 43 44 45 46 47 48 49 50 51 53 54 55 57 58 59 60 61 63 64 64 64 64 63 64 64 65 65 65 66 66 65

GEFSSGP_500_meanwind_090.txt.gz
Wind_Speed
6 6 5 5 4 5 5 4 4 5 5 3 2 1 1 1 1 3 4 4 4 5 6 7 7 7 8 8 9 10 11 11 11 12 12 13 13 14 14 14 15 15 16 16 17 17 17 17 16
5 5 5 4 4 4 3 3 3 4 3 2 1 1 3 3 3 4 5 6 6 7 7 8 8 8 8 8 9 9 10 10 11 11 11 12 13 13 14 14 15 15 15 16 16 17 17 17 18
5 5 4 4 4 3 1 1 2 2 2 1 2 3 5 5 4 5 7 8 8 7 7 7 7 7 7 8 8 8 9 9 10 10 11 12 13 13 14 14 14 15 15 16 16 17 17 18 18
4 4 3 4 4 2 1 1 2 2 2 3 3 4 6 6 5 5 7 8 8 7 7 7 7 7 7 7 8 8 9 9 10 10 11 12 12 13 13 13 14 15 15 16 16 17 18 18 19
4 3 3 4 4 3 3 3 3 4 4 4 4 5 7 7 5 5 6 8 8 8 7 7 7 7 7 7 8 8 9 9 10 10 11 11 12 13 13 14 14 15 15 16 16 17 17 18 19
3 2 3 4 4 4 4 4 5 4 4 5 5 5 7 8 6 5 6 8 9 8 7 7 7 7 8 8 8 9 9 9 10 11 11 12 12 13 13 14 14 14 15 15 16 17 18 18 19
2 1 2 3 4 4 4 6 6 6 6 5 6 6 8 9 7 6 7 8 9 9 8 7 8 8 8 9 9 10 10 10 11 12 12 13 13 13 14 14 14 15 15 16 17 18 18 19 20
1 1 1 2 3 5 5 6 7 7 7 6 6 7 9 10 9 8 7 8 10 10 9 9 9 10 10 10 11 11 11 12 12 13 13 13 14 14 14 15 15 16 16 17 17 18 19 20 21
3 3 3 3 4 5 6 7 8 9 9 7 7 8 10 11 11 10 9 10 11 12 12 12 12 12 12 12 13 13 13 13 14 14 15 15 15 15 16 16 16 17 17 18 19 20 20 21 22
6 6 5 5 6 6 8 8 9 9 11 10 9 10 11 12 12 12 12 12 13 14 14 14 14 14 14 15 15 15 15 16 16 17 17 17 18 18 18 18 19 19 20 20 21 22 23 23 24
8 8 8 8 8 8 9 10 11 11 12 12 12 12 14 14 14 15 14 14 15 16 17 18 17 17 17 18 18 18 19 19 19 19 20 20 21 21 21 22 22 22 23 24 24 25 26 26 27
11 11 10 10 10 11 11 12 13 13 13 14 14 14 15 17 17 17 18 18 18 18 20 20 20 20 21 21 21 21 22 22 23 23 23 23 24 24 24 25 26 26 27 27 28 29 30 30 31
13 13 13 13 13 13 14 15 15 15 15 15 15 15 16 18 19 20 20 21 21 21 21 22 22 23 24 24 24 25 25 25 26 26 26 27 27 28 28 29 29 30 31 31 32 33 34 35 35
16 16 16 15 15 15 16 17 16 16 16 16 17 17 17 18 20 21 22 23 23 23 24 24 24 25 26 27 27 28 28 28 29 29 30 30 31 31 32 32 33 34 34 35 36 37 37 38 39
19 18 18 17 17 16 17 20 19 18 17 18 19 20 20 20 21 22 23 24 25 25 25 26 26 27 27 29 30 30 31 31 32 32 33 34 34 35 35 36 37 38 38 39 40 41 41 42 43
21 20 20 20 19 19 19 22 23 21 20 20 20 21 21 21 22 23 24 25 25 26 27 28 28 29 30 31 32 32 33 33 34 36 36 37 38 38 39 39 40 42 42 42 43 45 45 46 47
22 22 22 22 21 20 21 22 24 23 22 22 22 22 21 22 22 23 24 25 26 26 27 28 30 31 32 33 33 34 35 36 37 38 39 40 41 42 42 43 44 45 46 47 48 48 50 50 51
23 23 23 24 23 23 23 24 24 23 23 23 22 22 21 21 21 22 23 24 25 26 26 28 29 31 33 34 35 36 37 37 38 39 41 42 44 45 46 47 48 49 50 50 52 52 53 54 56
23 23 23 25 24 24 24 24 23 22 23 22 22 22 21 21 21 21 22 23 24 25 26 27 29 31 32 34 35 36 37 38 39 41 42 44 47 48 50 50 51 52 53 54 56 57 58 58 60
22 22 22 23 24 23 24 24 22 21 21 21 21 21 21 21 21 21 22 23 24 25 27 28 29 31 32 34 36 37 38 39 41 43 44 47 49 51 52 53 54 56 57 58 59 61 61 62 63
20 20 20 20 20 22 23 23 20 19 19 19 19 20 21 21 22 22 23 24 25 26 27 28 30 31 33 34 36 38 39 40 42 44 46 48 50 52 54 56 57 59 60 61 62 64 64 65 66
17 18 18 17 17 18 20 22 20 19 18 19 19 20 21 22 23 24 24 25 26 27 28 29 31 32 34 35 37 38 40 41 44 46 48 50 52 54 56 58 60 61 63 64 65 66 67 68 68
15 16 16 15 15 16 18 20 22 20 20 19 19 20 21 23 24 25 26 27 27 28 29 30 32 33 35 36 38 39 41 43 45 47 49 51 54 56 58 59 61 63 64 65 67 68 69 69 69
14 15 15 15 15 16 17 19 21 22 21 21 21 21 23 24 24 25 27 28 30 31 32 33 34 35 36 37 39 40 42 44 46 48 50 52 54 56 58 60 62 63 65 66 67 68 69 69 69
14 16 17 16 16 17 18 19 21 22 23 23 22 23 23 23 24 26 28 30 32 32 33 34 35 36 37 38 40 41 43 45 46 48 50 52 54 55 57 60 61 63 64 65 66 67 68 68 69
16 17 18 19 18 17 19 19 22 23 24 24 23 23 23 24 26 28 30 32 33 34 34 35 36 37 38 39 41 42 44 45 46 48 50 52 54 56 58 60 61 63 64 65 66 67 68 69 69
18 18 19 21 21 20 19 19 22 25 26 26 25 25 26 27 29 31 32 33 34 35 36 37 37 38 39 40 42 44 46 47 49 50 52 53 55 56 58 60 61 62 64 65 66 67 68 69 69
20 20 21 23 24 24 21 19 24 26 27 27 28 29 29 30 31 32 33 34 35 36 37 37 39 40 42 44 46 47 49 51 53 54 55 56 57 58 60 61 62 63 64 65 66 67 67 68 67
22 22 23 25 26 27 26 20 25 26 28 30 31 31 32 32 33 34 35 36 37 38 39 41 42 44 46 47 49 51 53 55 56 57 58 59 60 61 62 63 63 64 65 66 66 66 66 66 66
23 23 24 26 27 28 28 23 25 28 30 31 32 33 34 35 36 36 37 38 40 41 43 44 46 48 50 52 54 56 58 59 60 61 61 61 62 62 63 63 64 64 65 65 65 65 65 65 64

GEFSSGP_500_meanwind_096.txt.gz
Wind_Speed
4 5 5 4 4 3 2 2 1 2 3 4 4 4 4 4 4 4 5 5 6 7 7 8 8 9 9 10 10 11 11 12 12 12 12 12 12 12 12 12 12 13 13 14 14 14 15 15 15
5 5 5 4 4 3 2 1 0 2 3 4 4 4 4 5 5 5 5 6 7 8 8 8 9 9 10 10 10 10 11 11 11 10 10 10 11 11 11 11 12 12 13 13 14 14 14 15 15
5 5 5 4 3 2 2 2 1 3 3 4 4 4 5 5 6 6 6 7 8 8 8 9 9 9 10 10 10 10 10 10 9 9 9 10 10 10 11 11 12 12 12 13 13 14 14 15 15
4 4 3 3 2 2 2 2 2 3 4 4 4 5 6 6 6 7 7 7 8 8 8 9 9 9 10 10 10 10 9 9 9 9 9 10 10 10 11 11 12 12 13 13 13 14 15 15 16
2 3 3 2 2 1 1 1 1 2 4 4 5 5 6 6 6 7 8 8 8 8 9 9 9 10 10 10 10 10 10 10 10 10 10 10 10 11 11 12 12 12 13 13 13 14 14 15 16
2 1 2 1 0 1 1 2 3 3 4 5 5 6 7 6 7 8 9 9 9 9 9 10 10 10 10 10 10 10 10 10 10 11 11 11 11 12 12 12 12 13 13 13 14 14 15 15 16
3 2 2 1 1 2 2 3 4 5 5 6 6 6 7 7 8 9 9 10 10 10 10 11 11 12 12 12 12 12 12 12 12 12 12 12 13 13 13 13 14 14 14 14 15 15 16 16 17
5 4 4 3 3 3 4 5 6 6 7 6 7 7 8 9 9 10 11 12 12 12 12 12 13 14 14 14 14 14 14 14 14 14 14 14 15 15 15 15 15 16 16 16 17 17 17 18 18
7 7 6 6 5 6 6 6 7 8 8 8 8 9 10 11 12 12 13 13 14 14 14 14 15 16 16 16 17 17 17 17 17 17 17 17 17 17 18 18 18 18 18 19 19 19 20 20 21
10 10 9 8 8 8 9 9 9 9 10 9 10 11 12 13 14 14 15 15 16 16 17 17 18 18 19 19 20 20 20 20 20 21 21 21 21 21 21 21 22 22 22 22 22 23 23 24 24
13 13 12 11 10 10 11 11 11 11 11 11 12 13 14 15 15 16 16 17 18 19 20 20 20 21 21 22 22 23 23 24 24 24 24 24 24 25 25 25 25 26 26 26 26 27 27 28 28
15 16 15 14 13 13 13 14 14 13 12 13 14 15 16 17 17 17 18 19 20 21 22 22 23 23 24 24 25 26 27 27 27 27 27 28 28 28 28 29 29 30 30 30 31 31 31 32 32
18 18 18 17 16 16 16 17 16 15 14 15 16 17 18 19 20 20 20 20 21 23 24 24 25 26 26 27 28 29 30 30 30 30 31 31 32 32 32 32 33 33 34 34 35 35 35 36 36
20 20 20 20 19 18 19 20 18 17 17 18 19 19 20 21 22 22 22 22 23 24 25 26 27 27 28 29 30 31 31 32 32 33 33 34 34 35 35 36 36 37 38 38 38 39 39 40 41
21 21 22 22 21 20 21 22 20 19 19 21 21 22 22 23 24 24 24 24 24 25 26 27 28 29 30 31 32 32 33 33 34 35 36 36 37 38 38 39 40 41 41 42 42 43 43 44 45
23 23 24 24 23 22 22 24 23 20 21 23 23 24 24 25 25 25 25 25 25 25 26 27 27 29 30 31 32 33 34 34 35 36 37 38 39 40 41 41 42 44 45 45 45 46 47 48 49
24 24 25 26 25 24 24 24 25 23 23 24 25 25 26 26 26 26 26 26 26 26 26 27 27 28 30 30 31 32 34 35 36 37 38 39 40 41 42 43 44 46 47 48 48 49 50 51 52
24 24 25 26 26 25 24 24 25 25 24 25 25 26 26 26 26 25 26 26 26 26 27 27 27 28 29 31 31 32 34 35 36 38 39 40 41 42 43 44 45 47 49 50 51 52 53 54 55
24 24 25 26 26 25 24 24 24 24 25 25 25 25 25 25 25 25 26 26 27 27 27 27 28 29 30 31 31 32 33 35 37 38 40 41 42 43 45 45 47 48 50 51 53 54 55 56 58
22 23 24 25 25 23 23 23 23 23 23 24 24 24 25 25 25 25 26 27 27 27 28 28 29 29 30 31 31 32 33 35 37 39 40 41 43 44 45 47 48 50 51 52 54 56 57 58 59
21 21 21 22 23 22 22 20 20 21 22 22 24 24 24 25 25 26 26 27 27 28 28 29 29 30 30 31 32 33 34 36 37 39 40 42 43 45 46 48 49 51 52 53 55 57 58 60 61
20 20 20 20 21 20 20 18 18 19 20 22 23 24 24 25 25 26 26 27 27 28 28 29 31 31 32 33 34 36 36 37 39 40 41 43 44 45 46 48 50 51 53 55 56 58 60 62 63
19 19 19 19 19 18 18 19 18 19 20 21 22 23 24 24 25 26 27 28 28 29 30 31 32 33 34 35 36 37 38 38 39 40 41 43 44 46 48 50 51 53 55 56 58 60 62 63 65
18 18 18 17 18 17 18 19 19 19 20 21 22 23 24 25 26 27 28 29 30 31 32 33 34 34 35 36 37 37 38 39 40 41 43 45 46 48 50 52 54 56 57 59 61 62 64 65 67
18 18 18 18 17 17 18 20 20 20 21 22 23 24 25 26 28 29 29 31 32 33 34 34 35 35 36 37 38 38 39 40 42 44 45 47 49 51 53 56 57 59 61 63 64 66 67 68 69
19 19 19 20 19 18 19 20 21 22 23 24 25 26 27 28 29 30 31 33 34 34 35 35 36 36 37 38 39 40 42 44 45 47 49 51 53 55 57 60 61 63 65 67 68 70 70 71 72
20 20 21 22 22 21 21 21 23 24 25 26 28 29 29 30 30 32 33 34 35 35 36 37 37 39 40 41 42 44 46 48 50 52 54 57 59 61 63 64 66 68 70 71 73 74 74 74 75
22 22 22 23 25 24 23 22 24 25 27 29 30 30 31 32 32 33 34 35 37 38 38 39 40 41 42 44 46 48 50 53 55 57 60 62 64 66 68 70 72 74 75 76 77 77 76 77 77
24 24 24 26 27 28 26 23 25 28 30 31 32 32 33 34 34 35 37 38 39 40 41 42 43 44 46 48 50 52 55 57 60 62 65 67 69 72 74 75 77 78 79 79 79 79 78 78 77
25 25 26 28 29 30 29 26 28 30 32 33 33 34 34 36 36 38 39 40 41 42 44 45 46 48 50 52 54 57 60 62 65 68 70 73 75 77 78 80 80 80 80 80 79 79 78 78 77

GEFSSGP_500_meanwind_102.txt.gz
Wind_Speed
5 5 5 5 5 5 4 4 3 1 1 2 3 4 5 6 7 7 8 8 8 8 8 9 9 9 10 10 11 11 12 12 13 13 14 14 14 14 14 14 15 15 15 15 16 16 16 17 17
5 5 5 6 5 5 5 4 3 2 1 1 3 4 5 6 7 8 8 8 8 9 9 9 9 9 9 10 10 11 11 11 12 12 13 13 13 13 13 13 13 14 14 14 15 15 15 16 16
4 5 5 5 5 4 4 3 3 2 0 1 3 4 5 6 7 7 8 8 8 9 9 9 9 10 10 10 10 10 10 11 11 11 11 11 11 12 12 12 13 13 14 14 14 15 15 15 16
4 4 4 4 4 3 3 3 2 2 1 1 2 4 4 4 6 7 8 8 8 8 9 9 10 10 10 10 10 10 10 11 11 11 11 11 12 12 12 13 13 13 14 14 15 15 15 15 16
3 3 3 3 3 2 2 2 2 1 1 2 3 3 4 4 5 6 7 8 8 9 9 10 10 10 10 10 11 11 11 11 11 12 12 12 12 12 13 13 13 14 14 15 15 15 15 16 16
4 3 3 3 2 2 1 0 0 1 1 2 3 4 5 5 6 7 8 9 9 9 10 10 11 11 11 12 12 12 13 13 13 13 13 14 14 14 14 14 15 15 15 15 15 16 16 16 16
5 4 4 4 3 3 2 2 2 2 2 3 4 5 6 6 7 7 8 9 10 10 11 12 13 13 13 13 14 14 14 14 14 15 15 16 16 16 16 16 16 17 17 17 17 17 17 17 18
7 6 6 5 5 5 4 4 4 4 4 4 5 7 8 8 8 9 9 10 11 12 13 14 14 15 15 16 16 16 17 17 17 18 18 18 19 19 19 19 19 19 19 19 19 19 19 19 19
9 9 8 7 7 7 7 7 6 6 7 7 8 9 10 10 11 11 11 12 12 13 15 16 16 17 18 18 19 20 20 20 21 21 21 22 22 22 22 22 22 22 22 22 22 22 22 22 22
11 11 10 10 9 9 9 9 9 9 9 9 11 11 12 12 12 13 13 14 15 15 16 18 19 19 20 21 22 23 23 24 24 24 25 25 25 26 26 26 26 26 26 26 26 26 26 26 26
13 13 13 12 12 12 12 12 11 11 12 12 13 14 14 14 15 15 16 16 17 17 18 19 20 21 22 23 24 25 26 26 27 27 28 28 28 29 29 29 30 30 30 30 30 30 30 30 30
15 15 15 14 14 14 15 15 14 14 14 15 15 16 16 17 17 17 18 18 19 19 20 21 22 23 24 25 26 27 28 28 29 29 30 31 31 31 32 32 33 33 33 34 34 34 34 34 34
17 17 17 16 16 16 17 17 17 17 16 17 17 18 18 19 19 19 20 20 20 21 21 22 23 24 25 26 27 28 29 30 30 31 31 32 33 33 34 34 35 35 36 36 36 37 37 37 37
19 19 19 18 18 18 19 19 19 19 19 19 19 19 20 20 20 21 21 21 22 22 23 23 24 25 26 27 27 28 29 30 30 31 32 33 34 34 35 36 36 37 38 38 38 39 40 40 41
20 21 21 20 19 19 20 21 20 21 21 21 21 21 21 21 22 22 22 23 23 23 24 24 24 25 26 27 27 28 29 29 30 31 32 33 34 34 35 36 37 38 39 39 40 41 41 42 43
21 21 22 21 21 21 22 23 22 22 22 23 23 23 23 23 23 23 23 23 23 24 24 24 24 25 26 26 27 28 29 30 31 31 32 33 34 35 35 36 37 38 39 40 41 42 43 44 45
21 22 22 22 22 22 23 24 23 23 23 23 23 24 24 24 24 24 23 23 23 23 24 24 24 25 26 26 27 28 29 30 30 31 32 33 34 34 35 36 37 38 39 40 41 42 44 44 46
21 21 22 22 21 22 22 23 24 23 24 24 24 24 24 24 24 23 23 23 23 24 24 25 25 26 26 27 27 28 28 29 30 31 32 33 33 34 35 36 37 39 39 40 42 43 44 45 46
21 21 21 22 21 21 22 23 23 23 23 24 24 24 24 24 23 24 24 24 24 24 25 25 26 26 26 27 27 28 29 30 31 32 33 34 35 36 37 37 38 40 40 41 43 44 45 46 48
21 20 20 21 20 21 21 22 22 23 23 23 23 23 23 23 23 24 24 24 25 25 25 25 26 27 27 28 28 29 30 31 33 34 35 36 37 38 39 40 40 41 42 43 45 46 47 48 50
20 20 20 19 19 19 20 21 21 22 22 22 22 22 22 23 23 23 24 25 26 26 26 26 27 28 28 29 30 31 32 33 34 35 36 37 38 39 40 41 42 43 44 45 47 48 49 50 52
20 19 19 19 19 18 18 19 19 20 20 20 21 21 22 23 23 24 25 26 26 27 27 28 29 29 30 31 32 33 34 35 36 37 38 39 40 41 42 43 44 45 46 47 49 51 52 54 55
19 19 18 18 18 17 17 18 17 18 19 19 20 21 22 23 24 25 26 27 27 28 29 30 30 30 31 32 33 34 35 36 37 38 39 40 41 42 43 45 46 47 49 51 53 55 57 59 61
19 19 18 18 18 17 17 17 17 17 18 19 20 21 22 23 25 26 27 28 29 30 30 31 31 32 32 33 34 35 36 37 38 39 40 42 43 44 46 47 49 51 53 55 57 60 62 64 66
19 18 18 18 17 17 17 17 17 18 19 20 21 22 23 24 25 27 28 30 31 31 32 32 32 33 34 35 36 37 38 39 40 41 42 44 45 47 49 51 53 56 58 61 63 65 68 70 72
19 18 18 18 17 17 17 18 18 19 20 21 22 24 25 26 27 29 30 32 32 32 33 33 34 35 36 37 38 39 40 41 42 43 45 47 49 51 53 56 58 61 64 66 69 71 73 75 77
19 18 19 19 19 18 18 19 20 21 22 23 24 25 26 28 29 30 32 33 33 34 34 35 36 37 38 39 40 41 42 43 45 47 49 51 53 55 58 61 63 66 69 71 73 75 77 79 81
19 19 19 20 20 20 19 19 21 22 23 24 25 26 28 29 31 32 33 34 35 36 36 37 38 39 40 41 43 44 45 47 48 50 53 55 57 60 62 65 68 70 73 75 77 79 81 82 83
20 20 21 22 22 22 21 21 22 24 25 26 27 28 30 32 33 34 35 36 37 38 38 39 40 41 43 44 46 47 48 50 52 55 57 59 62 64 67 69 72 74 77 79 81 82 83 84 84
21 21 22 23 23 23 23 23 24 26 27 28 29 30 32 34 35 36 37 38 39 40 40 41 43 44 45 47 48 50 52 54 56 59 61 63 66 68 71 73 76 78 80 81 82 83 83 83 82

GEFSSGP_500_meanwind_108.txt.gz
Wind_Speed
3 3 4 4 4 3 3 2 1 1 1 1 2 3 4 4 5 6 6 7 8 8 9 9 10 10 11 11 11 12 12 13 13 13 13 13 13 13 13 14 14 14 14 15 15 16 16 17 18
2 2 3 3 3 3 3 2 1 0 1 1 2 3 4 4 5 6 7 7 8 9 9 9 10 10 10 11 11 11 12 12 12 12 12 12 12 12 12 12 12 13 13 13 14 14 15 16 16
1 2 2 2 2 2 3 2 1 0 1 1 2 3 4 4 5 6 7 7 8 8 9 9 9 10 10 11 11 12 12 12 12 12 12 12 12 12 12 12 12 12 13 13 13 14 15 15 16
2 3 3 3 2 2 1 1 1 1 1 2 3 3 3 4 5 6 6 7 7 7 8 9 9 10 11 11 12 12 12 12 12 13 13 12 12 12 12 13 13 13 13 13 14 14 15 15 16
3 4 4 3 3 2 2 1 1 2 2 2 3 3 3 4 4 5 6 7 7 8 9 10 10 11 11 12 12 12 13 13 13 14 14 14 14 14 14 14 14 14 14 14 15 15 15 16 16
5 4 4 4 4 3 3 3 3 3 3 4 4 5 3 5 5 6 7 8 8 9 10 11 11 11 12 13 13 14 14 15 15 15 15 15 15 15 15 16 16 16 16 16 16 16 17 17 17
7 6 6 5 5 5 5 5 5 5 6 6 7 7 5 6 7 7 8 9 10 10 11 12 12 13 14 14 15 15 16 16 17 17 17 17 17 18 18 18 18 18 18 18 18 18 18 18 18
9 9 8 8 7 7 7 7 7 7 8 8 9 9 8 8 8 9 10 10 11 12 12 13 14 15 16 16 17 18 18 19 19 19 20 20 20 21 21 21 21 21 21 21 21 21 21 21 21
11 11 11 11 10 9 9 9 9 10 11 11 11 11 11 11 11 11 12 12 13 14 15 15 17 17 18 19 19 20 21 21 22 22 23 23 23 24 24 25 25 25 25 25 25 24 24 24 24
13 13 13 13 12 12 11 11 12 12 13 13 14 13 13 14 14 14 14 15 16 17 17 18 19 20 20 21 22 22 23 24 24 25 26 26 26 27 27 27 28 28 28 28 28 28 28 28 28
15 16 15 14 14 14 14 14 14 14 15 15 16 15 15 16 16 17 17 17 18 18 19 20 20 21 22 23 23 24 25 25 26 26 27 28 28 29 29 30 30 30 31 31 31 31 32 32 32
18 18 17 16 16 16 16 16 16 16 17 17 18 18 18 18 18 18 19 19 20 20 21 21 22 22 23 23 24 25 25 26 27 28 28 29 29 30 30 31 31 32 32 33 33 34 34 35 35
19 19 19 18 18 18 18 18 18 19 19 19 20 20 20 20 20 20 21 21 21 22 22 23 24 24 24 24 25 25 26 27 28 29 29 29 29 30 30 31 31 32 33 33 34 35 36 36 37
21 20 20 20 20 20 20 20 20 20 20 21 21 21 22 22 22 22 22 23 23 23 24 24 25 25 25 25 25 26 27 27 28 29 29 29 30 30 31 31 32 33 33 34 34 35 36 37 38
23 22 22 22 22 22 22 22 21 21 22 22 22 22 23 23 23 23 24 24 24 24 24 25 25 25 25 26 26 26 27 27 27 28 29 29 30 30 30 31 32 33 33 34 35 36 37 37 38
24 24 25 23 23 23 24 24 23 23 23 23 23 23 23 23 23 24 24 24 25 25 25 25 25 25 25 26 26 26 27 27 27 28 29 29 30 30 31 31 32 33 34 34 35 36 37 38 39
25 25 25 25 24 24 24 25 24 23 24 24 24 23 23 23 23 24 24 24 24 24 24 24 25 25 25 26 26 27 27 28 28 29 29 30 31 31 32 32 33 34 35 35 36 37 38 39 40
26 25 25 26 24 24 25 25 25 24 24 24 24 23 23 24 24 24 24 24 23 24 24 24 25 25 26 26 27 28 28 28 29 29 30 31 31 32 32 33 34 35 35 36 37 38 39 39 40
26 26 25 25 25 24 24 24 25 24 23 23 23 23 23 24 24 23 23 23 23 23 24 24 25 25 26 27 27 28 28 29 30 30 31 32 32 33 34 34 35 36 37 37 38 40 40 41 42
26 26 26 26 26 25 24 24 24 23 23 24 23 23 23 23 23 22 22 22 23 23 24 24 25 26 27 27 28 29 30 31 31 32 32 33 34 34 35 36 37 38 38 39 40 42 42 43 44
27 26 26 26 26 26 26 24 24 23 23 23 23 22 22 22 21 21 22 22 23 23 24 25 26 27 28 29 30 31 31 32 32 33 34 35 36 37 37 38 38 39 41 41 43 44 45 46 47
27 26 26 26 27 25 26 25 22 22 21 21 21 21 21 21 21 21 22 22 23 24 25 26 27 28 29 30 31 32 33 34 34 35 36 37 37 38 39 40 41 42 43 44 45 47 48 50 50
26 25 26 26 27 26 24 26 22 20 19 20 20 20 20 20 20 21 22 23 24 25 26 27 28 30 31 32 33 34 35 36 36 37 38 38 39 41 42 43 44 45 46 47 48 50 51 53 54
26 25 26 26 27 25 22 25 23 19 19 20 20 20 20 20 20 21 22 24 25 26 28 29 30 32 33 34 35 36 37 37 38 39 40 41 42 43 44 45 46 47 49 50 52 53 55 56 58
27 26 26 26 25 24 22 23 23 19 19 20 20 20 20 21 22 23 24 26 27 28 30 31 32 33 35 36 37 38 39 39 40 41 43 44 45 45 46 47 49 50 51 53 55 56 58 60 62
27 27 26 26 25 25 22 22 21 19 21 21 21 21 21 22 23 24 26 28 29 30 32 33 34 35 37 38 39 40 41 42 43 44 45 46 47 48 49 50 51 53 54 56 58 60 62 64 66
27 26 26 26 24 25 23 22 20 20 22 22 22 22 23 24 25 27 28 29 31 32 34 35 36 37 39 40 41 42 43 44 45 46 46 48 49 50 51 52 54 56 57 59 61 63 65 67 69
27 26 26 25 25 25 23 23 21 18 22 23 24 24 25 26 27 29 30 32 33 35 36 37 39 40 41 42 43 43 45 46 46 47 49 50 51 52 54 55 57 58 60 62 64 66 68 70 73
26 26 26 26 25 25 24 25 23 21 23 24 25 26 27 28 29 31 32 34 36 37 38 40 41 42 43 44 44 45 46 47 49 50 51 52 53 54 56 58 59 61 63 65 67 69 71 73 75
27 26 26 26 26 26 26 26 24 25 26 26 27 27 29 30 32 33 35 36 38 39 41 42 43 44 45 46 46 47 48 49 50 51 53 54 55 57 59 60 62 64 66 68 70 72 74 75 76

GEFSSGP_500_meanwind_114.txt.gz
Wind_Speed
2 2 2 2 2 2 2 3 4 4 4 4 3 3 3 3 3 4 5 4 4 5 5 6 6 7 7 8 8 9 9 10 11 11 12 12 12 12 13 13 13 13 14 14 14 14 14 15 15
1 1 1 1 1 2 2 3 3 3 3 3 2 2 2 2 2 3 4 4 4 5 5 5 6 6 6 7 7 8 9 9 10 11 11 11 11 12 12 12 12 13 13 13 13 13 14 14 14
1 1 1 0 1 1 2 2 3 3 2 2 2 2 1 1 1 2 4 4 4 4 5 5 5 6 6 7 8 8 9 9 10 10 11 11 11 11 12 12 12 13 13 13 13 13 14 14 14
3 2 2 2 1 2 2 2 2 2 2 1 2 1 0 0 0 1 3 4 3 3 4 4 5 6 6 7 8 9 9 10 10 10 11 12 12 12 13 13 13 14 14 14 15 15 15 15 15
4 4 3 3 2 3 3 2 2 2 1 0 0 0 1 1 0 1 2 4 4 3 3 5 5 6 7 8 8 9 10 10 11 12 12 13 14 14 15 15 15 15 16 16 16 16 17 17 17
5 5 5 5 4 4 4 3 2 2 2 2 1 2 3 2 2 2 3 5 5 5 5 6 7 8 8 9 10 11 11 12 13 13 14 15 15 16 17 17 17 18 18 18 19 19 19 19 20
7 7 7 7 6 6 6 5 4 4 4 4 3 4 5 5 5 4 4 6 7 8 7 8 9 9 10 11 12 13 13 14 15 16 16 17 17 18 19 20 20 21 21 22 22 22 22 23 23
9 9 9 8 7 7 7 7 7 7 6 6 6 6 7 7 7 7 7 8 9 10 10 10 11 12 13 14 14 15 16 17 17 18 19 19 20 21 22 22 23 24 25 25 26 26 26 26 26
11 11 11 9 9 9 9 9 9 9 9 9 8 8 9 9 9 9 9 10 11 12 13 13 14 14 15 16 17 17 18 19 20 20 21 22 23 24 25 25 26 27 27 28 29 29 30 30 30
14 13 12 12 11 12 12 12 12 12 12 11 11 11 11 11 11 12 12 12 12 13 14 15 16 16 17 18 18 19 20 21 21 22 23 24 25 26 26 27 28 28 29 30 30 31 31 32 33
17 16 15 14 14 14 14 14 14 14 14 14 14 14 14 14 14 14 15 14 14 15 16 17 18 19 19 20 20 21 21 22 23 23 24 25 26 27 28 29 29 30 30 31 31 32 32 33 34
19 19 18 18 17 17 17 17 16 16 16 16 16 16 16 16 16 17 17 17 17 17 18 19 20 21 21 22 22 22 23 23 24 25 26 26 27 28 29 30 30 31 31 31 32 33 33 34 35
21 21 21 21 20 20 19 19 18 19 18 18 18 18 19 19 19 19 19 20 20 19 19 20 21 22 22 23 23 24 24 25 25 26 27 27 28 28 29 29 30 31 32 32 32 33 34 34 35
24 23 23 23 23 22 21 21 20 22 21 20 20 20 21 21 21 21 21 21 22 22 21 21 22 23 23 24 24 25 25 26 26 27 27 27 28 29 29 30 31 32 32 33 34 34 35 36 36
26 25 25 25 24 24 23 23 23 23 23 22 22 22 23 22 22 22 22 22 23 23 22 22 23 23 24 25 25 26 26 27 27 27 27 28 28 29 30 31 31 32 32 33 34 35 36 37 37
27 27 26 26 26 26 26 25 26 25 25 24 24 24 24 24 24 24 24 24 24 24 23 23 24 24 25 25 26 26 27 27 27 28 28 29 29 30 30 31 32 32 33 34 35 36 37 38 38
28 28 27 27 27 27 27 27 28 27 26 25 25 25 25 25 25 24 24 24 24 24 24 24 25 25 25 26 26 27 27 28 28 29 29 29 30 31 31 32 33 33 34 35 36 37 37 38 39
29 28 28 29 29 28 28 28 29 29 27 26 26 25 26 25 25 25 25 25 25 25 25 25 25 25 26 26 26 27 27 28 29 30 30 30 31 32 32 33 34 35 35 37 37 38 39 40 41
30 29 29 30 30 29 28 27 28 29 27 25 25 25 25 25 25 25 25 25 25 25 25 25 25 26 26 26 26 27 28 29 29 30 31 31 32 33 34 35 36 36 37 38 39 40 40 42 43
30 30 29 30 32 31 29 27 27 28 28 26 25 25 25 25 25 25 25 25 25 25 25 26 26 26 26 26 27 27 28 29 31 31 32 33 34 35 36 37 38 38 39 40 41 42 42 43 45
29 28 29 30 32 32 31 27 26 27 27 26 26 25 25 25 24 25 25 25 25 25 25 25 25 25 26 26 27 28 29 30 31 32 33 35 36 37 38 39 40 41 41 42 43 44 44 45 46
28 29 30 30 31 31 31 29 24 27 27 26 26 25 25 25 25 24 24 24 24 25 25 25 25 25 26 27 28 29 30 32 33 34 35 36 37 38 39 40 41 42 43 44 45 46 47 47 48
30 30 31 31 32 30 29 31 23 25 26 26 25 24 24 24 24 24 23 23 24 24 25 25 26 26 27 28 30 31 32 33 35 36 37 38 39 40 41 42 43 44 45 46 47 48 49 50 51
31 32 33 33 33 31 27 31 24 23 25 25 24 24 23 24 23 23 23 23 24 24 25 26 27 28 29 30 31 32 34 35 37 38 39 40 41 42 43 44 45 46 47 48 49 50 51 52 53
31 32 34 34 34 31 29 30 25 23 25 25 24 23 23 23 23 23 23 23 24 25 26 27 28 29 30 31 33 34 36 37 39 40 41 42 43 44 46 46 47 48 49 50 51 52 53 54 56
31 32 33 34 33 31 30 30 25 24 24 25 24 24 24 24 23 23 23 24 25 26 27 28 29 31 32 33 35 37 38 39 41 42 43 44 45 46 47 48 49 50 51 53 54 54 56 57 58
31 31 32 34 34 32 31 29 26 23 24 24 24 24 24 24 23 23 24 25 26 27 28 30 31 32 34 35 37 38 40 41 43 44 45 46 47 48 48 49 50 51 53 54 55 56 57 58 60
31 31 33 34 34 33 31 28 26 24 24 24 24 24 24 24 24 24 25 26 28 29 30 31 33 35 36 37 39 40 42 43 45 46 47 48 49 49 50 51 52 53 54 55 57 58 59 60 62
32 32 33 34 35 34 32 28 25 25 25 24 24 25 24 25 25 26 27 28 29 30 32 33 35 37 38 39 41 42 44 45 46 47 48 49 50 51 52 52 53 54 56 57 59 60 61 63 64
33 32 32 34 34 34 33 28 25 26 26 26 25 25 26 26 27 28 28 29 30 32 33 35 37 38 40 41 43 44 46 47 47 48 49 50 51 52 53 54 55 56 57 59 60 62 63 65 66

GEFSSGP_500_meanwind_120.txt.gz
Wind_Speed
3 2 2 2 2 2 2 1 1 2 3 4 4 4 4 5 5 6 6 7 7 8 8 8 9 9 9 9 10 10 10 10 10 11 11 11 12 12 12 13 13 13 14 14 14 15 15 16 17
3 2 2 2 2 2 2 1 1 1 2 3 3 3 4 4 5 5 5 6 7 7 7 8 8 8 8 8 9 9 9 10 10 10 11 11 11 11 12 12 13 13 14 14 14 15 15 16 17
2 2 2 2 2 2 1 1 1 1 2 2 2 3 3 4 4 5 5 6 6 7 7 7 7 7 8 8 9 9 9 10 10 10 11 11 11 12 12 13 14 14 14 15 15 16 16 17 17
3 2 2 1 1 1 1 0 1 1 2 2 2 2 2 3 3 4 4 4 5 6 6 6 7 7 8 8 9 9 10 10 11 11 12 12 13 13 14 15 15 16 16 16 17 17 18 18 19
4 3 3 2 2 1 1 1 2 2 2 3 3 3 3 3 3 4 4 4 4 5 6 6 7 8 8 9 9 10 11 11 12 13 13 14 15 15 16 17 17 18 18 19 19 19 20 20 21
6 5 4 4 3 3 3 3 4 4 4 4 4 5 5 5 5 6 6 6 6 6 7 8 8 9 10 11 11 12 12 13 14 15 16 16 17 18 18 19 19 20 20 21 21 22 22 23 23
8 7 6 6 6 6 6 6 6 6 6 6 7 7 7 7 8 8 8 9 9 9 9 10 10 11 11 12 13 13 14 15 16 17 18 18 19 20 20 21 22 22 23 23 24 24 25 25 26
11 10 9 8 8 8 8 8 7 7 8 8 9 9 9 10 10 11 11 11 11 11 11 12 12 13 13 14 15 15 16 17 18 19 19 20 21 22 22 23 24 25 25 26 26 27 27 28 28
14 13 11 10 10 10 10 9 9 9 9 10 10 11 11 12 12 13 13 13 13 13 13 14 14 15 16 16 17 17 18 19 19 20 21 21 22 23 24 25 26 27 27 28 28 29 29 30 30
16 15 14 13 13 12 12 12 11 11 11 12 12 12 13 13 14 14 15 15 15 16 16 16 17 17 18 18 19 19 20 20 21 21 22 23 24 25 26 26 27 28 29 29 30 30 31 31 32
18 17 17 16 15 15 15 14 14 14 14 14 14 14 15 15 16 16 17 17 18 18 18 19 19 19 19 20 20 21 21 22 22 23 24 24 25 26 27 27 28 29 29 30 30 31 31 32 32
20 20 20 19 19 18 17 17 17 17 17 17 17 17 17 17 18 18 19 19 20 20 20 21 21 21 21 22 22 22 23 23 24 24 25 26 27 27 28 29 29 30 30 31 31 32 32 33 33
23 22 22 22 22 20 20 20 20 20 20 20 20 19 19 19 20 20 21 21 22 23 23 23 23 23 23 23 23 23 24 24 25 25 26 26 27 28 29 29 30 30 31 31 32 32 33 34 34
26 25 25 24 24 23 23 22 22 22 22 22 22 22 22 22 22 22 22 23 24 24 25 25 24 24 25 25 25 25 25 26 26 26 26 28 29 29 30 30 31 31 31 32 32 33 34 35 35
27 27 27 27 27 27 26 24 24 24 24 24 24 24 24 24 24 25 25 25 25 26 26 26 26 26 26 26 26 26 26 27 27 27 28 29 30 30 31 31 31 31 32 33 33 34 35 35 36
29 28 28 29 29 29 28 26 27 26 26 26 26 26 27 26 26 27 27 27 27 27 27 27 27 27 27 27 27 27 27 28 28 29 29 30 30 30 31 31 32 32 33 34 34 35 36 37 37
30 30 29 30 31 31 30 27 29 28 27 27 28 28 29 28 28 28 28 28 28 28 28 28 28 28 28 28 28 28 28 29 30 30 30 30 30 31 31 32 33 33 34 35 35 36 37 38 39
31 32 31 31 32 32 31 29 30 31 30 29 29 29 30 30 29 30 29 29 29 29 29 29 29 29 29 29 29 29 30 30 30 30 30 31 31 32 32 33 34 34 35 36 37 38 39 40 40
33 33 32 31 34 34 32 30 30 32 31 30 30 30 30 30 30 30 30 29 30 30 30 29 30 30 30 30 30 31 31 31 31 31 31 32 32 33 34 34 35 36 37 38 39 40 41 41 42
33 32 32 32 35 36 33 30 29 31 32 31 30 30 31 31 31 30 30 30 30 30 31 31 31 31 31 31 31 31 31 31 31 32 32 32 33 34 35 36 37 38 39 40 40 41 42 43 44
33 33 33 34 35 36 36 31 28 30 32 31 30 30 31 31 31 31 31 31 31 31 31 31 31 32 32 32 32 32 32 32 32 32 33 34 35 35 36 37 38 39 40 41 42 43 44 44 46
33 33 35 35 35 35 35 34 25 29 30 31 31 31 31 31 31 31 31 31 31 31 31 32 32 32 32 32 32 32 32 33 33 34 34 35 36 37 38 39 40 41 42 43 44 45 45 46 47
35 35 36 35 35 35 33 36 26 27 29 30 31 31 31 31 30 30 30 31 31 31 32 32 32 33 33 32 33 33 33 33 34 35 36 37 38 39 40 41 42 43 44 45 46 46 47 48 48
36 36 37 37 36 35 32 35 31 27 28 29 31 31 31 31 30 30 30 31 31 32 32 33 33 33 33 33 33 33 33 34 35 36 37 38 39 41 42 43 44 45 46 47 47 48 49 49 50
35 35 37 37 37 36 34 34 32 28 28 29 30 31 30 30 30 29 30 30 31 31 32 33 33 33 33 33 33 34 34 35 36 37 38 40 41 43 44 45 46 47 48 48 49 49 50 51 52
35 36 37 38 38 37 36 35 30 29 29 29 30 30 30 30 29 29 29 30 31 31 32 33 33 33 33 33 34 35 36 37 38 39 40 42 43 45 46 47 48 48 49 49 50 51 51 52 53
35 36 36 39 40 39 37 34 29 28 28 29 29 29 30 29 29 29 29 30 31 32 33 33 33 34 34 34 35 36 37 38 40 41 42 44 45 46 47 48 49 49 50 51 51 52 53 54 54
36 36 37 39 41 41 38 34 30 27 28 28 29 29 29 29 29 29 29 31 32 32 33 33 34 34 35 35 36 38 39 40 42 43 44 45 47 47 48 49 50 51 51 52 53 54 54 55 56
36 37 37 38 40 40 39 34 30 28 28 28 29 29 29 29 29 29 30 31 32 32 33 34 34 35 36 37 38 39 41 42 43 44 46 47 48 49 49 50 51 52 53 54 54 55 56 56 57
37 37 36 38 38 39 40 35 29 28 28 29 29 30 30 30 30 30 31 31 32 32 33 34 35 36 37 38 39 41 42 43 45 46 48 49 49 50 51 52 53 54 54 55 56 56 57 58 59

GEFSSGP_500_meanwind_126.txt.gz
Wind_Speed
4 4 4 4 4 4 4 4 4 4 4 5 5 5 6 6 6 6 6 7 7 7 8 9 9 10 10 11 11 11 12 12 13 13 13 13 14 14 14 14 14 14 14 15 15 15 15 14 15
2 3 3 4 4 4 4 4 3 3 3 4 5 5 5 5 5 6 6 7 7 8 8 9 9 10 10 11 11 11 11 12 12 13 13 13 13 13 13 13 13 13 13 14 14 14 14 14 15
3 3 3 4 4 4 4 4 3 3 3 3 4 5 5 5 5 6 6 7 7 8 9 9 10 10 10 10 11 11 11 12 12 12 12 12 12 13 13 13 13 13 14 14 15 15 15 16 16
3 3 3 4 4 4 4 4 4 3 3 3 3 4 5 5 6 6 7 7 7 8 8 8 9 9 10 10 10 11 11 11 12 12 13 13 13 14 14 14 15 15 15 16 16 17 17 18 18
5 4 4 4 4 4 5 5 4 4 4 4 4 4 5 5 6 6 7 7 7 8 8 8 8 9 10 10 11 11 12 12 13 14 14 15 15 16 16 16 17 17 18 18 18 19 19 19 20
7 6 6 5 5 5 5 5 5 5 5 5 6 6 6 6 6 7 7 7 8 8 8 9 9 10 10 11 12 13 13 14 15 15 16 16 17 18 18 18 18 19 19 19 20 21 21 22 22
10 9 8 8 7 7 7 7 7 7 7 7 7 8 8 8 8 8 8 9 9 9 10 11 11 12 12 13 14 15 15 16 16 17 18 18 18 19 19 19 20 20 21 21 22 22 23 24 24
13 12 11 10 10 9 9 9 8 9 9 9 9 10 10 10 10 10 10 11 11 12 12 13 13 14 15 15 16 16 17 18 18 19 19 19 20 20 20 21 21 22 22 23 24 24 25 25 26
16 15 14 13 12 12 11 11 11 11 11 11 11 12 12 12 12 12 13 13 13 13 14 15 15 16 16 17 18 18 19 19 20 21 21 21 21 21 22 22 23 23 24 24 25 25 26 26 27
19 18 17 16 15 14 14 13 13 13 13 13 13 14 14 14 14 14 15 15 15 16 16 16 17 17 18 19 19 20 21 21 22 22 22 23 23 23 24 24 24 25 25 26 26 26 27 27 28
21 20 19 18 18 17 16 16 15 15 15 15 15 16 16 16 17 17 17 17 18 18 18 18 19 19 20 21 21 22 22 22 23 23 24 24 25 25 25 26 26 26 27 27 27 28 28 28 29
23 22 22 21 20 19 19 18 18 18 18 18 18 18 18 18 19 19 19 19 20 20 20 21 21 21 22 22 23 23 24 24 24 25 25 25 26 26 26 26 27 27 28 28 28 29 29 29 30
25 24 24 23 23 21 21 20 20 20 20 20 20 20 20 20 21 21 22 22 22 22 22 23 23 23 24 24 25 25 25 26 26 26 26 27 27 27 27 28 28 29 29 29 29 30 30 30 31
27 27 27 26 26 24 23 23 23 23 23 22 22 22 22 23 23 24 24 24 25 25 25 25 25 25 26 26 26 27 27 27 27 27 27 28 28 28 28 29 29 30 30 30 30 31 31 31 32
29 29 29 28 28 27 27 26 26 26 25 25 25 25 25 25 25 25 26 26 27 27 27 27 27 27 27 27 27 28 28 28 28 28 29 29 29 29 30 30 31 31 31 31 32 32 32 33 34
31 30 30 29 30 29 29 27 28 28 28 27 27 27 27 27 27 27 27 28 28 28 28 28 28 28 28 28 29 29 29 29 29 29 30 30 30 31 31 32 32 32 32 33 33 33 34 35 35
32 31 31 32 32 31 30 28 30 30 29 29 30 30 29 29 29 29 29 29 29 29 29 29 29 29 29 29 29 30 30 30 30 30 31 31 31 32 32 32 32 33 33 33 34 34 35 35 36
32 32 32 33 34 33 32 29 30 32 31 30 31 31 30 30 30 30 30 30 30 30 30 30 30 30 30 30 30 30 30 30 30 31 31 31 32 32 33 33 33 33 34 34 35 35 35 36 37
34 33 33 34 35 35 33 31 30 33 33 32 32 32 31 31 31 31 31 31 31 31 31 31 30 30 31 31 31 31 31 31 31 31 31 31 32 32 33 33 34 34 35 35 36 36 37 37 38
34 34 33 34 35 36 34 32 30 33 34 34 33 33 33 32 32 32 32 31 31 31 31 31 31 31 32 31 31 31 31 31 32 32 32 32 32 33 33 34 34 35 36 36 37 37 38 39 40
34 33 33 34 35 36 35 32 29 31 33 34 33 33 33 33 32 32 32 31 31 31 31 31 32 32 32 31 31 31 31 31 32 32 32 33 33 34 34 35 36 36 37 37 38 39 40 41 42
34 33 33 34 35 35 35 33 26 29 30 32 33 33 33 32 32 32 32 31 31 32 32 32 32 31 31 31 31 32 32 32 32 33 33 34 34 35 36 36 37 37 38 39 40 41 42 43 43
34 34 34 35 35 35 33 34 28 27 29 31 32 32 32 32 32 32 32 32 32 32 32 32 32 32 32 32 32 32 32 32 33 33 34 34 35 36 37 37 38 38 39 41 42 43 43 44 44
34 34 35 35 36 36 32 33 30 27 28 30 32 32 32 33 32 32 32 32 32 32 32 32 32 32 32 32 32 32 33 33 33 34 35 35 36 37 38 38 39 40 41 43 43 44 45 45 46
35 34 35 36 36 36 33 33 30 28 29 30 31 31 32 32 33 32 32 32 32 32 32 32 32 32 32 32 32 32 33 33 34 35 36 36 37 38 39 39 41 42 43 44 45 46 46 47 48
35 36 36 37 37 36 34 33 29 28 28 30 30 31 31 32 32 32 32 32 32 32 32 32 32 32 32 32 33 33 34 34 35 36 37 37 38 39 40 41 42 43 44 45 46 47 48 48 49
37 37 36 37 38 37 36 32 28 27 29 30 30 31 31 31 32 32 32 31 31 32 32 32 32 32 32 33 33 34 34 35 36 37 37 39 40 41 42 43 44 44 45 47 48 48 49 50 51
37 36 37 38 39 38 36 32 29 27 28 30 31 31 31 31 31 31 31 31 32 32 32 32 32 33 33 33 34 34 35 35 36 37 38 39 41 42 43 44 45 46 47 48 49 50 51 51 52
37 37 38 38 39 39 38 35 30 29 29 30 31 32 32 31 31 31 31 32 32 32 33 33 33 33 34 34 34 35 35 36 37 38 39 41 42 44 45 45 46 47 49 50 51 51 52 53 53
39 38 38 39 39 39 40 38 32 31 31 32 33 33 32 32 32 31 31 32 32 32 33 33 34 34 35 35 35 35 36 37 39 40 42 43 44 45 46 47 48 49 50 51 52 52 53 54 55

GEFSSGP_500_meanwind_132.txt.gz
Wind_Speed
4 4 4 5 6 6 5 5 6 6 6 5 6 6 6 5 5 5 6 6 6 7 7 8 9 9 9 10 10 11 12 12 12 12 13 13 13 13 13 13 13 13 13 13 13 13 13 13 13
4 4 5 5 5 5 5 5 5 5 5 6 6 6 5 5 5 5 6 6 6 7 7 8 9 10 10 10 11 11 12 12 12 12 12 12 12 12 13 13 13 14 14 14 14 14 14 15 15
6 6 5 5 6 5 5 5 5 5 5 5 6 5 5 5 5 5 6 6 7 7 8 9 9 10 10 10 11 11 11 11 11 12 11 12 12 12 13 14 14 15 15 15 16 16 16 17 17
8 7 7 7 6 5 5 6 5 5 5 5 6 6 6 6 6 6 7 7 8 8 9 10 10 10 10 10 10 11 11 11 11 12 12 12 13 14 15 15 16 16 16 17 17 18 18 19 19
10 10 9 9 8 7 7 7 7 7 6 6 6 6 6 7 7 8 8 8 9 9 10 10 10 10 10 11 11 11 12 12 12 13 14 14 15 16 16 16 17 18 18 18 18 19 20 20 21
13 12 11 10 10 9 9 9 8 8 8 8 7 7 7 8 8 8 9 10 10 10 10 10 10 11 11 11 12 12 13 13 14 15 16 16 17 17 17 18 18 19 19 19 20 21 21 22 23
15 14 13 12 12 11 11 11 10 10 10 9 9 9 8 9 9 9 10 11 11 11 11 12 12 12 13 13 13 14 15 15 16 17 17 17 18 19 19 19 20 20 21 21 22 23 23 24 24
17 17 15 14 14 13 13 13 12 12 12 11 11 11 9 11 11 11 12 12 12 13 13 13 14 14 15 15 16 16 17 17 18 18 19 19 20 20 20 21 21 22 22 23 24 25 25 25 26
20 19 18 17 17 16 15 15 14 14 14 13 13 13 12 13 13 13 14 14 14 14 14 15 15 16 17 17 18 18 19 19 19 20 20 21 21 21 22 22 23 24 24 25 26 26 26 27 27
23 22 21 20 19 18 17 17 17 16 16 16 16 16 15 15 16 16 16 16 17 17 17 17 17 18 19 19 20 20 20 21 21 22 22 22 23 23 23 24 25 25 26 26 27 27 27 28 28
26 25 24 23 21 21 20 20 19 19 19 19 19 18 18 18 18 19 19 19 19 19 19 20 20 20 21 21 22 22 22 23 23 24 24 24 25 25 25 26 26 27 27 27 28 28 28 29 29
28 27 26 25 24 23 23 22 22 21 21 21 21 21 20 20 21 21 21 21 22 22 22 23 23 23 23 23 24 24 25 25 25 26 26 26 27 27 27 28 28 28 28 29 29 29 30 30 31
30 29 28 27 27 26 25 25 24 23 23 23 23 23 22 22 23 23 23 23 24 24 25 25 25 25 25 26 26 26 27 27 27 27 28 28 28 28 29 29 29 30 30 30 30 31 31 31 31
32 31 30 30 29 28 28 27 26 25 26 25 25 25 25 24 25 25 25 26 26 26 26 27 28 28 28 28 28 28 28 29 29 29 29 29 30 30 30 31 31 31 31 31 32 32 32 33 33
34 33 32 31 31 30 30 29 29 28 28 27 27 27 27 27 27 27 27 28 28 28 28 28 29 29 30 30 30 30 30 30 30 30 31 31 31 31 31 32 32 32 32 33 33 33 33 33 33
35 35 34 32 32 32 32 30 31 30 30 29 29 29 29 29 29 29 29 29 30 29 29 30 30 31 31 31 31 31 31 31 32 32 32 32 32 32 32 32 33 33 34 34 34 34 34 34 34
36 35 35 34 34 33 33 31 32 31 31 30 31 31 31 31 31 31 31 30 31 31 31 31 31 31 32 32 32 32 32 32 33 33 33 33 33 33 33 33 33 34 34 34 34 34 35 35 34
35 35 36 36 35 35 34 33 32 33 32 32 32 32 33 33 32 32 32 32 32 32 32 32 32 32 32 32 32 32 33 33 33 33 33 33 33 33 33 34 34 34 34 35 35 35 35 35 35
36 36 36 36 36 35 35 34 33 33 34 34 34 34 34 34 34 33 33 33 33 33 33 33 33 33 33 33 33 33 33 33 34 34 34 33 33 34 34 34 34 35 35 35 35 36 36 36 36
37 37 36 37 36 36 36 35 34 34 35 36 35 35 35 35 35 34 33 34 33 33 34 34 34 34 34 34 34 34 34 34 34 34 34 34 34 34 35 35 35 35 35 36 36 37 38 38 38
37 37 36 37 37 37 37 35 34 34 35 36 36 36 35 35 35 34 33 34 34 34 34 34 34 34 34 35 35 35 35 35 35 35 34 35 35 35 35 35 35 35 36 37 38 38 38 39 39
37 36 36 36 37 36 37 36 33 33 34 35 35 35 35 35 35 34 34 34 34 34 34 34 34 35 35 35 35 35 35 35 35 35 35 35 35 35 35 36 36 36 37 38 38 39 39 40 41
36 36 36 36 37 37 36 37 33 32 33 33 35 35 34 34 35 35 34 34 34 34 34 34 35 35 35 35 35 35 35 35 35 35 35 35 35 36 36 37 37 37 38 39 40 40 41 42 42
37 37 36 36 37 38 34 36 34 31 31 32 34 35 34 34 35 35 35 34 34 34 34 35 35 35 35 35 35 35 36 36 36 35 36 35 36 36 37 37 38 39 40 40 41 42 42 43 44
38 37 36 37 38 38 34 36 35 32 30 31 32 33 34 34 34 34 34 34 34 34 35 35 35 36 36 36 36 36 36 36 36 36 36 36 37 37 38 39 39 40 41 41 42 43 44 44 45
39 38 38 38 37 37 37 38 35 32 29 30 31 32 33 33 34 34 34 33 34 34 35 35 35 36 36 36 36 36 36 36 36 36 37 37 37 38 39 40 41 41 42 43 43 44 45 46 47
39 39 37 38 39 39 40 39 36 33 31 31 32 32 32 33 33 33 33 33 33 34 34 34 34 35 35 36 36 36 37 37 37 37 38 38 38 39 40 41 43 44 44 44 44 46 47 48 48
39 39 39 40 40 40 40 39 37 35 34 32 32 32 32 32 32 33 33 33 33 33 33 33 34 34 35 35 36 36 37 38 38 38 39 39 39 40 42 43 44 45 45 45 46 47 48 49 49
39 40 40 40 40 41 41 39 37 36 34 33 33 33 32 32 32 33 33 34 34 34 33 34 34 35 35 36 36 37 37 38 39 39 39 40 41 42 43 43 44 45 46 46 47 49 49 50 50
40 40 40 41 40 40 40 39 36 36 34 34 33 33 32 32 33 33 33 33 33 34 34 34 34 35 36 36 37 37 38 38 39 39 40 41 42 42 43 44 45 46 47 48 49 50 50 51 51

GEFSSGP_500_meanwind_138.txt.gz
Wind_Speed
8 8 8 8 7 7 7 7 7 8 8 8 7 7 7 7 7 6 6 5 4 4 5 5 6 6 7 7 8 8 9 9 10 11 11 12 12 12 12 12 13 13 13 14 14 15 15 15 15
9 9 8 8 7 6 6 6 7 7 7 7 7 7 7 7 6 6 6 5 4 4 4 4 5 5 6 7 8 8 9 10 11 11 11 12 12 12 13 13 13 14 15 15 16 16 16 16 16
10 10 9 8 7 7 7 6 7 7 7 7 7 7 6 6 6 5 5 5 4 4 4 4 5 5 6 7 8 8 9 10 11 11 12 12 12 13 13 14 15 15 16 16 17 17 17 18 18
12 11 10 9 8 8 7 7 7 7 7 6 7 6 6 5 5 5 5 5 4 4 5 5 5 6 6 7 7 8 9 10 11 11 12 12 13 14 15 15 16 17 17 17 18 18 19 19 20
15 14 12 11 10 9 8 8 7 7 6 6 6 7 6 5 5 5 5 5 4 4 5 6 7 7 7 8 8 9 9 10 11 12 13 13 14 15 16 17 17 18 18 18 19 20 20 21 21
17 16 15 13 12 11 10 9 8 8 7 7 6 7 7 6 6 5 6 6 5 5 6 7 8 8 9 9 10 10 11 11 12 13 14 15 16 17 18 18 19 19 19 20 20 21 22 22 23
19 18 17 16 14 13 12 11 10 9 8 8 7 7 7 7 6 6 7 7 7 7 7 8 9 10 10 11 11 12 13 13 14 15 16 17 18 19 19 20 20 20 21 21 22 23 23 24 24
22 21 19 17 16 15 14 13 12 11 10 9 8 8 8 8 8 8 8 9 9 9 9 10 11 11 11 12 13 14 14 15 16 17 18 19 20 20 21 21 21 22 22 23 24 24 25 25 26
24 23 21 19 18 17 16 15 14 13 12 11 10 10 10 10 10 9 10 10 11 11 11 12 12 13 13 14 14 15 16 17 18 19 20 20 21 22 22 22 23 23 24 25 25 26 26 27 27
27 25 22 21 20 19 18 17 16 15 14 13 12 11 11 11 11 11 11 12 13 13 14 14 14 15 15 16 17 18 19 19 20 20 21 22 23 23 24 24 24 25 25 26 26 27 27 28 29
29 27 25 24 23 21 21 20 19 17 16 15 14 14 13 13 13 13 13 14 15 15 16 16 17 17 18 18 19 20 21 21 22 22 23 24 24 25 26 26 26 26 27 27 28 28 29 29 30
31 30 29 27 25 24 23 23 21 20 19 19 17 16 16 15 15 16 16 16 16 17 18 18 19 19 20 21 22 22 23 23 24 24 25 25 26 26 27 27 27 28 28 29 29 29 30 30 30
34 32 31 30 29 27 26 25 24 23 22 21 20 19 19 18 18 19 18 18 18 19 19 20 21 21 23 24 24 25 25 26 26 26 27 27 27 27 28 28 29 29 30 30 30 31 31 31 31
35 34 33 32 31 30 29 28 26 25 25 24 23 22 21 21 21 20 20 20 21 21 21 21 22 23 24 25 26 27 27 28 28 28 28 29 29 29 29 30 30 30 31 31 31 32 32 33 33
38 37 35 33 32 32 32 31 29 28 28 27 26 25 24 23 22 22 22 22 22 23 23 23 24 25 26 26 27 28 28 29 29 30 30 30 30 30 30 31 31 32 32 32 32 33 33 34 35
40 39 37 35 34 33 34 32 31 31 30 29 28 27 26 25 24 24 24 24 24 25 25 26 26 27 27 27 28 28 29 30 30 31 30 31 31 31 31 32 32 33 33 33 33 34 34 34 35
41 40 37 36 36 36 36 34 33 32 31 30 29 29 28 28 27 26 26 26 26 27 27 28 28 28 29 29 29 29 30 30 31 31 31 31 31 32 32 32 33 34 34 34 35 35 35 35 35
40 39 38 37 36 37 37 35 34 33 32 31 31 31 30 29 29 28 28 28 29 29 30 30 30 30 30 30 30 30 30 30 31 32 32 32 32 33 33 33 34 34 35 35 36 36 36 36 36
40 40 40 38 38 38 38 37 36 35 34 33 32 32 32 31 31 30 30 30 31 31 31 31 31 31 31 31 30 30 30 31 32 32 33 33 33 33 34 34 35 35 36 36 36 36 37 37 37
41 41 40 39 39 38 38 37 36 35 34 34 33 32 32 32 31 31 32 32 32 32 31 31 31 31 31 31 31 31 31 32 33 33 33 34 34 34 35 36 36 36 37 37 37 37 37 38 37
40 39 38 38 38 39 39 38 37 35 35 34 34 33 33 32 32 32 32 32 32 32 32 31 31 31 31 32 33 33 33 33 34 34 34 34 34 35 36 36 37 37 38 38 38 38 38 38 39
40 38 37 37 38 38 38 38 35 35 35 34 33 33 33 33 32 32 32 32 32 32 31 31 31 32 32 33 33 33 33 34 34 34 34 35 35 36 36 37 37 38 38 39 39 39 39 39 40
39 37 37 37 38 39 38 39 35 34 33 32 33 33 33 32 32 32 31 31 32 32 31 32 32 32 33 33 34 34 34 35 35 35 35 35 36 36 37 37 37 38 39 39 40 40 40 40 41
41 39 39 39 39 40 37 38 37 32 31 31 32 32 32 32 32 31 31 31 31 31 31 32 32 32 33 34 34 34 34 35 35 35 35 36 36 36 37 38 38 38 39 40 40 40 41 41 42
44 42 41 41 42 40 36 38 37 31 30 31 31 31 32 32 32 32 32 32 32 32 32 32 32 32 32 33 33 34 34 35 35 35 35 36 36 36 37 38 38 39 40 40 41 41 41 41 42
44 43 43 42 41 39 38 38 35 32 31 30 30 30 31 30 30 30 31 31 31 31 31 32 32 32 32 32 33 33 34 34 35 35 35 36 36 37 37 38 39 39 40 41 41 41 41 42 44
45 44 42 42 41 41 40 38 35 33 31 29 29 29 29 29 29 29 29 30 30 31 31 31 31 32 32 33 33 33 34 34 34 35 35 36 36 37 38 39 39 40 40 41 41 41 43 44 45
46 44 44 44 43 42 41 38 34 32 30 29 28 28 28 28 28 28 28 29 29 30 31 31 32 32 33 33 33 33 34 34 35 35 35 36 37 38 38 39 40 40 40 41 42 43 44 45 46
46 46 45 44 43 42 41 36 32 30 29 29 28 28 28 27 28 28 29 29 29 30 30 31 31 32 32 32 33 33 34 34 34 35 35 36 37 38 38 39 40 40 41 41 42 43 45 46 47
45 45 44 44 42 40 39 36 32 31 30 29 28 28 28 28 28 29 29 29 29 29 30 30 31 31 31 32 32 33 33 34 34 34 35 36 36 37 38 38 39 40 41 42 43 44 45 46 46

GEFSSGP_500_meanwind_144.txt.gz
Wind_Speed
11 11 11 10 10 9 9 9 10 9 9 10 10 10 10 9 9 9 9 8 8 7 6 6 6 6 6 6 7 7 8 8 8 8 9 9 9 10 11 11 12 12 13 13 14 14 14 15 15
12 12 11 11 10 9 9 9 10 9 9 9 10 10 10 9 9 9 9 8 8 7 6 6 5 6 6 7 7 8 8 8 8 8 9 9 10 11 12 12 13 13 13 14 15 15 16 16 17
14 13 12 11 10 10 9 10 10 9 9 9 9 10 10 10 9 9 8 8 8 7 6 6 6 7 7 7 7 7 7 8 8 9 9 10 11 12 12 13 13 14 15 16 16 17 17 18 18
16 16 14 13 12 10 10 10 10 9 9 9 9 9 9 9 9 9 8 8 8 7 7 6 6 6 7 7 7 7 7 8 8 9 10 10 12 12 13 13 14 16 16 17 18 18 19 19 20
19 18 17 15 13 12 12 11 10 10 10 9 9 9 9 9 9 8 8 8 7 7 7 6 6 6 6 7 7 8 8 9 10 10 11 12 13 13 14 15 16 17 18 19 19 19 20 21 21
21 20 19 17 15 14 13 13 12 11 11 10 10 10 9 9 9 8 8 7 7 7 7 7 7 7 7 8 8 9 10 11 11 12 12 13 14 15 16 17 18 19 20 20 21 21 22 22 23
24 23 21 19 18 17 16 15 14 13 12 11 11 11 10 10 10 9 9 8 8 8 8 8 8 8 9 9 10 11 11 12 13 13 14 15 16 17 18 19 20 21 21 22 22 23 23 24 24
26 26 24 22 20 19 18 17 16 15 14 13 12 12 12 11 11 11 11 10 10 9 9 9 9 10 10 11 12 12 13 13 14 15 16 17 18 19 20 21 21 22 23 23 24 24 25 25 25
29 28 26 23 22 21 20 19 18 17 16 15 14 13 13 13 13 12 12 12 11 11 11 11 11 11 12 12 13 14 14 15 16 17 18 19 20 20 21 22 23 23 24 25 25 26 26 26 27
31 30 27 25 24 23 23 22 21 19 18 17 16 15 15 14 14 14 13 13 13 13 13 13 13 14 14 15 15 16 17 17 18 19 20 21 22 22 23 24 24 25 25 26 26 27 27 28 29
33 31 29 28 27 26 25 24 23 22 20 19 18 17 16 16 15 15 15 15 15 15 15 16 16 16 16 17 17 18 19 19 20 21 22 23 23 24 25 25 26 27 27 28 28 28 29 30 30
35 33 32 31 30 29 28 27 26 24 22 22 20 19 18 17 17 17 17 17 17 17 17 18 18 18 18 18 19 20 21 21 22 23 24 24 25 26 27 27 28 28 28 29 29 30 31 31 32
38 36 34 33 33 32 30 29 28 26 24 24 23 21 20 20 19 18 18 18 19 19 19 19 20 20 20 21 21 22 22 23 24 25 26 26 27 28 28 29 29 29 30 30 30 31 32 32 33
39 38 37 36 35 34 33 31 30 27 27 26 25 24 23 22 21 20 20 20 20 21 21 21 21 22 23 23 24 24 25 25 26 27 27 28 29 29 29 29 30 30 31 31 32 33 33 34 34
42 41 40 38 37 35 35 34 31 29 30 28 27 26 25 24 23 22 22 22 22 22 22 23 23 24 24 25 26 26 27 28 28 28 29 29 29 30 30 30 31 31 32 33 34 34 35 35 35
45 44 42 39 39 37 38 34 31 32 32 30 29 28 27 26 25 25 24 24 23 23 24 24 25 25 26 27 27 28 29 29 30 30 30 30 30 31 31 32 33 33 34 34 34 35 36 36 36
48 46 43 41 41 40 39 36 33 34 33 32 31 30 29 28 27 26 26 25 25 25 26 26 26 26 27 28 29 29 30 31 31 31 31 31 31 32 33 33 34 34 35 35 36 36 37 37 38
48 46 44 43 42 42 41 38 36 36 35 34 33 32 30 29 28 28 27 27 27 27 27 27 27 28 29 30 30 31 31 32 32 32 32 32 32 33 34 34 35 35 35 36 37 38 38 38 39
48 47 45 43 43 43 43 41 39 38 37 36 34 33 32 31 30 30 29 29 29 29 29 29 29 29 30 31 31 32 32 32 32 32 32 33 33 34 35 35 36 36 36 37 38 39 39 39 39
49 48 46 45 44 45 45 43 42 40 39 37 36 35 34 33 32 32 32 31 31 30 30 30 31 31 32 32 32 32 32 33 33 33 34 34 35 35 36 36 36 37 37 38 38 39 39 40 40
50 48 46 45 45 46 46 46 44 41 40 39 38 36 35 34 34 34 33 32 32 32 31 32 32 32 32 32 33 33 33 33 33 34 35 35 36 36 36 36 37 37 38 38 39 40 40 40 40
49 47 46 45 46 46 47 48 44 42 41 40 38 37 36 36 35 34 34 33 33 33 33 33 33 33 33 33 33 34 34 34 34 35 35 36 36 36 36 37 37 37 38 39 40 40 40 40 40
48 46 47 47 47 48 47 49 45 43 41 39 37 37 36 36 36 35 35 34 34 34 34 34 34 34 34 34 34 34 35 35 35 36 36 36 37 37 37 37 37 38 39 39 40 40 40 40 40
48 47 47 47 48 50 47 48 47 42 39 37 37 37 36 36 36 35 35 35 35 35 34 34 33 34 34 34 34 35 35 35 35 36 36 36 37 37 37 37 38 38 39 39 40 40 40 40 41
49 47 47 48 50 50 46 48 47 39 37 36 36 37 37 36 35 35 35 35 35 34 34 33 33 33 34 34 35 35 35 35 35 36 36 36 37 37 37 38 38 39 39 39 40 40 40 41 41
49 48 48 49 49 47 47 48 44 38 36 35 35 35 36 35 35 35 34 34 34 34 33 33 33 33 33 34 34 34 34 35 35 36 36 36 36 37 38 38 38 39 39 39 40 40 41 41 41
50 49 47 47 47 47 47 45 42 38 35 34 34 34 34 34 33 34 33 33 33 33 33 33 33 33 33 34 34 33 34 34 35 35 35 35 36 37 38 38 38 38 39 40 40 40 41 41 42
51 49 49 49 49 48 47 45 41 37 34 33 33 33 33 33 33 33 33 33 33 33 32 33 33 33 34 33 33 33 34 34 34 35 35 36 36 37 37 38 38 39 40 40 41 40 41 41 42
51 52 51 50 50 49 47 43 38 34 32 32 32 32 33 33 33 32 32 32 32 32 32 32 33 33 33 33 33 33 34 34 35 35 35 36 36 36 36 37 38 39 39 40 40 40 41 42 42
51 51 51 51 50 49 47 43 37 34 32 30 31 31 32 32 33 32 32 32 32 32 32 32 33 33 33 33 33 33 34 34 34 35 35 35 36 36 37 38 38 39 39 40 40 41 41 42 43

GEFSSGP_500_meanwind_150.txt.gz
Wind_Speed
16 16 16 16 15 14 14 13 13 14 14 13 13 13 13 13 13 13 13 13 12 12 11 10 10 9 9 8 8 8 8 8 8 8 8 7 7 7 7 8 9 9 10 11 12 13 13 14 14
18 18 17 17 16 15 15 14 14 14 14 13 13 13 13 13 13 13 13 12 12 12 11 10 10 9 8 8 8 8 8 8 8 8 7 7 7 8 8 9 10 11 12 12 13 14 14 15 16
19 19 19 18 17 16 16 16 15 15 14 14 13 13 13 13 13 13 13 13 12 12 11 10 9 9 8 8 8 8 8 7 7 7 7 7 8 8 9 10 11 12 13 14 15 15 16 17 17
21 21 21 20 18 18 17 16 16 15 15 14 14 14 13 13 13 13 13 13 12 11 11 10 9 9 8 8 7 7 6 6 7 7 7 8 9 10 11 12 12 13 14 15 16 17 17 18 19
23 23 22 21 20 19 19 18 17 16 16 15 15 14 14 14 14 14 14 13 13 12 11 10 9 9 8 7 7 7 7 7 7 8 9 10 11 12 12 13 14 15 16 17 18 18 19 19 20
25 24 24 22 21 21 20 19 18 17 16 16 15 15 14 14 14 14 14 13 13 12 11 10 9 9 8 7 7 7 8 8 9 10 11 12 13 14 14 15 16 17 18 19 19 19 20 21 22
27 27 26 24 23 23 22 21 20 19 18 17 16 16 15 15 14 14 14 14 13 13 12 11 10 9 8 8 8 8 9 10 11 12 12 13 14 15 16 17 18 18 19 20 21 21 22 23 23
29 29 28 26 25 24 24 23 22 20 19 18 18 17 16 16 15 15 15 15 14 14 13 12 11 10 10 10 10 10 11 11 12 13 14 15 16 17 17 18 19 20 21 21 22 23 24 24 25
32 32 30 28 26 26 26 25 24 23 22 20 19 19 18 17 16 16 15 16 15 15 14 13 12 12 11 11 11 12 12 13 14 14 15 16 17 18 20 20 21 22 23 23 24 24 25 26 26
35 33 30 29 29 28 28 28 27 25 24 23 21 20 20 19 18 17 17 17 16 16 15 14 14 13 13 13 13 14 14 15 16 16 17 18 19 20 21 22 23 24 24 25 25 26 27 27 27
38 35 32 31 31 31 31 30 29 28 26 25 24 23 22 21 20 19 18 18 18 17 16 16 15 15 15 15 15 16 16 16 17 18 19 20 20 22 23 24 24 25 26 26 27 27 28 28 29
40 37 35 34 33 33 33 33 32 30 29 28 27 25 24 23 22 21 20 19 19 18 18 17 17 17 17 17 17 17 18 18 19 20 20 21 22 23 24 25 26 26 27 27 27 28 29 30 30
43 40 38 37 36 35 35 35 34 32 31 30 29 27 26 25 24 23 22 21 20 20 19 19 19 18 18 19 19 19 19 20 20 21 22 23 24 25 26 27 28 28 28 28 29 29 30 31 32
45 43 42 40 39 38 37 36 36 33 33 32 30 29 28 27 26 25 24 23 22 21 21 20 20 20 20 20 20 21 21 22 22 23 24 25 26 27 28 28 28 29 29 29 30 31 31 32 33
48 46 45 43 41 40 39 38 36 35 35 34 32 31 30 29 28 27 26 25 24 23 22 22 22 22 22 22 22 22 23 23 24 25 26 27 28 28 29 29 29 29 30 31 32 32 33 33 34
50 49 48 45 44 42 42 40 37 37 37 36 34 33 33 31 30 29 28 27 25 24 24 23 23 23 23 23 23 23 24 24 25 26 27 28 28 29 29 30 30 31 31 32 33 33 33 34 34
54 51 48 46 46 45 44 41 39 39 38 37 36 35 34 34 32 31 30 29 27 26 26 25 24 24 24 24 24 25 25 26 27 27 28 29 29 30 30 31 31 32 32 33 34 34 34 34 34
54 52 50 48 47 46 46 43 41 41 40 39 38 37 36 35 34 33 32 31 29 28 27 26 26 26 26 26 26 26 27 27 28 28 29 30 30 30 31 31 32 32 33 33 34 34 34 35 35
53 53 52 49 48 48 48 46 43 43 42 40 39 39 37 36 36 35 34 33 31 30 29 28 28 27 27 27 27 28 28 29 29 29 30 30 31 31 32 32 32 33 33 34 34 35 35 35 36
55 53 52 51 50 50 50 49 46 45 44 42 41 40 38 38 37 36 35 34 32 31 31 30 30 29 29 29 29 29 29 30 30 30 30 31 32 32 33 33 33 34 34 34 34 35 35 36 36
56 54 52 51 51 52 52 51 49 47 45 44 43 41 40 38 37 37 36 35 34 33 32 31 31 30 30 30 30 29 30 30 31 31 31 32 33 33 33 33 34 34 35 35 35 35 36 36 36
56 54 52 51 52 53 54 54 51 49 47 45 43 42 40 39 39 38 37 36 35 34 33 32 32 31 31 30 30 30 31 31 32 32 32 33 33 33 34 34 34 35 35 35 36 36 36 36 36
55 54 53 53 52 54 54 56 52 51 48 45 44 43 42 41 40 40 39 38 37 36 34 33 33 32 32 32 32 32 32 32 32 33 33 33 33 34 34 34 35 35 35 36 36 36 36 36 36
54 54 54 53 54 56 54 55 54 51 47 45 44 44 42 42 41 40 39 38 38 37 35 34 34 33 33 33 33 33 33 33 33 33 33 33 34 34 34 35 35 35 35 36 36 35 35 35 36
55 54 53 54 55 56 53 55 55 50 46 45 44 43 42 42 41 41 39 38 38 37 36 35 35 34 33 33 33 33 33 33 33 33 33 34 34 34 35 35 35 35 35 35 35 35 35 35 36
55 55 55 53 55 55 54 55 53 48 46 44 43 42 42 42 41 41 40 38 38 37 37 36 36 35 34 33 33 33 33 33 33 33 33 34 34 34 35 36 36 35 35 34 34 35 35 36 36
54 55 53 52 52 52 54 53 51 48 44 43 42 42 41 41 41 40 40 39 37 37 36 36 35 34 34 33 33 33 33 33 33 33 34 34 34 34 35 35 35 35 35 34 35 35 35 36 36
53 52 52 52 51 50 51 51 49 46 43 42 42 42 42 41 40 40 39 38 37 36 35 35 35 34 34 33 33 33 33 33 33 34 33 33 34 34 35 35 35 35 35 35 35 35 36 36 36
53 52 53 53 52 49 49 49 47 44 42 41 40 40 41 41 41 40 39 37 36 36 35 35 34 34 34 33 33 33 33 33 33 33 34 34 34 34 34 35 35 35 35 35 35 35 36 37 37
52 52 52 53 53 50 48 48 45 42 40 40 39 40 40 40 40 39 38 37 36 36 35 35 34 34 34 33 33 33 33 33 33 33 34 34 34 35 35 35 35 35 35 35 35 36 37 37 38

GEFSSGP_500_meanwind_156.txt.gz
Wind_Speed
21 21 21 21 20 20 19 19 19 19 19 18 18 18 18 18 18 17 16 16 15 15 14 13 12 11 11 10 10 9 9 9 8 9 9 8 8 8 8 8 9 10 11 12 13 14 15 15 16
24 23 23 22 22 20 19 20 20 20 19 18 18 18 19 18 17 17 16 16 16 15 14 14 13 12 12 11 10 10 9 9 9 8 8 7 8 8 9 9 10 11 12 13 14 15 15 16 16
26 26 25 24 22 20 20 22 22 21 20 19 19 19 19 17 17 17 16 16 16 15 15 14 13 13 12 11 10 10 10 9 9 8 8 8 8 9 9 10 11 12 13 14 15 15 16 17 17
27 28 27 26 23 21 22 23 23 22 20 20 20 20 19 17 17 17 17 17 16 15 15 15 14 13 12 11 11 10 10 9 8 8 8 8 9 9 10 11 12 14 15 15 16 16 17 18 19
30 30 29 27 24 23 24 24 23 23 21 21 21 20 19 19 18 18 18 18 17 16 15 15 14 13 12 11 11 10 9 9 8 8 8 9 9 10 12 13 14 15 16 16 17 18 19 19 20
32 32 31 28 26 25 26 25 25 24 23 22 22 21 19 19 19 18 18 18 18 17 16 15 14 13 12 11 11 10 9 9 8 8 8 9 10 11 12 14 15 16 16 17 18 19 20 21 22
35 34 32 30 29 28 27 27 27 25 24 23 23 22 20 20 19 19 18 18 18 17 16 16 15 14 13 12 11 10 10 9 9 9 9 10 11 12 13 15 16 17 18 19 20 21 21 22 23
37 37 35 33 31 29 29 29 28 27 26 25 25 24 21 20 20 19 19 18 18 17 17 16 15 14 13 13 11 10 10 10 9 10 10 11 12 13 14 16 17 18 19 20 21 22 22 23 24
40 40 37 33 31 30 30 30 30 29 28 27 26 25 22 21 21 20 20 19 18 18 17 16 16 15 14 13 12 11 11 11 11 11 12 13 13 14 16 17 18 19 20 21 22 23 23 24 25
43 42 37 34 34 33 32 32 32 31 30 29 27 25 24 23 23 22 21 20 19 18 18 17 16 15 15 14 13 12 12 12 12 13 13 14 15 16 17 18 19 20 21 22 23 24 25 25 26
45 43 40 38 37 36 35 34 34 33 32 31 29 27 26 26 24 23 22 21 20 19 19 18 17 16 16 15 15 14 13 13 14 14 15 16 17 17 18 19 20 21 22 23 24 25 25 26 27
47 45 43 41 40 39 38 36 36 35 33 33 32 30 29 27 26 25 24 23 22 21 20 19 19 18 17 17 16 15 15 15 16 16 17 17 18 18 19 20 21 22 23 24 25 26 26 27 28
50 48 46 44 43 42 41 40 38 37 36 35 34 34 31 29 28 27 26 25 24 23 21 21 20 19 18 18 17 17 17 17 17 17 18 18 19 20 20 21 22 24 24 25 26 27 27 28 29
51 50 48 47 46 44 43 42 41 39 38 37 36 35 33 32 30 29 28 27 26 24 23 22 22 21 20 19 19 18 18 18 18 18 19 19 20 21 21 22 24 24 25 26 27 27 28 29 30
54 53 52 49 48 46 46 45 43 40 40 39 38 37 35 34 33 31 29 28 28 26 25 24 23 22 22 21 20 20 20 19 19 19 20 21 21 22 23 24 25 26 26 27 28 28 29 30 31
55 55 55 51 50 48 48 47 43 42 42 41 40 39 37 36 35 33 32 30 29 28 27 26 25 24 23 23 22 22 21 20 20 21 21 22 23 23 24 25 26 26 27 28 29 30 30 31 32
57 57 55 53 51 50 50 48 45 45 44 42 41 40 39 38 36 34 33 32 31 30 29 28 27 26 25 24 24 23 23 22 22 22 23 23 24 24 25 26 26 27 28 29 30 30 31 32 33
56 56 56 55 52 52 52 50 47 47 46 44 43 42 40 39 37 36 35 34 33 32 31 29 28 27 26 26 25 25 24 24 24 24 24 25 25 26 26 27 27 28 29 30 30 31 32 33 34
54 55 56 55 53 54 54 53 50 49 48 47 45 43 42 40 39 38 37 36 35 34 32 31 30 29 28 27 27 27 26 26 26 26 26 26 26 27 28 28 29 29 30 31 32 32 33 34 34
56 55 55 54 55 55 56 56 53 52 50 48 47 45 43 42 41 40 39 37 36 35 33 33 32 31 30 29 29 29 28 28 28 28 27 27 28 28 29 29 30 30 31 32 32 33 34 34 35
56 55 54 53 54 55 55 57 56 53 52 50 49 47 45 43 42 41 40 39 37 36 35 34 33 32 32 31 30 30 29 29 29 29 29 29 29 29 30 30 31 31 32 33 33 34 34 35 36
56 53 53 53 53 54 56 58 57 55 54 52 50 48 46 45 44 43 41 40 39 37 36 35 35 34 33 33 32 31 30 30 30 30 30 30 30 30 31 31 32 32 32 33 34 34 35 36 36
55 53 54 54 54 54 56 59 59 57 56 53 51 49 47 46 45 44 43 41 40 39 38 37 36 35 34 34 33 32 32 31 31 31 31 31 31 31 32 32 32 32 33 33 34 35 35 36 36
53 54 54 54 55 58 57 58 61 58 55 53 51 49 48 47 46 45 44 43 42 41 40 39 38 36 35 35 34 33 33 33 33 33 32 32 32 32 33 33 33 33 33 34 34 35 36 36 37
53 53 53 55 58 60 58 60 62 56 54 53 51 50 49 48 47 46 45 44 43 42 41 40 39 38 36 35 35 34 34 34 34 34 33 33 33 33 33 33 33 33 34 34 35 36 36 37 37
53 54 54 53 56 57 58 60 59 56 53 52 52 51 49 48 47 47 45 45 44 43 42 41 40 39 38 37 36 36 35 35 34 34 34 34 34 34 34 34 33 34 34 35 36 36 37 37 37
51 53 53 52 52 53 56 57 56 54 53 51 50 50 49 48 47 47 46 45 44 43 43 42 41 40 40 39 37 37 36 35 35 35 35 35 34 34 34 34 34 34 34 35 36 36 37 37 37
52 50 51 53 55 53 53 54 55 53 53 51 49 49 49 48 48 47 47 46 45 44 44 43 42 41 41 40 39 37 36 36 36 36 36 35 34 34 33 34 34 35 35 35 36 36 37 37 37
52 52 51 52 54 52 51 51 50 50 50 50 50 48 48 48 48 47 47 47 46 45 44 44 42 41 41 40 39 38 37 37 37 36 36 35 34 34 34 34 35 35 35 36 36 36 37 37 38
50 52 52 52 53 52 51 49 46 48 48 48 48 48 47 47 47 47 47 46 46 45 44 43 43 42 41 40 40 39 38 38 37 36 36 35 35 34 34 35 35 35 36 36 36 37 37 37 38

GEFSSGP_500_meanwind_162.txt.gz
Wind_Speed
29 28 28 27 27 26 24 24 25 24 23 22 22 22 21 20 20 19 18 17 16 16 15 15 14 13 12 11 11 10 9 9 9 8 7 7 6 6 7 7 8 8 9 10 11 12 13 13 14
31 30 30 30 29 27 24 24 25 25 24 24 24 23 22 20 20 19 19 18 17 17 16 16 15 14 13 12 11 11 10 9 9 8 8 8 7 7 7 8 9 10 10 11 12 13 14 14 15
33 33 32 32 30 27 25 26 27 27 27 26 25 24 22 21 20 20 20 19 18 17 17 16 16 14 13 12 12 11 11 10 9 9 8 8 8 8 8 9 9 10 11 12 13 14 14 15 15
35 35 35 34 30 27 28 28 28 29 28 27 26 25 23 22 21 21 21 20 20 19 17 17 16 15 14 13 12 12 11 10 10 9 9 8 8 8 8 8 9 10 11 12 13 14 14 15 16
38 38 38 36 31 29 29 29 29 30 29 29 28 26 25 24 22 22 21 21 21 20 19 18 17 16 15 14 13 13 12 11 11 10 9 9 8 8 8 9 10 10 11 13 14 14 15 16 17
41 41 40 37 33 32 31 30 31 30 30 30 29 27 26 25 23 22 22 22 22 21 20 19 18 17 16 15 14 14 13 12 11 11 10 9 9 9 9 9 10 11 12 13 14 15 16 17 18
43 43 41 39 37 35 32 32 32 31 31 30 30 29 27 26 25 24 24 23 23 22 21 20 19 18 16 15 15 14 13 12 11 11 10 10 9 9 10 11 11 12 13 14 15 16 17 18 19
45 45 43 41 39 36 34 35 34 33 32 32 31 29 28 27 26 25 24 24 23 22 21 20 19 18 17 16 15 14 13 13 12 12 11 11 10 10 11 11 12 13 14 15 16 17 18 19 20
49 48 45 41 39 37 37 37 36 35 34 33 32 30 29 28 27 25 24 24 23 23 22 21 20 19 18 17 16 15 14 13 13 12 12 11 11 11 12 13 13 14 15 16 17 18 18 20 21
51 50 44 41 40 40 40 40 38 38 36 34 33 31 30 29 27 26 25 25 24 23 23 22 21 20 19 17 17 16 15 14 14 13 12 12 12 12 13 13 14 15 16 17 17 18 19 21 22
52 50 46 44 43 43 43 42 41 40 37 35 34 32 31 30 29 27 26 25 25 24 23 22 21 20 19 18 18 17 16 15 14 14 13 13 13 13 13 14 15 16 16 17 18 19 21 22 22
53 50 48 47 46 45 45 45 43 42 39 37 35 34 33 32 30 29 28 27 26 25 24 23 22 21 20 19 18 18 17 16 15 14 14 14 14 14 14 15 15 16 17 18 19 20 21 22 23
54 52 50 49 49 48 47 47 45 44 41 39 37 35 34 33 32 31 30 29 27 26 25 24 23 22 21 20 19 18 18 17 16 15 15 15 15 14 14 15 16 16 17 18 20 21 22 23 24
54 54 53 52 50 49 49 48 48 45 43 41 39 37 36 34 34 33 31 30 28 27 26 25 24 23 22 21 20 19 19 18 17 16 16 16 15 15 15 16 17 18 19 19 21 22 23 24 25
55 56 56 54 52 50 50 51 49 45 45 43 41 39 38 36 35 34 33 31 30 29 28 27 26 24 23 22 21 20 20 19 18 18 17 17 16 16 16 17 18 19 20 21 22 23 24 25 25
55 57 57 55 54 51 52 51 48 47 47 46 43 41 40 38 36 35 34 33 32 31 30 28 27 26 25 24 23 22 22 21 20 19 18 18 17 17 18 18 19 20 21 22 23 24 24 25 26
55 57 57 55 55 54 54 52 49 48 49 48 46 44 42 40 38 37 36 35 34 33 32 30 29 28 27 26 25 24 23 23 22 21 20 19 19 19 20 20 20 21 22 23 24 25 25 26 27
54 54 55 55 54 55 55 53 50 50 50 50 48 46 44 42 39 38 37 36 36 35 34 33 31 30 29 28 27 26 25 24 24 23 22 21 21 21 21 21 22 22 23 24 25 25 26 27 28
52 53 53 53 53 55 56 56 53 52 52 52 51 49 46 44 41 40 39 38 37 36 35 34 33 32 31 29 29 28 27 27 26 25 24 23 23 23 23 23 23 24 25 25 26 26 27 28 29
51 53 53 52 52 54 56 58 57 56 54 52 51 51 48 46 44 42 41 40 39 37 36 35 34 33 32 31 31 30 29 29 28 27 26 25 25 24 25 25 25 26 26 27 27 28 29 29 30
50 51 51 51 51 54 57 59 59 58 56 54 52 51 50 48 46 44 42 41 40 38 37 36 35 34 34 33 33 32 31 30 29 28 27 27 26 26 26 27 27 27 27 28 29 29 30 30 31
49 49 50 51 51 52 56 60 60 58 57 56 53 52 50 49 47 46 44 42 41 39 38 37 36 35 35 35 34 33 32 31 30 30 29 29 29 28 28 28 28 29 29 30 30 31 31 31 32
46 47 48 50 51 53 55 60 62 59 58 56 54 51 50 50 49 47 46 44 42 40 39 39 38 36 36 35 34 34 33 33 32 32 31 31 30 30 30 29 30 30 31 31 31 32 32 32 33
46 46 48 49 50 55 55 57 62 59 57 55 54 52 50 49 49 48 47 45 43 42 41 40 39 38 37 36 35 34 34 34 33 33 33 32 32 31 31 31 31 32 32 32 32 33 33 33 34
46 47 47 49 51 54 54 57 60 56 55 54 54 53 52 50 49 49 48 47 45 43 42 41 40 39 37 37 36 35 34 34 34 34 34 33 33 33 32 32 32 33 33 33 34 34 34 35 35
44 46 48 48 50 51 53 57 58 53 52 53 53 53 53 52 51 50 49 48 47 45 44 42 41 40 39 38 37 36 35 35 35 35 35 34 34 34 34 33 34 34 34 34 35 35 35 36 36
44 45 46 47 48 49 51 54 56 53 51 51 52 52 52 52 51 50 48 48 47 46 45 43 42 41 40 39 38 37 37 37 36 36 36 35 34 34 35 35 35 35 35 35 36 35 36 36 36
43 42 44 47 48 49 50 52 54 52 50 49 50 51 51 51 51 50 49 48 47 47 45 45 44 43 41 40 39 38 38 38 38 37 37 36 36 36 36 36 36 36 36 36 36 36 36 36 36
44 44 44 45 47 47 49 51 50 50 49 48 48 49 50 50 50 50 50 49 48 48 47 46 45 44 43 42 41 40 39 39 39 38 38 37 37 37 36 36 36 37 37 37 37 36 36 36 37
42 44 44 45 46 47 47 47 46 47 47 47 46 46 48 48 49 49 49 48 48 48 47 46 46 45 43 42 41 41 40 40 40 40 39 39 38 38 37 37 37 37 37 38 37 36 36 37 37

GEFSSGP_500_meanwind_168.txt.gz
Wind_Speed
31 31 32 33 34 34 32 28 27 27 27 28 28 27 25 25 24 23 22 21 20 20 19 19 17 16 15 14 13 11 10 10 9 8 7 5 4 4 4 4 5 5 6 7 8 9 10 10 11
34 34 35 36 36 34 30 28 28 28 29 30 29 28 27 26 25 24 23 22 22 22 21 20 19 18 16 15 14 13 12 10 9 8 7 6 5 5 5 5 6 6 7 8 8 9 10 11 11
37 37 38 39 38 33 29 28 30 30 31 31 31 30 29 28 27 26 25 24 23 23 22 21 20 19 18 16 15 14 13 12 10 9 8 7 7 6 6 6 6 7 7 8 9 10 11 11 12
40 40 41 41 37 32 31 30 31 32 32 32 32 32 31 30 29 27 26 25 24 24 23 22 21 20 19 17 16 15 14 13 11 10 9 9 8 7 7 6 7 7 8 9 9 10 11 11 12
43 43 43 42 37 33 32 33 33 33 33 33 33 33 32 31 31 30 28 27 26 25 24 23 22 20 19 18 17 16 15 14 13 12 11 10 9 8 7 7 7 7 8 9 9 10 11 12 12
46 46 46 43 38 35 35 36 36 35 35 34 34 33 32 32 32 31 30 29 27 26 25 24 22 21 20 19 18 18 17 15 14 13 12 11 10 8 8 7 7 8 8 9 9 10 11 12 13
48 48 47 43 40 38 37 38 38 37 37 36 35 35 33 33 33 32 31 30 28 27 26 25 23 22 21 20 19 19 18 17 15 14 13 12 10 9 9 8 8 8 9 9 9 10 11 12 13
50 51 50 46 43 39 39 40 40 39 38 38 38 36 35 34 34 33 32 31 30 28 27 26 25 24 22 21 21 20 19 18 17 15 14 12 11 11 10 10 9 9 9 9 10 10 11 12 13
51 53 52 46 43 41 42 42 42 41 41 40 39 37 36 36 35 34 34 32 31 29 28 27 26 25 24 23 22 21 20 19 17 16 15 13 12 11 11 11 10 10 10 10 10 10 11 13 14
53 55 50 46 45 45 45 45 44 44 43 41 40 39 38 37 36 35 34 33 32 31 30 29 28 26 25 24 23 22 21 19 18 16 15 14 13 12 12 11 11 11 10 10 10 11 12 13 15
53 53 49 48 47 48 48 47 47 47 45 43 42 41 40 39 38 36 35 34 33 32 31 30 29 28 27 25 24 23 22 20 19 17 16 15 14 14 13 12 12 11 11 11 11 12 13 15 16
52 51 49 49 49 50 50 49 50 49 46 45 44 44 42 40 38 37 36 35 34 33 32 31 30 29 28 27 25 24 23 21 20 18 17 16 15 15 14 13 13 12 12 12 12 13 14 16 17
51 50 50 49 51 52 52 52 51 51 48 47 46 45 43 42 40 38 37 36 35 34 33 32 31 30 29 28 26 25 24 23 21 20 19 17 16 16 15 14 14 13 13 13 13 14 15 17 18
49 50 51 51 52 52 53 53 53 51 49 49 48 46 45 44 42 40 38 37 36 35 34 33 32 31 30 29 28 26 25 23 23 21 20 19 18 17 16 16 15 14 14 14 15 16 17 18 19
48 50 51 51 51 51 53 55 54 50 51 51 49 48 46 45 43 41 39 38 38 36 35 34 33 32 31 30 28 27 26 25 24 23 21 20 19 19 18 17 16 15 16 16 16 18 19 20 21
47 49 50 51 52 51 53 55 52 52 52 52 51 50 48 46 44 43 41 40 39 38 36 35 34 33 32 30 29 29 27 26 25 24 23 22 21 20 19 18 17 17 17 17 18 19 20 21 22
46 48 48 49 51 52 53 53 51 53 54 53 52 51 50 48 46 44 43 41 40 39 38 37 35 34 33 32 30 30 29 27 26 25 24 23 22 22 21 20 19 19 19 19 20 20 22 23 24
45 46 46 46 50 53 53 52 51 53 55 54 53 53 52 50 47 46 44 43 42 41 40 39 37 36 35 33 32 31 30 28 27 26 26 25 24 23 22 21 21 20 21 21 21 22 23 24 25
44 45 45 44 47 53 54 53 51 53 55 55 55 54 54 51 49 48 46 45 44 43 42 40 38 37 35 34 33 32 31 30 29 28 28 27 26 24 24 23 23 22 23 23 23 24 25 26 26
44 45 44 44 46 50 53 54 52 53 54 54 54 54 54 53 51 50 48 47 45 44 43 41 40 38 37 36 35 34 33 31 30 30 29 29 28 26 26 25 25 25 25 25 25 26 26 27 28
43 44 44 43 45 49 52 55 54 53 53 55 54 54 54 54 53 51 49 48 46 45 44 42 41 40 38 37 37 36 35 33 32 31 30 30 29 28 28 27 27 27 27 27 27 27 28 28 29
42 42 44 45 45 47 51 55 53 54 53 54 54 53 53 53 53 52 50 49 47 46 45 44 43 42 40 39 38 37 35 34 33 32 32 31 31 30 30 29 29 29 29 29 29 29 29 30 31
40 40 42 44 45 47 49 54 53 52 53 52 53 53 53 53 53 53 50 50 48 47 47 46 45 44 42 41 39 38 37 36 35 34 33 33 32 32 31 31 31 30 30 30 30 31 31 32 32
39 41 42 43 44 48 47 51 54 51 50 50 51 52 53 53 53 53 52 51 50 49 49 48 47 45 44 42 40 39 38 37 36 35 34 34 34 33 33 32 32 32 32 32 32 32 33 33 34
37 38 40 43 45 47 44 50 53 49 48 48 50 52 53 54 54 54 53 52 51 50 50 49 48 46 45 43 42 40 39 38 37 36 36 35 35 34 34 34 34 34 34 34 34 34 35 35 36
34 36 38 40 42 44 45 49 49 47 47 47 48 51 53 54 55 55 54 53 52 52 51 50 49 47 46 44 43 42 40 39 38 37 37 36 36 36 35 36 35 36 36 36 36 36 36 36 37
35 36 37 41 42 42 45 46 46 45 45 46 46 48 52 54 54 54 54 53 53 52 52 51 50 49 47 46 44 43 42 41 39 38 38 37 37 37 37 37 37 37 37 37 38 37 37 38 38
36 35 37 40 42 43 43 43 44 43 44 46 46 46 49 52 53 54 55 53 53 52 52 52 52 50 48 47 46 44 43 42 41 40 39 38 38 38 38 38 38 38 39 39 39 39 39 39 39
36 37 37 40 43 44 43 42 40 40 42 43 45 46 47 49 51 53 54 53 53 53 53 53 53 52 50 49 48 46 44 43 42 41 40 39 39 39 39 39 39 39 39 39 39 39 39 39 40
37 38 38 40 44 46 46 43 41 40 41 42 45 46 47 48 49 50 52 54 54 54 53 53 53 53 51 50 49 48 46 45 44 43 42 41 40 40 40 39 39 39 39 39 39 39 39 39 40

GEFSSGP_500_meanwind_174.txt.gz
Wind_Speed
30 30 31 32 34 34 31 28 27 28 29 29 29 29 27 27 26 26 25 24 23 22 22 22 21 20 20 19 17 16 15 14 13 13 12 11 9 9 8 7 6 6 5 4 4 4 4 4 4
31 32 33 35 35 34 30 27 27 29 31 31 32 31 29 29 28 28 27 25 25 24 24 23 23 22 21 20 19 18 17 16 15 14 13 12 11 10 9 8 7 6 6 5 5 4 4 4 4
34 35 36 37 36 33 30 28 29 30 32 33 34 33 32 30 30 29 29 27 26 26 25 25 24 24 23 22 21 19 18 17 16 15 14 13 12 11 10 9 8 7 6 5 5 5 4 4 4
37 38 39 39 36 33 32 32 32 33 33 34 35 35 34 32 31 31 31 30 29 28 27 26 26 25 24 24 23 21 19 19 18 16 16 15 14 13 11 10 9 8 7 6 5 5 4 4 4
40 41 42 40 37 34 34 35 35 35 35 35 36 36 35 34 33 33 33 32 31 30 29 28 27 26 26 25 24 23 21 20 19 18 17 16 15 14 13 11 10 9 8 7 6 5 4 4 4
43 44 44 42 38 36 36 37 38 38 37 37 38 38 37 36 36 35 35 35 33 32 31 30 29 28 27 26 26 25 23 22 21 19 19 17 16 15 14 12 11 10 9 8 7 6 5 5 5
44 46 46 43 41 39 38 39 40 40 40 40 40 40 39 39 38 37 37 36 35 34 33 32 31 29 28 27 27 26 25 24 23 21 20 19 18 16 15 14 13 11 10 9 8 7 6 6 6
45 47 47 45 43 41 40 42 42 42 42 42 43 42 41 41 40 39 38 38 37 36 35 34 32 31 29 29 28 27 26 26 24 23 21 20 19 18 17 15 14 13 12 11 10 9 8 7 7
47 49 48 46 45 44 43 43 44 45 45 45 45 44 43 43 42 41 40 39 38 37 36 36 34 33 31 30 29 28 28 27 26 24 23 22 20 19 18 17 15 14 13 12 11 10 9 9 8
47 49 47 46 46 44 43 44 45 46 47 46 46 46 46 45 44 43 42 41 40 38 38 37 36 34 33 32 31 30 29 28 27 26 24 23 22 21 19 18 17 16 15 14 13 12 11 10 10
47 48 46 46 46 45 45 45 46 48 48 48 48 47 48 47 46 45 44 43 42 41 39 38 38 37 35 33 32 31 30 29 28 27 26 25 23 22 21 19 18 17 16 15 14 13 13 12 12
47 47 47 46 47 46 46 47 48 49 48 49 50 50 50 49 47 47 46 45 44 43 41 40 39 38 37 35 34 32 31 30 29 28 27 26 25 23 22 21 19 18 17 17 16 15 14 14 14
45 46 48 47 47 47 47 48 48 49 49 50 51 51 51 50 49 49 48 47 46 45 43 42 40 40 39 37 35 34 33 32 31 30 29 27 26 24 23 22 20 20 19 18 17 16 16 16 15
43 45 47 47 47 47 48 48 50 48 49 51 51 52 52 51 51 50 49 49 48 47 45 44 42 41 40 39 37 36 35 33 32 31 30 29 28 26 25 23 22 21 20 19 18 18 17 17 17
41 43 45 46 47 47 49 50 49 48 49 51 52 52 54 53 52 51 50 50 49 48 47 45 44 42 42 41 39 38 37 35 33 33 32 30 29 28 26 24 23 22 21 20 20 19 18 18 18
40 42 44 45 46 46 49 49 47 49 50 50 52 53 54 54 53 52 51 51 50 49 48 47 45 44 43 42 41 40 38 37 35 34 33 31 30 29 28 26 25 23 22 21 21 20 19 19 19
39 41 42 43 44 45 48 47 46 48 49 50 51 53 54 55 53 53 52 52 51 50 49 48 46 45 44 44 43 41 39 38 36 35 34 33 31 30 29 28 26 24 23 23 22 21 21 21 21
37 38 40 42 43 44 46 46 46 46 47 48 49 52 54 54 53 53 53 53 52 51 50 49 47 46 45 44 43 42 41 39 38 36 35 34 32 31 30 29 28 26 25 24 24 23 23 23 23
36 38 39 40 42 44 45 45 45 45 46 47 48 52 53 54 54 54 54 54 53 52 52 50 49 47 45 44 44 43 42 40 39 37 36 35 34 33 32 30 29 28 27 26 25 25 24 24 25
36 38 38 38 39 42 44 44 43 44 44 46 46 49 52 53 54 56 55 55 54 53 52 51 50 48 47 45 44 43 43 41 40 39 38 37 35 34 33 32 31 30 28 27 26 26 26 26 26
34 35 36 36 36 40 43 45 42 41 42 44 45 47 50 52 53 55 56 55 54 54 52 51 50 49 48 47 46 45 44 43 41 40 39 38 37 36 35 33 32 31 30 29 28 27 27 27 28
31 31 33 34 35 36 39 43 40 39 40 42 44 46 48 49 52 54 56 56 54 53 53 52 51 51 50 49 47 46 44 43 42 41 40 40 38 37 36 35 34 33 32 30 30 29 29 29 29
29 30 32 34 36 37 37 41 38 38 38 41 43 44 45 46 49 52 54 55 55 54 54 54 53 52 51 50 49 47 45 44 43 43 42 41 40 38 37 37 36 35 33 32 31 31 30 30 31
28 29 30 33 36 38 36 38 37 37 36 39 42 43 44 45 47 49 52 54 55 56 55 54 54 53 52 51 50 48 46 45 44 43 43 42 41 39 38 38 37 36 35 34 33 33 32 32 33
27 28 29 32 35 37 36 38 36 36 34 37 41 43 43 45 46 49 51 53 55 56 56 55 54 53 53 52 50 49 47 46 45 44 44 43 42 40 40 39 38 37 36 36 35 34 34 34 34
27 27 28 31 33 35 35 37 35 35 33 35 39 41 41 43 46 47 49 52 54 56 57 56 54 54 54 53 51 50 49 47 47 46 45 44 42 41 41 40 39 38 38 37 37 36 36 36 35
28 28 27 29 33 35 36 36 34 33 33 34 37 40 41 42 44 46 49 51 54 55 56 56 55 54 54 53 52 51 50 48 47 47 46 45 44 43 42 41 41 40 39 39 38 38 37 37 36
28 28 28 29 31 34 35 36 36 33 33 34 36 39 42 42 43 46 48 51 53 55 56 56 56 54 54 54 53 52 51 49 48 48 47 46 45 44 43 42 42 41 40 40 39 38 38 38 37
27 29 30 31 32 35 36 35 35 34 34 35 36 38 41 43 43 46 48 50 52 54 56 57 57 55 54 54 53 53 53 52 50 49 48 47 46 45 45 44 43 42 41 41 40 39 39 38 38
29 29 31 33 34 35 37 37 34 34 35 36 37 38 41 43 44 46 47 49 51 54 56 58 58 57 55 54 54 53 53 53 52 50 49 48 47 46 46 45 44 43 42 41 41 40 40 40 39

GEFSSGP_500_meanwind_180.txt.gz
Wind_Speed
28 29 29 30 31 30 28 26 25 26 27 28 28 28 29 29 29 31 28 26 24 24 24 24 23 23 22 21 21 19 19 18 17 16 15 14 13 12 11 10 10 9 8 8 7 7 6 5 5
30 31 32 33 33 32 29 28 28 28 29 29 29 29 30 30 31 32 29 28 27 26 26 26 25 25 24 23 22 21 20 19 19 18 17 16 15 13 12 11 11 10 10 9 8 8 7 6 6
32 33 34 35 34 33 31 29 30 30 31 31 31 31 32 32 33 33 31 30 30 28 28 28 27 27 26 25 24 23 22 21 20 19 18 18 17 15 14 13 13 12 11 11 10 9 8 8 7
35 36 37 38 36 33 32 31 33 34 33 33 33 33 34 33 34 33 32 32 32 31 30 29 29 29 28 27 26 25 24 23 22 21 20 20 19 17 16 15 14 13 13 12 11 10 10 9 8
38 39 40 40 38 35 34 34 35 37 36 35 35 36 35 35 34 34 35 34 34 33 32 31 31 31 30 29 28 27 26 25 24 23 22 21 20 19 18 17 16 15 14 13 12 11 11 10 9
40 41 42 42 39 37 36 36 37 38 38 37 38 38 37 37 36 36 36 36 36 35 34 33 33 33 32 31 30 29 28 27 26 25 24 23 22 21 19 19 17 16 15 14 13 13 12 12 11
41 43 44 43 41 40 38 39 39 40 40 39 39 40 39 39 38 38 38 38 38 37 36 35 35 35 34 33 32 31 30 29 28 27 26 25 23 22 21 20 19 18 17 16 15 15 14 13 12
43 44 44 44 43 41 40 41 42 42 42 41 41 42 41 40 40 40 40 40 39 38 38 37 37 36 36 35 34 33 32 31 30 29 28 27 25 24 23 22 21 19 18 18 17 16 16 15 14
44 45 45 44 45 44 43 43 43 44 44 43 43 44 44 42 42 42 41 41 41 40 40 40 39 38 37 37 37 36 34 33 32 31 30 28 27 26 25 23 22 21 20 20 19 18 17 16 15
45 46 44 44 45 45 45 45 45 45 46 45 45 45 45 44 44 44 43 43 43 43 42 42 41 40 39 39 38 37 36 35 34 33 31 30 29 27 26 25 23 23 22 21 20 19 18 18 17
44 44 43 43 44 46 46 46 46 47 48 47 47 46 47 46 45 45 44 44 44 44 44 44 43 42 41 40 40 39 38 36 35 34 33 32 31 29 28 26 25 24 23 22 21 20 20 19 19
42 42 42 43 44 45 47 47 47 49 49 48 48 47 48 48 47 47 46 45 45 46 46 46 45 44 43 42 41 40 39 38 37 36 35 33 32 30 29 28 27 25 25 24 23 22 21 21 20
41 41 42 43 44 45 47 47 48 48 50 50 50 49 50 50 49 49 49 48 47 47 47 47 47 46 45 44 43 42 41 40 39 38 36 35 33 32 31 30 28 27 26 25 24 23 22 22 22
40 40 40 41 42 44 47 47 48 48 48 51 51 50 50 51 51 51 51 50 49 49 49 48 48 48 47 46 45 43 42 42 41 40 38 37 35 34 33 32 31 29 27 26 26 24 24 23 23
39 40 39 40 41 42 45 48 47 47 49 51 51 50 51 51 52 52 52 51 51 50 50 49 49 50 49 48 47 46 44 43 42 42 40 38 37 36 34 33 32 31 29 28 27 26 25 24 23
38 39 39 39 41 41 44 46 45 45 48 50 50 50 51 50 51 52 53 52 52 51 51 50 50 51 51 50 49 48 46 44 43 43 42 40 38 37 36 35 34 32 31 30 29 27 26 25 24
35 38 38 38 40 40 43 45 43 44 47 48 49 50 50 50 52 53 53 53 53 52 52 51 51 52 52 52 51 50 48 46 45 43 43 42 40 38 37 36 35 34 33 32 30 29 28 27 26
34 35 36 37 38 40 42 43 41 42 44 46 47 48 49 50 50 52 52 53 53 53 53 52 52 53 53 53 52 51 50 49 46 45 44 43 42 40 38 36 36 35 34 33 32 31 30 29 28
34 35 36 36 37 40 41 41 40 40 41 44 45 46 47 48 49 50 52 52 53 53 53 52 53 53 54 54 53 52 51 50 48 46 45 44 43 41 40 37 37 36 36 35 34 32 31 31 30
34 35 35 36 35 38 40 41 38 39 39 42 43 43 45 46 49 48 49 50 51 51 52 52 52 53 53 53 53 52 51 51 49 47 46 45 44 43 41 39 38 38 37 36 35 34 33 32 31
32 33 33 34 34 35 39 40 37 37 38 39 40 41 42 43 44 46 47 48 50 50 50 51 52 52 53 53 53 53 52 51 50 49 47 46 45 43 42 40 39 39 38 37 36 35 34 33 32
32 32 33 33 33 33 35 39 35 35 36 36 38 38 39 40 42 43 44 46 48 48 48 49 50 51 52 53 54 54 53 51 50 49 48 46 45 44 43 42 40 40 39 38 37 36 35 34 33
33 33 33 33 33 34 32 36 34 33 34 35 35 36 37 39 41 42 43 44 45 46 47 47 50 51 52 53 53 54 53 52 50 49 49 48 46 45 44 43 41 40 40 39 39 38 36 35 34
33 32 32 33 33 34 31 33 33 31 31 32 33 34 36 37 38 39 40 42 43 45 46 48 50 50 51 52 53 53 53 52 51 50 49 48 47 46 44 43 42 41 41 40 40 39 38 37 35
31 32 32 31 32 32 30 32 31 28 28 29 31 33 35 35 36 37 38 40 42 44 46 47 48 50 51 52 53 53 51 52 52 50 50 49 48 47 45 43 42 42 42 41 41 40 39 38 36
31 31 31 31 30 30 29 30 29 28 28 29 31 32 34 36 36 37 38 39 41 43 44 45 47 48 51 52 53 53 51 50 51 50 49 49 48 47 46 45 43 42 42 42 41 41 40 39 38
32 31 30 32 32 32 31 30 28 28 29 30 31 31 32 35 36 37 39 40 41 42 43 45 47 48 50 52 53 54 53 51 51 50 49 49 49 48 47 46 44 44 43 42 42 42 41 40 39
32 31 30 30 31 32 31 30 28 28 29 30 32 33 33 35 35 37 39 40 40 42 43 44 47 49 51 52 53 53 53 52 51 51 49 49 49 49 48 47 45 45 44 43 42 42 42 41 40
32 31 31 31 32 33 33 31 29 30 31 31 32 33 34 36 37 37 38 40 41 42 44 46 47 48 50 51 53 54 54 53 52 52 50 49 49 49 48 48 46 45 45 44 44 42 42 42 41
34 32 31 32 34 34 34 32 29 31 32 33 34 35 36 38 39 39 40 40 42 43 44 46 47 48 49 51 52 54 54 54 52 53 51 49 49 50 49 48 47 46 45 45 44 44 43 42 41

GEFSSGP_500_meanwind_186.txt.gz
Wind_Speed
24 25 26 26 27 26 25 23 22 22 23 24 25 26 26 26 25 25 23 22 21 21 22 22 21 21 21 20 20 20 19 18 18 17 16 16 15 14 14 13 12 11 10 10 9 9 8 8 7
27 27 28 28 29 28 26 25 24 24 25 26 27 27 27 27 27 25 24 23 23 23 23 23 23 23 23 22 22 22 21 20 20 19 18 17 17 16 15 14 13 12 11 11 11 10 10 9 8
28 29 30 31 30 29 28 27 27 27 27 28 28 29 29 29 28 27 26 25 25 24 24 25 25 25 24 24 24 23 23 22 21 21 20 19 18 18 17 16 15 14 13 12 12 12 11 10 10
30 31 33 33 31 29 30 30 30 30 30 30 30 31 31 30 29 29 28 27 26 26 26 26 26 26 26 26 25 25 24 24 23 22 22 21 20 19 19 18 17 16 15 14 14 13 13 12 11
32 33 34 35 32 32 32 33 34 34 32 32 33 33 33 32 32 31 30 29 28 27 27 28 28 28 28 27 27 27 26 26 25 24 23 23 22 21 21 20 19 18 17 16 15 15 14 14 13
34 36 37 37 34 34 34 35 35 36 35 35 36 36 35 35 35 33 32 32 31 30 29 29 30 30 29 29 29 28 28 27 27 26 25 25 24 23 22 22 21 20 19 18 17 17 16 16 15
36 38 38 38 37 36 36 37 38 38 37 37 38 39 38 38 37 36 35 35 34 33 31 31 31 32 31 31 30 30 30 29 29 29 28 27 26 25 24 23 23 22 21 20 19 19 18 17 17
37 39 39 39 39 38 38 40 40 40 40 38 40 41 40 40 40 39 38 38 37 36 34 34 33 33 33 32 32 32 31 31 31 30 30 29 28 27 26 25 24 24 23 22 21 20 20 19 18
38 40 40 40 40 40 40 41 41 42 42 41 42 43 42 42 42 42 41 40 39 38 37 36 36 35 35 34 34 33 33 33 32 32 32 31 30 29 28 27 26 25 25 24 23 22 21 20 20
38 40 40 41 41 41 42 43 43 43 43 43 44 44 44 44 44 44 43 42 42 41 40 39 38 38 37 36 35 35 34 34 34 34 33 33 32 31 30 29 28 27 26 26 25 24 22 22 21
38 39 39 40 41 41 42 43 43 44 44 44 45 45 45 46 46 46 45 44 43 43 42 42 41 40 39 38 37 37 37 36 36 36 35 35 34 33 33 32 31 29 29 28 27 26 24 24 23
36 37 37 38 40 40 41 42 42 43 44 45 47 46 46 47 47 47 47 46 46 45 45 44 43 43 42 41 40 39 39 38 38 38 37 37 36 35 35 34 33 32 31 30 29 28 27 25 24
34 35 35 36 38 39 40 42 43 42 42 45 46 47 47 47 48 48 48 48 48 47 47 47 46 45 45 44 42 41 41 41 40 40 39 39 38 37 36 36 36 34 33 32 31 30 28 27 26
33 34 34 36 36 37 40 40 41 41 42 43 45 46 47 47 48 49 49 49 49 48 48 49 49 48 47 46 45 44 43 43 43 42 41 40 39 39 38 38 37 36 35 34 33 32 30 29 28
32 33 34 34 35 36 39 39 39 40 42 43 45 46 46 47 48 49 49 50 50 50 50 50 50 50 49 48 48 46 45 45 45 44 43 42 41 40 40 39 39 38 37 36 34 33 32 31 30
32 34 34 33 35 35 38 39 38 40 42 43 44 45 46 47 49 49 50 50 52 52 51 51 51 51 50 50 50 49 47 46 47 46 45 44 43 42 42 41 40 40 39 37 36 35 33 32 32
31 32 33 33 35 36 37 38 37 39 42 43 44 45 46 47 48 49 50 50 52 52 53 53 52 52 51 51 51 51 49 49 49 48 48 46 45 45 44 43 42 41 40 39 38 37 35 34 33
31 32 32 32 34 35 35 36 36 39 41 41 42 44 44 46 46 48 49 49 52 53 52 53 53 52 52 52 52 52 51 50 50 50 49 48 47 46 45 44 43 43 42 41 40 39 37 36 35
32 34 34 33 33 34 35 36 36 38 39 39 40 41 42 44 45 47 47 48 50 52 53 53 53 53 53 53 52 52 52 52 51 51 50 49 49 48 47 46 45 44 44 42 42 41 39 38 37
33 34 35 33 34 35 36 36 35 36 38 38 38 39 40 41 42 44 44 45 47 49 52 52 52 51 52 53 52 53 53 52 52 51 50 50 50 49 48 48 47 46 45 44 43 42 41 39 38
34 35 35 35 35 36 37 37 34 33 36 37 37 38 39 39 40 42 42 43 45 47 48 48 49 50 51 52 53 53 53 53 54 53 51 51 51 50 49 49 48 47 46 45 44 42 41 40 39
34 34 36 36 36 36 36 37 32 32 33 35 35 35 37 38 39 39 41 41 43 43 44 46 47 48 49 51 52 53 53 53 52 53 52 51 51 51 50 49 49 48 46 45 45 43 42 41 40
34 34 34 34 35 35 33 36 32 31 32 32 34 34 34 36 37 37 37 39 40 40 42 43 44 45 47 49 50 51 52 53 52 52 52 51 50 51 51 49 49 48 48 46 45 44 43 42 41
33 34 34 35 35 33 31 34 32 31 31 31 32 33 33 34 34 35 35 37 38 39 41 41 43 43 45 48 50 51 51 52 52 52 52 51 50 50 51 50 49 49 49 48 46 45 44 43 42
33 33 35 35 35 33 32 32 31 30 30 30 30 30 31 33 33 34 35 36 37 39 40 41 42 43 44 46 49 50 50 52 51 51 52 52 51 50 50 51 50 49 49 48 47 46 45 44 43
33 33 33 35 36 35 32 32 31 30 30 30 29 30 30 31 32 32 33 35 36 37 38 40 41 42 43 45 48 50 50 51 52 51 52 52 52 51 49 50 50 50 49 48 48 47 46 45 44
33 33 33 35 36 35 33 32 31 29 29 30 29 29 30 30 32 33 33 34 36 37 37 38 40 41 42 44 46 48 50 50 50 50 52 52 51 51 50 50 50 50 50 49 48 48 46 45 44
34 34 34 33 35 35 35 34 32 29 28 28 29 29 29 30 31 32 34 35 35 35 36 38 40 41 43 45 46 47 48 50 49 51 51 52 50 51 50 50 50 51 50 49 49 48 47 46 45
35 35 35 35 35 36 36 34 32 30 30 29 28 28 29 30 31 31 32 34 35 35 36 37 39 41 41 43 45 45 46 48 49 51 51 51 50 50 51 49 49 50 50 49 49 48 48 47 46
37 36 36 36 36 36 38 36 30 30 29 30 29 30 30 31 31 32 34 34 34 35 37 38 39 40 41 41 43 45 45 47 48 50 51 51 51 50 50 50 48 48 49 49 48 47 48 47 46

GEFSSGP_500_meanwind_192.txt.gz
Wind_Speed
22 23 23 23 24 24 23 21 20 21 22 22 23 24 23 24 24 24 23 22 22 22 22 22 21 20 20 20 19 19 18 17 16 16 15 14 13 12 12 11 11 10 10 10 9 8 8 8 7
23 24 25 25 25 24 23 22 23 23 23 24 25 25 25 25 25 24 24 24 23 23 23 23 23 22 22 21 21 21 20 19 19 17 17 16 15 14 14 13 13 12 12 11 11 10 9 9 9
25 26 27 27 26 25 24 23 24 25 25 25 26 26 26 26 26 26 26 26 25 25 24 24 24 24 23 23 22 22 22 21 21 20 19 18 17 16 16 15 14 14 13 13 12 12 11 11 11
27 28 29 29 28 26 26 26 26 26 27 27 27 27 27 27 27 27 27 27 27 27 26 25 25 25 25 25 24 24 23 23 22 22 21 20 19 18 18 17 16 16 15 14 14 14 13 13 13
29 30 30 30 28 27 28 28 29 29 30 30 30 30 29 29 30 29 29 29 29 28 27 27 26 26 26 26 26 26 25 25 24 24 23 22 21 20 19 19 19 18 17 17 16 16 15 15 14
30 31 32 31 30 30 31 31 32 32 33 33 33 33 32 32 32 32 32 32 31 30 30 29 29 28 28 28 28 28 28 27 27 26 25 24 24 23 22 21 21 20 19 19 18 18 17 17 16
31 33 33 33 33 33 33 34 34 35 35 35 36 36 34 34 35 35 34 34 34 33 33 32 31 31 30 30 30 29 29 29 29 28 27 26 26 25 24 23 23 22 21 21 20 20 19 18 17
33 34 34 34 35 35 35 36 37 38 38 38 38 38 37 36 37 37 37 37 36 36 35 35 34 34 33 32 32 31 31 31 30 30 30 29 28 27 26 25 25 24 23 23 22 22 21 20 19
34 35 35 35 36 37 37 38 39 40 40 41 41 41 40 39 40 40 40 40 39 39 38 38 37 37 36 35 34 34 33 33 33 32 32 31 30 29 28 28 27 26 26 25 25 24 24 23 22
34 35 35 36 37 38 39 39 40 41 42 42 43 43 42 42 42 42 42 42 42 42 41 41 41 40 39 38 37 37 36 35 34 35 34 33 33 32 31 30 29 28 28 27 26 26 26 25 24
34 35 35 36 37 38 38 39 39 41 42 43 44 44 44 43 43 43 44 45 45 44 44 43 43 43 42 41 40 40 39 38 37 37 36 36 35 34 33 32 32 31 30 29 28 28 28 28 27
32 33 34 35 36 37 38 38 39 41 42 43 45 45 45 45 45 45 45 46 46 46 46 46 46 45 45 44 44 43 42 41 40 39 39 38 37 36 35 35 34 33 32 31 31 30 30 30 29
31 31 32 33 35 37 38 39 40 40 43 44 45 46 47 46 46 46 46 47 48 48 48 48 48 48 48 47 47 46 45 44 43 42 41 41 40 39 38 37 36 36 35 34 33 32 32 32 31
31 31 32 33 35 36 38 39 40 40 42 43 45 46 46 46 46 46 47 48 48 48 49 50 50 50 49 49 49 49 48 47 46 45 44 43 43 42 40 40 39 38 37 36 35 35 34 34 33
31 31 31 32 34 36 38 37 39 41 42 43 44 46 46 47 47 47 47 47 49 50 50 51 51 51 51 50 50 51 51 50 48 47 47 46 45 44 43 42 41 41 40 39 38 37 37 36 35
30 31 31 32 34 36 39 38 39 41 42 43 44 45 46 46 47 48 47 48 50 51 51 52 52 52 52 52 53 53 53 52 52 49 49 48 47 47 46 45 44 43 43 41 40 39 39 38 38
30 31 32 33 35 37 38 38 38 40 42 42 43 44 45 45 46 46 46 48 50 52 52 53 53 53 53 54 55 54 54 54 54 53 51 50 49 49 48 47 46 45 45 44 43 41 41 40 39
32 32 32 33 36 37 38 37 37 39 41 41 41 42 44 45 45 45 47 48 49 51 52 53 53 53 54 55 56 56 56 55 55 54 53 52 51 51 50 49 48 47 46 46 45 43 43 42 41
33 33 33 35 37 38 37 37 36 37 39 39 40 41 42 44 44 45 46 47 48 49 50 51 51 53 53 55 55 56 56 56 56 55 55 54 54 53 52 51 50 49 48 47 46 45 45 44 43
34 35 35 36 37 38 37 36 34 34 37 38 39 40 42 43 43 44 45 45 46 47 47 48 49 50 52 53 54 55 56 56 57 56 56 56 55 54 53 52 52 50 49 48 48 48 47 46 45
35 36 37 38 38 37 38 36 33 34 36 38 38 39 41 41 42 43 44 44 44 45 46 46 46 49 50 51 53 54 55 56 57 57 57 58 57 55 55 54 54 53 51 50 50 49 48 48 47
35 36 37 38 39 38 38 39 33 34 36 37 37 38 39 40 40 40 42 42 43 44 45 46 46 47 48 49 51 51 53 54 55 57 58 58 58 57 56 56 55 55 53 53 52 51 50 49 48
36 37 38 39 39 39 37 40 36 36 36 36 37 38 38 39 39 39 39 41 42 43 44 45 45 46 47 47 49 50 52 53 54 55 57 57 58 57 58 57 56 56 55 54 53 52 51 50 49
36 37 38 39 40 40 38 39 37 36 35 35 36 36 37 38 38 38 39 40 41 40 42 44 45 45 45 46 48 48 50 52 53 54 55 56 58 58 57 56 56 56 56 56 55 53 52 50 49
37 37 39 41 40 39 38 38 37 36 35 35 35 34 36 37 37 37 38 39 39 39 41 42 43 42 43 44 45 47 48 50 51 53 54 55 57 57 56 57 55 55 55 54 54 54 53 51 50
37 38 38 40 41 40 39 39 37 35 34 35 35 35 36 37 36 36 37 37 38 39 39 40 41 41 42 42 43 44 46 48 49 51 51 53 54 56 56 56 55 55 55 54 53 54 53 52 52
38 38 38 40 42 42 41 40 39 35 35 35 35 35 35 36 36 35 36 37 37 39 38 39 40 40 41 42 43 42 43 46 48 49 49 51 53 55 57 56 55 54 55 54 53 52 53 53 52
40 39 39 40 42 43 43 41 39 37 35 35 35 35 35 34 34 35 36 36 37 37 37 38 40 40 41 41 41 42 43 43 45 47 48 49 52 54 56 56 56 55 55 54 53 53 53 53 53
40 40 40 41 42 43 44 41 39 38 37 36 35 36 36 35 34 35 36 36 36 36 37 38 40 40 40 40 41 41 41 43 45 46 47 48 49 51 53 55 55 54 55 54 54 53 52 52 53
41 41 41 41 42 44 46 45 40 38 37 37 37 36 36 35 35 35 35 36 36 36 38 39 39 39 40 40 41 41 41 42 43 45 46 48 49 49 51 53 54 54 53 53 54 54 53 52 52